[[{"header":{"parameterUnit":"m.s-1","parameterCategory":1,"la1":30.6,"la2":28.766,"lo1":-90.7593,"lo2":-88.6598,"dy":0.0162,"dx":0.0183,"nx":116,"ny":114,"refTime":"2023-08-03T00:00:00:Z","depth":0,"parameterNumber":2,"parameterNumberName":"U-component_of_WINDS"},"data":[0.0,0.0,0.0,0.0,0.0,0.0,0.0,0.0,0.0,0.0,0.0,0.0,0.0,0.0,0.0,0.0,0.0,0.0,0.0,0.0,0.0,0.0,0.0,0.0,0.0,0.0,0.0,0.0,0.0,0.0,0.0,0.0,0.0,0.0,0.0,0.0,0.0,0.0,0.0,0.0,0.0,0.0,0.0,0.0,0.0,0.0,0.0,0.0,0.0,0.0,0.0,0.0,0.0,0.0,0.0,0.0,0.0,0.0,0.0,0.0,0.0,0.0,0.0,0.0,0.0,0.0,0.0,0.0,0.0,0.0,0.0,0.0,0.0,0.0,0.0,0.0,0.0,0.0,0.0,0.0,0.0,0.0,0.0,0.0,0.0,0.0,0.0,0.0,0.0,0.0,0.0,0.0,0.0,0.0,0.0,0.0,0.0,0.0,0.0,0.0,0.0,0.0,0.0,0.0,0.0,0.0,0.0,0.0,0.0,0.0,0.0,0.0,0.0,0.0,0.0,0.0,0.0,0.0,0.0,0.0,0.0,0.0,0.0,0.0,0.0,0.0,0.0,0.0,0.0,0.0,0.0,0.0,0.0,0.0,0.0,0.0,0.0,0.0,0.0,0.0,0.0,0.0,0.0,0.0,0.0,0.0,0.0,0.0,0.0,0.0,0.0,0.0,0.0,0.0,0.0,0.0,0.0,0.0,0.0,0.0,0.0,0.0,0.0,0.0,0.0,0.0,0.0,0.0,0.0,0.0,0.0,0.0,0.0,0.0,0.0,0.0,0.0,0.0,0.0,0.0,0.0,0.0,0.0,0.0,0.0,0.0,0.0,0.0,0.0,0.0,0.0,0.0,0.0,0.0,0.0,0.0,0.0,0.0,0.0,0.0,0.0,0.0,0.0,0.0,0.0,0.0,0.0,0.0,0.0,0.0,0.0,0.0,0.0,0.0,0.0,0.0,0.0,0.0,0.0,0.0,0.0,0.0,0.0,0.0,0.0,0.0,0.0,0.0,0.0,0.0,0.0,0.0,0.0,0.0,0.0,0.0,0.0,0.0,0.0,0.0,0.0,0.0,0.0,0.0,0.0,0.0,0.0,0.0,0.0,0.0,0.0,0.0,0.0,0.0,0.0,0.0,0.0,0.0,0.0,0.0,0.0,0.0,0.0,0.0,0.0,0.0,0.0,0.0,0.0,0.0,0.0,0.0,0.0,0.0,0.0,0.0,0.0,0.0,0.0,0.0,0.0,0.0,0.0,0.0,0.0,0.0,0.0,0.0,0.0,0.0,0.0,0.0,0.0,0.0,0.0,0.0,0.0,0.0,0.0,0.0,0.0,0.0,0.0,0.0,0.0,0.0,0.0,0.0,0.0,0.0,0.0,0.0,0.0,0.0,0.0,0.0,0.0,0.0,0.0,0.0,0.0,0.0,0.0,0.0,0.0,0.0,0.0,0.0,0.0,0.0,0.0,0.0,0.0,0.0,0.0,0.0,0.0,0.0,0.0,0.0,0.0,0.0,0.0,0.0,0.0,0.0,0.0,0.0,0.0,0.0,0.0,0.0,0.0,0.0,0.0,0.0,0.0,0.0,0.0,0.0,0.0,0.0,0.0,0.0,0.0,0.0,0.0,0.0,0.0,0.0,0.0,0.0,0.0,0.0,0.0,0.0,0.0,0.0,0.0,0.0,0.0,0.0,0.0,0.0,0.0,0.0,0.0,0.0,0.0,0.0,0.0,0.0,0.0,0.0,0.0,0.0,0.0,0.0,0.0,0.0,0.0,0.0,0.0,0.0,0.0,0.0,0.0,0.0,0.0,0.0,0.0,0.0,0.0,0.0,0.0,0.0,0.0,0.0,0.0,0.0,0.0,0.0,0.0,0.0,0.0,0.0,0.0,0.0,0.0,0.0,0.0,0.0,0.0,0.0,0.0,0.0,0.0,0.0,0.0,0.0,0.0,0.0,0.0,0.0,0.0,0.0,0.0,0.0,0.0,0.0,0.0,0.0,0.0,0.0,0.0,0.0,0.0,0.0,0.0,0.0,0.0,0.0,0.0,0.0,0.0,0.0,0.0,0.0,0.0,0.0,0.0,0.0,0.0,0.0,0.0,0.0,0.0,0.0,0.0,0.0,0.0,0.0,0.0,0.0,0.0,0.0,0.0,0.0,0.0,0.0,0.0,0.0,0.0,0.0,0.0,0.0,0.0,0.0,0.0,0.0,0.0,0.0,0.0,0.0,0.0,0.0,0.0,0.0,0.0,0.0,0.0,0.0,0.0,0.0,0.0,0.0,0.0,0.0,0.0,0.0,0.0,0.0,0.0,0.0,0.0,0.0,0.0,0.0,0.0,0.0,0.0,0.0,0.0,0.0,0.0,0.0,0.0,0.0,0.0,0.0,0.0,0.0,0.0,0.0,0.0,0.0,0.0,0.0,0.0,0.0,0.0,0.0,0.0,0.0,0.0,0.0,0.0,0.0,0.0,0.0,0.0,0.0,0.0,0.0,0.0,0.0,0.0,0.0,0.0,0.0,0.0,0.0,0.0,0.0,0.0,0.0,0.0,0.0,0.0,0.0,0.0,0.0,0.0,0.0,0.0,0.0,0.0,0.0,0.0,0.0,0.0,0.0,0.0,0.0,0.0,0.0,0.0,0.0,0.0,0.0,0.0,0.0,0.0,0.0,0.0,0.0,0.0,0.0,0.0,0.0,0.0,0.0,0.0,0.0,0.0,0.0,0.0,0.0,0.0,0.0,0.0,0.0,0.0,0.0,0.0,0.0,0.0,0.0,0.0,0.0,0.0,0.0,0.0,0.0,0.0,0.0,0.0,0.0,0.0,0.0,0.0,0.0,0.0,0.0,0.0,0.0,0.0,0.0,0.0,0.0,0.0,0.0,0.0,0.0,0.0,0.0,0.0,0.0,0.0,0.0,0.0,0.0,0.0,0.0,0.0,0.0,0.0,0.0,0.0,0.0,0.0,0.0,0.0,0.0,0.0,0.0,0.0,0.0,0.0,0.0,0.0,0.0,0.0,0.0,0.0,0.0,0.0,0.0,0.0,0.0,0.0,0.0,0.0,0.0,0.0,0.0,0.0,0.0,0.0,0.0,0.0,0.0,0.0,0.0,0.0,0.0,0.0,0.0,0.0,0.0,0.0,0.0,0.0,0.0,0.0,0.0,0.0,0.0,0.0,0.0,0.0,0.0,0.0,0.0,0.0,0.0,0.0,0.0,0.0,0.0,0.0,0.0,0.0,0.0,0.0,0.0,0.0,0.0,0.0,0.0,0.0,0.0,0.0,0.0,0.0,0.0,0.0,0.0,0.0,0.0,0.0,0.0,0.0,0.0,0.0,0.0,0.0,0.0,0.0,0.0,0.0,0.0,0.0,0.0,0.0,0.0,0.0,0.0,0.0,0.0,0.0,0.0,0.0,0.0,0.0,0.0,0.0,0.0,0.0,0.0,0.0,0.0,0.0,0.0,0.0,0.0,0.0,0.0,0.0,0.0,0.0,0.0,0.0,0.0,0.0,0.0,0.0,0.0,0.0,0.0,0.0,0.0,0.0,0.0,0.0,0.0,0.0,0.0,0.0,0.0,0.0,0.0,0.0,0.0,0.0,0.0,0.0,0.0,0.0,0.0,0.0,0.0,0.0,0.0,0.0,0.0,0.0,0.0,0.0,0.0,0.0,0.0,0.0,0.0,0.0,0.0,0.0,0.0,0.0,0.0,0.0,0.0,0.0,0.0,0.0,0.0,0.0,0.0,0.0,0.0,0.0,0.0,0.0,0.0,0.0,0.0,0.0,0.0,0.0,0.0,0.0,0.0,0.0,0.0,0.0,0.0,0.0,0.0,0.0,0.0,0.0,0.0,0.0,0.0,0.0,0.0,0.0,0.0,0.0,0.0,0.0,0.0,0.0,0.0,0.0,0.0,0.0,0.0,0.0,0.0,0.0,0.0,0.0,0.0,0.0,0.0,0.0,0.0,0.0,0.0,0.0,0.0,0.0,0.0,0.0,0.0,0.0,0.0,0.0,0.0,0.0,0.0,0.0,0.0,0.0,0.0,0.0,0.0,0.0,0.0,0.0,0.0,0.0,0.0,0.0,0.0,0.0,0.0,0.0,0.0,0.0,0.0,0.0,0.0,0.0,0.0,0.0,0.0,0.0,0.0,0.0,0.0,0.0,0.0,0.0,0.0,0.0,0.0,0.0,0.0,0.0,0.0,0.0,0.0,0.0,0.0,0.0,0.0,0.0,0.0,0.0,0.0,0.0,0.0,0.0,0.0,0.0,0.0,0.0,0.0,0.0,0.0,0.0,0.0,0.0,0.0,0.0,0.0,0.0,0.0,0.0,0.0,0.0,0.0,0.0,0.0,0.0,0.0,0.0,0.0,0.0,0.0,0.0,0.0,0.0,0.0,0.0,0.0,0.0,0.0,0.0,0.0,0.0,0.0,0.0,0.0,0.0,0.0,0.0,0.0,0.0,0.0,0.0,0.0,0.0,0.0,0.0,0.0,0.0,0.0,0.0,0.0,0.0,0.0,0.0,0.0,0.0,0.0,0.0,0.0,0.0,0.0,0.0,0.0,0.0,0.0,0.0,0.0,0.0,0.0,0.0,0.0,0.0,0.0,0.0,0.0,0.0,0.0,0.0,0.0,0.0,0.0,0.0,0.0,0.0,0.0,0.0,0.0,0.0,0.0,0.0,0.0,0.0,0.0,0.0,0.0,0.0,0.0,0.0,0.0,0.0,0.0,0.0,0.0,0.0,0.0,0.0,0.0,0.0,0.0,0.0,0.0,0.0,0.0,0.0,0.0,0.0,0.0,0.0,0.0,0.0,0.0,0.0,0.0,0.0,0.0,0.0,0.0,0.0,0.0,0.0,0.0,0.0,0.0,0.0,0.0,0.0,0.0,0.0,0.0,0.0,0.0,0.0,0.0,0.0,0.0,0.0,0.0,0.0,0.0,0.0,0.0,0.0,0.0,0.0,0.0,0.0,0.0,0.0,0.0,0.0,0.0,0.0,0.0,0.0,0.0,0.0,0.0,0.0,0.0,0.0,0.0,0.0,0.0,0.0,0.0,0.0,0.0,0.0,0.0,0.0,0.0,0.0,0.0,0.0,0.0,0.0,0.0,0.0,0.0,0.0,0.0,0.0,0.0,0.0,0.0,0.0,0.0,0.0,0.0,0.0,0.0,0.0,0.0,0.0,0.0,0.0,0.0,0.0,0.0,0.0,0.0,0.0,0.0,0.0,0.0,0.0,0.0,0.0,0.0,0.0,0.0,0.0,0.0,0.0,0.0,0.0,0.0,0.0,0.0,0.0,0.0,0.0,0.0,0.0,0.0,0.0,0.0,0.0,0.0,0.0,0.0,0.0,0.0,0.0,0.0,0.0,0.0,0.0,0.0,0.0,0.0,0.0,0.0,0.0,0.0,0.0,0.0,0.0,0.0,0.0,0.0,0.0,0.0,0.0,0.0,0.0,0.0,0.0,0.0,0.0,0.0,0.0,0.0,0.0,0.0,0.0,0.0,0.0,0.0,0.0,0.0,0.0,0.0,0.0,0.0,0.0,0.0,0.0,0.0,0.0,0.0,0.0,0.0,0.0,0.0,0.0,0.0,0.0,0.0,0.0,0.0,0.0,0.0,0.0,0.0,0.0,0.0,0.0,0.0,0.0,0.0,0.0,0.0,0.0,0.0,0.0,0.0,0.0,0.0,0.0,0.0,0.0,0.0,0.0,0.0,0.0,0.0,0.0,0.0,0.0,0.0,0.0,0.0,0.0,0.0,0.0,0.0,0.0,0.0,0.0,0.0,0.0,0.0,0.0,0.0,0.0,0.0,0.0,0.0,0.0,0.0,0.0,0.0,0.0,0.0,0.0,0.0,0.0,0.0,0.0,0.0,0.0,0.0,0.0,0.0,0.0,0.0,0.0,0.0,0.0,0.0,0.0,0.0,0.0,0.0,0.0,0.0,0.0,0.0,0.0,0.0,0.0,0.0,0.0,0.0,0.0,0.0,0.0,0.0,0.0,0.0,0.0,0.0,0.0,0.0,0.0,0.0,0.0,0.0,0.0,0.0,0.0,0.0,0.0,0.0,0.0,0.0,0.0,0.0,-5.3185,0.0,0.0,0.0,0.0,0.0,0.0,0.0,0.0,0.0,0.0,0.0,0.0,0.0,0.0,0.0,0.0,0.0,0.0,0.0,0.0,0.0,0.0,0.0,0.0,0.0,0.0,0.0,0.0,0.0,0.0,0.0,0.0,0.0,0.0,0.0,0.0,0.0,0.0,0.0,0.0,0.0,0.0,0.0,0.0,0.0,0.0,0.0,0.0,0.0,0.0,0.0,0.0,0.0,0.0,0.0,0.0,0.0,0.0,0.0,0.0,0.0,0.0,0.0,0.0,0.0,0.0,0.0,0.0,0.0,0.0,0.0,0.0,0.0,0.0,0.0,0.0,0.0,0.0,0.0,0.0,0.0,0.0,0.0,0.0,0.0,0.0,0.0,0.0,0.0,0.0,0.0,0.0,0.0,0.0,0.0,0.0,0.0,0.0,0.0,0.0,0.0,0.0,0.0,0.0,0.0,0.0,0.0,0.0,0.0,0.0,0.0,0.0,0.0,0.0,0.0,0.0,-5.3185,0.0,0.0,0.0,0.0,0.0,0.0,0.0,0.0,0.0,0.0,0.0,0.0,0.0,0.0,0.0,0.0,0.0,0.0,0.0,0.0,0.0,0.0,0.0,0.0,0.0,0.0,0.0,0.0,0.0,0.0,0.0,0.0,0.0,0.0,0.0,0.0,0.0,0.0,0.0,0.0,0.0,0.0,0.0,0.0,0.0,0.0,0.0,0.0,0.0,0.0,0.0,0.0,0.0,0.0,0.0,0.0,0.0,0.0,0.0,0.0,0.0,0.0,0.0,0.0,0.0,0.0,0.0,0.0,0.0,0.0,0.0,0.0,0.0,0.0,0.0,0.0,0.0,0.0,0.0,0.0,0.0,0.0,0.0,0.0,0.0,0.0,0.0,0.0,0.0,0.0,0.0,0.0,0.0,0.0,0.0,0.0,0.0,0.0,0.0,0.0,0.0,0.0,0.0,0.0,0.0,0.0,0.0,0.0,-5.4601,-5.4252,-5.3628,-5.3628,-5.3628,-5.3628,-5.3628,-5.3463,-5.3185,-5.3185,0.0,0.0,0.0,0.0,0.0,0.0,0.0,0.0,0.0,0.0,0.0,0.0,0.0,0.0,0.0,0.0,0.0,0.0,0.0,0.0,0.0,0.0,0.0,0.0,0.0,0.0,0.0,0.0,0.0,0.0,0.0,0.0,0.0,0.0,0.0,0.0,0.0,0.0,-5.1234,-5.1206,-5.1174,-5.1139,0.0,0.0,0.0,0.0,0.0,0.0,0.0,0.0,0.0,0.0,0.0,0.0,0.0,0.0,0.0,0.0,0.0,0.0,0.0,0.0,0.0,0.0,0.0,0.0,0.0,0.0,0.0,0.0,0.0,0.0,0.0,0.0,0.0,0.0,0.0,0.0,0.0,0.0,0.0,0.0,0.0,0.0,0.0,0.0,-5.7157,-5.803,0.0,0.0,0.0,0.0,0.0,0.0,0.0,0.0,0.0,0.0,0.0,0.0,0.0,-5.7805,-5.7503,-5.6584,-5.5895,-5.5427,-5.5427,-5.5372,-5.5262,-5.5262,-5.5262,-5.5262,-5.5262,0.0,-5.3185,-5.3185,0.0,0.0,0.0,0.0,0.0,0.0,0.0,0.0,0.0,0.0,0.0,0.0,0.0,0.0,0.0,0.0,0.0,0.0,0.0,0.0,0.0,0.0,0.0,0.0,0.0,0.0,0.0,0.0,0.0,0.0,0.0,0.0,0.0,0.0,0.0,0.0,-5.1245,-5.121,-5.1148,-5.1064,-5.1017,-5.0985,-5.0903,-5.0953,-5.1094,-5.1128,0.0,0.0,0.0,0.0,0.0,0.0,0.0,0.0,0.0,0.0,0.0,0.0,0.0,0.0,0.0,0.0,0.0,0.0,0.0,0.0,0.0,0.0,0.0,0.0,0.0,0.0,0.0,0.0,0.0,0.0,0.0,0.0,0.0,0.0,0.0,0.0,0.0,0.0,0.0,-5.7529,-5.803,-5.8877,-5.8973,-5.9319,0.0,0.0,0.0,0.0,0.0,0.0,0.0,0.0,0.0,-5.9009,-5.8634,-5.8234,-5.779,-5.7396,-5.69,-5.6271,-5.6271,-5.6033,-5.5614,-5.5614,-5.5614,-5.5614,-5.5614,-5.5188,-5.4509,-5.4069,-5.3867,-5.383,0.0,0.0,0.0,0.0,-5.1667,-5.1469,0.0,0.0,0.0,0.0,0.0,0.0,0.0,0.0,0.0,0.0,0.0,0.0,0.0,0.0,0.0,-5.1284,0.0,0.0,0.0,0.0,0.0,0.0,0.0,0.0,0.0,0.0,0.0,0.0,-5.112,-5.1074,-5.1056,-5.0952,-5.0879,-5.0844,-5.073,-5.0805,-5.1004,-5.102,-5.1056,0.0,0.0,0.0,0.0,0.0,0.0,0.0,0.0,0.0,0.0,0.0,0.0,0.0,0.0,0.0,0.0,0.0,0.0,0.0,0.0,0.0,0.0,0.0,0.0,0.0,0.0,0.0,0.0,0.0,0.0,0.0,0.0,0.0,0.0,0.0,0.0,0.0,0.0,-5.8607,-5.8915,-5.9723,-5.9838,-6.0089,0.0,0.0,0.0,0.0,0.0,0.0,-5.9757,-5.9509,-5.9234,-5.8844,-5.8842,-5.8758,-5.8621,-5.8602,-5.8309,-5.7721,-5.7721,-5.7409,-5.6822,-5.6822,-5.6822,-5.6822,-5.6602,-5.651,-5.6418,-5.5207,-5.4711,-5.4638,-5.4051,-5.3704,-5.343,-5.2702,-5.2326,-5.1981,0.0,0.0,0.0,0.0,0.0,0.0,0.0,0.0,0.0,0.0,0.0,0.0,0.0,0.0,-5.3242,-5.1523,-5.1386,-5.1386,0.0,0.0,0.0,0.0,0.0,0.0,0.0,0.0,0.0,-5.1103,-5.1094,-5.1025,-5.0903,-5.0896,-5.0827,-5.0712,-5.0693,-5.0702,-5.0721,-5.0859,-5.0903,-5.0918,0.0,0.0,0.0,0.0,0.0,0.0,0.0,0.0,0.0,0.0,0.0,0.0,0.0,0.0,0.0,0.0,0.0,0.0,0.0,0.0,0.0,0.0,0.0,0.0,0.0,0.0,0.0,0.0,0.0,0.0,0.0,0.0,0.0,0.0,0.0,0.0,0.0,0.0,0.0,-6.0627,-6.0723,0.0,0.0,0.0,0.0,-6.0161,-6.054,-6.0175,-5.8835,-5.9176,-5.9346,-5.9186,-5.9158,-5.9543,-6.0272,-6.0291,-6.0272,-6.0217,-6.0217,-6.0199,-6.0162,-6.0162,-6.0162,-6.0126,-5.9331,-5.9019,-5.8836,-5.6492,-5.5559,-5.5559,-5.5482,-5.5048,-5.4348,-5.3593,-5.2885,-5.2186,0.0,0.0,0.0,0.0,0.0,0.0,0.0,0.0,0.0,0.0,0.0,0.0,0.0,-5.3707,-5.2819,-5.2285,-5.1719,-5.1406,-5.1406,0.0,0.0,0.0,0.0,0.0,0.0,0.0,-5.1008,-5.0966,-5.0886,-5.0822,-5.0764,-5.0764,-5.0758,-5.0712,-5.0712,-5.0712,-5.0693,-5.0748,-5.0764,-5.0782,-5.0911,-5.1042,0.0,0.0,0.0,0.0,0.0,0.0,0.0,0.0,0.0,0.0,0.0,0.0,0.0,0.0,0.0,0.0,0.0,0.0,0.0,0.0,0.0,0.0,0.0,0.0,0.0,0.0,0.0,0.0,0.0,0.0,0.0,0.0,0.0,0.0,0.0,0.0,0.0,-6.0762,-6.08,0.0,-6.08,-6.08,-6.0734,-6.0565,-6.0424,-6.0224,-5.9947,-5.9777,-5.9785,-5.9984,-5.9979,-6.0126,-6.0401,-6.0401,-6.0401,-6.0401,-6.0401,-6.0401,-6.0401,-6.0401,-6.0401,-6.0382,-6.0107,-5.9979,-5.9924,-5.9043,-5.7776,-5.6326,-5.5794,-5.544,-5.5065,-5.3849,-5.3241,-5.282,0.0,0.0,0.0,0.0,0.0,0.0,0.0,0.0,0.0,0.0,0.0,-5.5191,-5.5046,-5.3747,-5.2807,-5.2647,-5.1849,-5.1345,-5.1406,0.0,0.0,0.0,0.0,0.0,0.0,-5.0972,-5.0879,-5.0827,-5.073,-5.0712,-5.0712,-5.0712,-5.0712,-5.0712,-5.0712,-5.0712,-5.0712,-5.0712,-5.0712,-5.0702,-5.0808,-5.0911,-5.1031,0.0,0.0,0.0,0.0,0.0,0.0,0.0,0.0,0.0,0.0,0.0,0.0,0.0,0.0,0.0,0.0,0.0,0.0,0.0,0.0,0.0,0.0,0.0,0.0,0.0,0.0,0.0,0.0,0.0,0.0,0.0,0.0,0.0,0.0,0.0,-6.08,-6.08,-6.08,-6.08,-6.08,-6.08,-6.0861,-6.1,-6.0684,-6.0586,-6.0792,-6.0479,-6.0444,-6.0792,-6.0805,-6.0951,-6.1208,-6.1208,-6.1208,-6.1208,-6.1208,-6.1208,-6.1208,-6.1208,-6.1208,-6.119,-6.0915,-6.0805,-6.0786,-6.0511,-5.9465,-5.7941,-5.7134,-5.6332,-5.5504,-5.4536,-5.3848,-5.3291,0.0,0.0,0.0,0.0,0.0,0.0,0.0,0.0,0.0,0.0,-5.5643,-5.5656,-5.4991,-5.4138,-5.3312,-5.2606,-5.1703,-5.1244,-5.1386,-5.1386,0.0,0.0,0.0,0.0,-5.0896,-5.0901,-5.0819,-5.0712,-5.0712,-5.0712,-5.0712,-5.0712,-5.0712,-5.075,-5.075,-5.075,-5.075,-5.075,-5.0731,-5.0712,-5.0712,-5.0773,-5.0908,0.0,0.0,0.0,0.0,0.0,0.0,0.0,0.0,0.0,0.0,0.0,0.0,0.0,0.0,0.0,0.0,0.0,0.0,0.0,0.0,0.0,0.0,0.0,0.0,0.0,0.0,0.0,0.0,0.0,0.0,0.0,0.0,0.0,-6.08,-6.08,-6.08,-6.08,-6.08,-6.08,-6.0839,-6.0839,-6.1006,-6.1435,-6.14,-6.1326,-6.1257,-6.1211,-6.13,-6.1637,-6.163,-6.2016,-6.278,-6.278,-6.278,-6.278,-6.278,-6.278,-6.278,-6.278,-6.278,-6.2768,-6.1979,-6.163,-6.1575,-6.0805,-6.0456,-6.0364,-5.9533,-5.7822,-5.5798,-5.5759,-5.4791,-5.3501,0.0,0.0,0.0,0.0,0.0,0.0,0.0,0.0,0.0,0.0,-5.5503,-5.572,-5.5629,-5.4333,-5.3417,-5.3307,-5.1977,-5.1167,-5.1242,0.0,0.0,0.0,0.0,0.0,-5.0889,-5.0797,-5.074,-5.0712,-5.0712,-5.0712,-5.0712,-5.0712,-5.101,-5.1568,-5.1568,-5.1568,-5.1568,-5.1568,-5.1221,-5.0712,-5.0712,-5.0773,-5.0908,0.0,0.0,0.0,0.0,0.0,0.0,0.0,0.0,0.0,0.0,0.0,0.0,0.0,0.0,0.0,0.0,0.0,0.0,0.0,0.0,0.0,0.0,0.0,0.0,0.0,0.0,0.0,0.0,0.0,0.0,0.0,0.0,-6.08,-6.08,-6.08,-6.08,-6.08,-6.08,-6.105,-6.1678,-6.1755,-6.2034,-6.2734,-6.2746,-6.2699,-6.2579,-6.2559,-6.2529,-6.2463,-6.2475,-6.2585,-6.278,-6.278,-6.278,-6.278,-6.278,-6.278,-6.278,-6.278,-6.278,-6.2805,-6.2585,-6.2475,-6.2456,-6.2236,-6.1814,-6.119,-6.0382,-5.9323,-5.8094,-5.698,-5.5274,-5.3501,0.0,0.0,0.0,0.0,0.0,0.0,0.0,0.0,0.0,0.0,-5.5088,-5.5485,-5.5563,-5.4554,-5.3777,-5.3547,-5.2278,-5.1413,-5.1167,0.0,0.0,0.0,0.0,-5.0871,-5.0822,-5.0749,-5.0712,-5.0712,-5.0712,-5.0712,-5.0712,-5.1029,-5.1452,-5.1923,-5.2269,-5.2442,-5.2442,-5.2442,-5.1972,-5.1202,-5.1202,-5.1038,-5.0822,-5.0822,-5.1102,-5.1579,-5.2045,-5.2488,-5.3063,-5.443,0.0,0.0,0.0,0.0,0.0,0.0,0.0,0.0,0.0,0.0,0.0,0.0,0.0,0.0,0.0,0.0,0.0,0.0,0.0,0.0,0.0,0.0,0.0,0.0,-6.08,-6.08,-6.08,-6.08,-6.0935,-6.13,-6.1351,-6.1685,-6.2512,-6.2589,-6.2954,-6.3782,-6.3436,-6.3353,-6.3634,-6.3225,-6.2929,-6.2787,-6.278,-6.278,-6.278,-6.278,-6.278,-6.278,-6.278,-6.278,-6.278,-6.278,-6.278,-6.278,-6.278,-6.278,-6.278,-6.278,-6.253,0.0,0.0,0.0,0.0,0.0,-5.5092,-5.3923,0.0,0.0,0.0,0.0,0.0,0.0,0.0,0.0,0.0,0.0,0.0,-5.5088,-5.5088,-5.4737,-5.4236,-5.3575,-5.2651,-5.1797,0.0,0.0,0.0,-5.0886,-5.0879,-5.083,-5.0693,-5.0712,-5.0712,-5.0712,-5.0712,-5.075,-5.0837,-5.1568,-5.2,-5.2231,-5.301,-5.3356,-5.3356,-5.3356,-5.2837,-5.2038,-5.2038,-5.151,-5.0712,-5.0808,-5.1343,-5.2109,-5.2303,-5.2949,-5.3829,-5.469,0.0,0.0,0.0,0.0,0.0,0.0,0.0,0.0,0.0,0.0,0.0,0.0,0.0,0.0,0.0,0.0,0.0,0.0,0.0,0.0,0.0,0.0,0.0,0.0,-6.08,-6.0819,-6.0935,-6.0954,-6.1223,-6.2005,-6.2178,-6.2551,-6.3378,-6.3455,-6.382,-6.4686,-6.3864,-6.3652,-6.437,0.0,0.0,0.0,0.0,-6.278,-6.278,-6.278,-6.278,-6.278,-6.278,-6.278,-6.278,-6.278,-6.278,-6.278,-6.278,-6.278,-6.278,-6.278,-6.2755,-6.2519,-6.1098,-5.9593,-5.7952,-5.5797,-5.4856,-5.4617,0.0,0.0,0.0,0.0,0.0,0.0,0.0,0.0,0.0,-5.3796,-5.4575,-5.5088,-5.5088,-5.4737,-5.4435,-5.4293,-5.2849,-5.1597,0.0,0.0,-5.0879,-5.073,-5.074,-5.074,-5.0693,-5.0712,-5.0712,-5.0712,-5.0712,-5.1029,-5.1673,-5.1827,-5.2654,-5.3991,-5.4164,-5.4241,-5.4241,-5.4241,-5.376,-5.2953,-5.2953,-5.2049,-5.077,-5.1414,-5.179,-5.2117,-5.3523,-5.4159,-5.4448,-5.5278,-5.5548,-5.5567,-5.575,0.0,0.0,0.0,0.0,0.0,0.0,0.0,0.0,0.0,0.0,0.0,0.0,0.0,0.0,0.0,0.0,0.0,0.0,0.0,0.0,-6.08,-6.08,-6.105,-6.1755,-6.1851,-6.1908,-6.2082,-6.2666,-6.3416,-6.4282,-6.4359,-6.4705,-6.557,-6.5076,-6.4611,-6.4407,-6.3787,-6.3262,-6.2805,-6.278,-6.278,-6.278,-6.278,-6.278,-6.278,0.0,0.0,-6.278,-6.278,-6.278,-6.278,-6.278,-6.278,-6.278,-6.278,-6.242,-6.1797,-6.15,-6.0422,-5.8928,-5.7837,-5.6606,-5.5395,0.0,0.0,0.0,0.0,0.0,0.0,0.0,0.0,0.0,0.0,-5.4066,-5.4544,-5.4775,-5.4797,-5.471,-5.4519,-5.3299,0.0,0.0,-5.1759,-5.2028,-5.1943,-5.1952,-5.1952,-5.1952,-5.1952,-5.1952,-5.1952,-5.1952,-5.2164,-5.2558,-5.301,-5.3664,-5.4511,-5.4914,-5.5107,-5.5107,-5.5107,-5.4626,-5.3857,-5.3857,-5.3087,-5.1991,-5.2395,-5.2818,-5.3318,-5.4184,-5.4761,-5.5164,-5.5549,-5.5703,-5.5703,-5.5703,-5.5739,-5.5876,0.0,0.0,0.0,0.0,0.0,0.0,0.0,0.0,0.0,0.0,0.0,0.0,0.0,0.0,-6.08,0.0,0.0,-6.08,-6.08,-6.1166,-6.1601,-6.2043,-6.2832,-6.3339,-6.3339,-6.3705,-6.4301,-6.5166,-6.5243,-6.5333,-6.5489,-6.5035,-6.4536,-6.4017,-6.3479,-6.3068,-6.2805,-6.278,-6.278,-6.278,-6.278,-6.278,-6.278,-6.278,-6.278,-6.278,-6.278,-6.278,-6.278,-6.278,-6.278,-6.278,-6.278,-6.2324,-6.1596,-6.1614,-6.0636,-5.9071,-5.7888,-5.6952,-5.6156,0.0,0.0,0.0,0.0,0.0,0.0,0.0,0.0,0.0,0.0,0.0,-5.3941,-5.4322,-5.4804,-5.4944,0.0,0.0,0.0,0.0,-5.2818,-5.3203,-5.3203,-5.3203,0.0,0.0,0.0,0.0,0.0,0.0,-5.3299,-5.3472,-5.4164,-5.4587,-5.4761,-5.5415,-5.5703,-5.5703,-5.5703,-5.5318,-5.4722,-5.4722,-5.4318,-5.3683,-5.3683,-5.403,-5.4511,-5.4684,-5.5145,-5.5703,-5.5703,-5.5703,-5.5703,-5.5703,-5.5703,-5.5857,-5.6753,-5.7118,0.0,0.0,0.0,0.0,0.0,0.0,0.0,0.0,0.0,-6.08,-6.08,-6.08,-6.08,-6.08,-6.08,-6.0858,-6.1031,-6.1639,-6.2216,-6.2543,-6.3743,-6.4666,-6.4839,-6.4859,-6.5128,-6.582,-6.5808,-6.5569,-6.513,-6.4572,-6.4058,-6.3634,-6.3091,-6.278,-6.278,-6.278,-6.278,-6.278,-6.278,-6.278,-6.278,-6.278,-6.278,-6.278,-6.278,-6.278,-6.278,-6.278,-6.278,-6.278,-6.278,-6.2324,-6.1586,-6.1418,-6.0453,-5.8941,-5.7704,-5.7128,-5.6917,0.0,0.0,0.0,0.0,0.0,0.0,0.0,0.0,0.0,0.0,0.0,0.0,0.0,0.0,0.0,0.0,0.0,0.0,0.0,0.0,0.0,0.0,0.0,0.0,0.0,0.0,0.0,0.0,0.0,0.0,0.0,-5.4453,-5.4876,-5.5568,-5.5665,-5.5703,-5.5703,-5.5703,-5.5645,-5.5568,-5.5568,-5.5511,-5.5415,-5.5415,-5.503,-5.4587,-5.5299,-5.5607,-5.5703,-5.5703,-5.5703,-5.5703,-5.5703,-5.5703,-5.5857,-5.6753,0.0,-5.8357,-5.9261,-6.0069,-6.0685,-6.0781,-6.08,-6.08,0.0,0.0,-6.08,-6.08,-6.08,-6.08,-6.08,-6.08,-6.105,-6.1831,-6.2043,-6.262,-6.4109,-6.4474,-6.4897,-6.5647,-6.5743,-6.5782,-6.5878,-6.548,-6.5161,-6.5096,-6.4217,-6.3659,-6.3612,-6.3091,-6.278,-6.278,-6.278,-6.278,-6.278,-6.278,-6.278,-6.278,-6.278,-6.278,-6.278,-6.278,-6.278,-6.278,-6.278,-6.278,-6.278,-6.278,-6.2324,-6.153,-6.082,-5.996,-5.9077,-5.8907,-5.8374,-5.7662,0.0,0.0,0.0,0.0,0.0,0.0,0.0,0.0,0.0,0.0,0.0,0.0,0.0,0.0,0.0,0.0,0.0,0.0,0.0,0.0,0.0,0.0,0.0,0.0,0.0,0.0,0.0,0.0,0.0,0.0,0.0,0.0,0.0,-5.5703,-5.5703,-5.5703,-5.5703,-5.5703,-5.5703,-5.5703,-5.5703,-5.5703,-5.5703,-5.5703,-5.5491,-5.5241,-5.5568,-5.5703,0.0,0.0,-5.5703,-5.5703,-5.5703,-5.6049,-5.6637,-5.7492,-5.8357,0.0,-6.0031,-6.0512,-6.08,-6.08,-6.08,-6.08,-6.08,-6.08,-6.08,-6.08,-6.08,-6.08,-6.08,-6.0955,-6.1212,0.0,-6.2211,-6.3028,-6.3992,-6.4571,-6.5153,-6.5814,-6.563,-6.5556,-6.5865,-6.569,-6.5432,-6.513,-6.4463,-6.3915,-6.3612,-6.3091,-6.278,-6.278,-6.278,-6.278,-6.278,-6.278,-6.278,-6.278,-6.278,-6.278,-6.278,-6.278,-6.278,-6.278,-6.278,-6.278,-6.278,-6.278,-6.2068,-6.0867,-6.0537,-5.9591,-5.8406,-5.8406,-5.8192,-5.7848,0.0,0.0,0.0,0.0,0.0,0.0,0.0,0.0,0.0,0.0,0.0,0.0,0.0,0.0,0.0,0.0,0.0,0.0,0.0,0.0,0.0,0.0,0.0,0.0,0.0,0.0,0.0,0.0,0.0,0.0,0.0,0.0,0.0,0.0,-5.5703,-5.5703,-5.5703,-5.5703,-5.5703,-5.5703,-5.5703,-5.5703,-5.5703,-5.5703,-5.5703,-5.5703,-5.5703,-5.5703,0.0,0.0,-5.5703,-5.5742,-5.5972,-5.6503,-5.7214,-5.8319,-5.9204,-5.9992,-6.0627,-6.08,-6.08,-6.08,-6.08,-6.08,-6.08,-6.08,-6.0757,-6.0634,-6.061,-6.0565,-6.0437,-6.0804,-6.1185,-6.1429,-6.248,-6.3451,-6.3899,-6.4619,-6.5196,-6.5451,-6.5134,-6.5118,-6.563,-6.5556,-6.5329,-6.4935,-6.4463,-6.3936,-6.3408,-6.3014,-6.278,-6.278,-6.278,-6.278,-6.278,-6.278,-6.278,-6.278,-6.278,-6.278,-6.278,-6.278,-6.278,-6.278,-6.278,-6.278,-6.278,-6.278,-6.1842,-6.0414,-6.0414,-5.9379,-5.7881,-5.7881,-5.7881,-5.7881,0.0,0.0,0.0,0.0,0.0,0.0,0.0,0.0,0.0,0.0,0.0,0.0,0.0,0.0,0.0,0.0,0.0,0.0,0.0,0.0,0.0,0.0,0.0,0.0,0.0,0.0,0.0,0.0,0.0,0.0,0.0,0.0,0.0,0.0,0.0,-5.5703,-5.5703,-5.5703,-5.5703,-5.5703,-5.5703,-5.5703,-5.5703,-5.5703,-5.5703,-5.5703,-5.5703,0.0,0.0,0.0,-5.5703,-5.5838,-5.6695,-5.6983,0.0,-5.8973,-6.0089,-6.0762,-6.0781,-6.08,-6.08,-6.08,-6.08,-6.08,-6.08,-6.08,-6.0678,-6.0222,-6.0132,-5.9996,-5.9545,-6.0105,-6.0899,-6.1747,-6.2943,-6.3913,-6.4312,-6.4799,-6.4935,-6.45,-6.4426,-6.4609,0.0,-6.4696,-6.4445,-6.4426,-6.3915,-6.3385,-6.2855,-6.2805,-6.278,-6.278,-6.278,-6.278,-6.278,-6.278,-6.278,-6.278,-6.278,-6.278,-6.278,-6.278,-6.278,-6.278,-6.278,-6.278,-6.278,-6.278,-6.1842,-6.0414,-6.0414,-5.9379,-5.7881,-5.7881,-5.7881,-5.7881,0.0,0.0,0.0,0.0,0.0,0.0,0.0,0.0,0.0,0.0,0.0,0.0,0.0,0.0,0.0,0.0,0.0,0.0,0.0,0.0,0.0,0.0,0.0,0.0,0.0,0.0,0.0,0.0,0.0,0.0,0.0,0.0,0.0,0.0,0.0,0.0,-5.5319,-5.5588,-5.5703,-5.5703,-5.5703,-5.5703,-5.5703,-5.5703,-5.5703,-5.5703,0.0,0.0,0.0,0.0,0.0,0.0,-5.6733,-5.7396,-5.8184,-5.9877,-6.0348,-6.0338,-6.0338,-6.0118,-5.987,-5.987,-5.987,-5.987,-5.987,-5.987,-5.9839,-5.9677,-5.9644,-5.9595,-5.9424,-6.0229,-6.1025,-6.1326,-6.2358,-6.3323,-6.3794,-6.4017,-6.4178,-6.4389,-6.4078,0.0,0.0,0.0,0.0,-6.4852,-6.4079,-6.352,-6.3335,-6.299,-6.278,-6.278,-6.278,-6.278,-6.278,-6.278,-6.278,-6.278,-6.278,-6.278,-6.278,-6.278,-6.278,-6.278,-6.278,-6.278,-6.2755,-6.2227,-6.1361,-6.0353,-5.9768,-5.8858,-5.7881,-5.7881,-5.7881,-5.7881,0.0,0.0,0.0,0.0,0.0,0.0,0.0,0.0,0.0,0.0,0.0,0.0,0.0,0.0,0.0,0.0,0.0,0.0,0.0,0.0,0.0,0.0,0.0,0.0,0.0,0.0,0.0,0.0,0.0,0.0,0.0,0.0,0.0,0.0,0.0,0.0,0.0,-5.5588,-5.5703,-5.5703,-5.5703,-5.5703,-5.5703,-5.5703,-5.5703,0.0,0.0,0.0,0.0,0.0,0.0,-5.5915,-5.7088,-5.8143,-5.914,-6.0227,-6.0222,-5.9855,-5.9855,-5.9628,-5.9389,-5.9389,-5.9389,-5.9389,-5.9389,-5.9389,-5.9337,-5.9176,-5.9158,-5.9103,-5.8914,-5.9729,-6.0511,-6.0789,-6.1879,-6.2812,-6.3252,-6.3476,-6.3656,-6.3811,-6.3524,-6.3524,0.0,0.0,0.0,-6.4517,-6.3958,-6.352,-6.3335,-6.299,-6.278,-6.278,-6.278,-6.278,-6.278,-6.278,-6.278,-6.278,-6.278,-6.278,-6.278,-6.278,-6.278,-6.278,-6.278,-6.278,-6.273,-6.1924,-6.1131,-6.0304,-5.9443,-5.8599,-5.7881,-5.7881,-5.7881,-5.7881,0.0,0.0,0.0,0.0,0.0,0.0,0.0,0.0,0.0,0.0,0.0,0.0,0.0,0.0,0.0,0.0,0.0,0.0,0.0,0.0,0.0,0.0,0.0,0.0,-5.5703,-5.5703,-5.5703,-5.5703,0.0,0.0,0.0,0.0,0.0,0.0,0.0,0.0,0.0,-5.5684,-5.5703,-5.5703,-5.5703,-5.5703,-5.5703,-5.5703,0.0,0.0,0.0,0.0,0.0,0.0,0.0,-5.6044,-5.7716,-5.907,-6.0055,-6.0055,-5.9725,-5.9373,-5.9411,-5.9375,-5.9338,-5.9376,-5.9357,-5.9319,-5.9319,-5.9319,-5.9213,-5.8755,-5.8654,-5.8526,0.0,0.0,-5.9459,-6.0272,-6.1503,-6.2461,-6.2751,-6.3238,-6.3363,0.0,0.0,0.0,0.0,0.0,0.0,-6.352,0.0,-6.3335,-6.283,-6.278,-6.278,-6.278,-6.278,-6.278,-6.278,-6.278,-6.278,-6.278,-6.278,-6.278,-6.278,-6.278,-6.278,-6.278,-6.278,-6.278,-6.273,-6.1897,-6.1084,-6.0322,-5.941,-5.8564,-5.7881,-5.7881,-5.7881,-5.7881,0.0,0.0,0.0,0.0,0.0,0.0,0.0,0.0,0.0,0.0,0.0,0.0,0.0,0.0,0.0,0.0,0.0,0.0,0.0,0.0,0.0,0.0,0.0,0.0,0.0,-5.5703,-5.5703,-5.5703,0.0,0.0,0.0,0.0,0.0,0.0,0.0,0.0,0.0,0.0,-5.5703,-5.5703,0.0,-5.5703,-5.5703,0.0,0.0,0.0,0.0,0.0,0.0,0.0,0.0,0.0,-5.7123,-5.8315,-5.9578,-5.9578,-5.9249,-5.9005,-5.9602,-5.9076,-5.8499,-5.9109,-5.8795,-5.8372,-5.8372,-5.8372,-5.8329,-5.8213,-5.8168,-5.8142,0.0,0.0,0.0,-6.0272,-6.1187,0.0,-6.2695,-6.291,0.0,-6.2805,0.0,-6.2855,-6.299,-6.2861,0.0,0.0,-6.3014,-6.2959,-6.2805,-6.278,-6.278,-6.278,-6.278,-6.278,-6.278,-6.278,-6.278,-6.278,-6.278,-6.278,-6.278,-6.278,-6.278,-6.278,-6.278,-6.278,-6.2686,-6.1275,-6.0598,-6.026,-5.8772,-5.8065,-5.7881,-5.7881,-5.7881,-5.7814,0.0,0.0,0.0,0.0,0.0,0.0,0.0,0.0,0.0,0.0,0.0,0.0,0.0,0.0,0.0,0.0,0.0,0.0,0.0,0.0,0.0,0.0,0.0,0.0,0.0,0.0,0.0,0.0,0.0,0.0,0.0,0.0,0.0,0.0,0.0,0.0,0.0,0.0,0.0,0.0,0.0,0.0,0.0,0.0,0.0,0.0,0.0,0.0,0.0,0.0,0.0,-5.6958,-5.7316,-5.8195,-5.9103,-5.9103,0.0,-5.9023,-5.9464,-5.9333,-5.9079,-5.9166,-5.8854,-5.8437,-5.807,-5.7997,-5.7997,-5.7997,-5.7997,0.0,-5.7997,-5.8364,0.0,0.0,0.0,0.0,-6.2163,-6.2585,-6.278,0.0,-6.278,0.0,-6.278,-6.278,-6.278,0.0,-6.278,-6.278,-6.278,-6.278,-6.278,-6.278,-6.278,-6.278,-6.278,-6.278,-6.278,-6.278,-6.278,-6.278,-6.278,-6.278,-6.278,-6.278,0.0,-6.278,-6.2679,-6.1073,-6.0414,-6.0229,-5.8546,-5.7881,-5.7881,-5.7881,-5.7695,-5.7306,0.0,0.0,0.0,0.0,0.0,0.0,0.0,0.0,0.0,0.0,0.0,0.0,0.0,0.0,0.0,0.0,0.0,0.0,0.0,0.0,0.0,0.0,0.0,0.0,0.0,0.0,0.0,0.0,0.0,0.0,0.0,0.0,0.0,0.0,0.0,0.0,0.0,0.0,0.0,0.0,0.0,0.0,0.0,0.0,0.0,0.0,0.0,0.0,0.0,0.0,-5.59,-5.6881,-5.7672,-5.824,-5.863,-5.8741,-5.8973,-5.9239,-5.9459,-5.996,-6.0236,-5.9515,-5.9276,-5.8982,-5.818,-5.7997,-5.7997,-5.7997,0.0,-5.7997,-5.7997,-5.7997,-5.8253,-5.9056,0.0,-6.0676,-6.1484,-6.2291,-6.278,-6.278,-6.278,-6.278,-6.278,-6.278,-6.278,-6.278,-6.278,-6.278,-6.278,-6.278,-6.278,-6.278,-6.278,-6.278,-6.278,-6.278,-6.278,-6.278,-6.278,-6.278,-6.278,-6.278,-6.278,-6.278,-6.278,-6.278,-6.2679,-6.1073,-6.0414,-6.0229,-5.8546,-5.7881,-5.7881,-5.778,-5.734,-5.6681,0.0,0.0,0.0,0.0,0.0,0.0,0.0,0.0,0.0,0.0,-4.9593,-5.0297,0.0,0.0,0.0,0.0,0.0,0.0,0.0,0.0,0.0,0.0,0.0,0.0,0.0,0.0,0.0,0.0,0.0,0.0,0.0,0.0,0.0,0.0,0.0,0.0,0.0,0.0,0.0,0.0,0.0,0.0,0.0,0.0,0.0,0.0,0.0,0.0,0.0,0.0,-5.6238,-5.5969,-5.6759,-5.7523,-5.8248,-5.8906,-5.9149,-5.9478,-6.0823,-6.0805,-6.0382,-6.0236,-5.9703,-5.8982,-5.818,-5.7997,0.0,0.0,-5.7997,-5.7997,-5.7997,-5.7997,-5.8253,-5.9056,0.0,0.0,0.0,0.0,-6.278,0.0,0.0,0.0,0.0,0.0,0.0,0.0,0.0,-6.278,-6.278,-6.278,-6.278,-6.278,-6.278,-6.278,-6.278,-6.278,-6.278,-6.278,-6.278,-6.278,-6.278,-6.278,-6.278,-6.278,-6.278,0.0,-6.2679,-6.1073,-6.0414,-6.0229,-5.8546,-5.7881,-5.7814,-5.7222,-5.6917,-5.6613,0.0,0.0,0.0,0.0,0.0,0.0,0.0,0.0,-4.8433,-4.894,-4.9286,-4.9751,-5.0445,-5.1164,0.0,0.0,0.0,0.0,0.0,0.0,0.0,0.0,0.0,0.0,0.0,0.0,0.0,0.0,0.0,0.0,0.0,0.0,0.0,0.0,0.0,0.0,0.0,0.0,0.0,0.0,0.0,0.0,0.0,0.0,0.0,0.0,0.0,0.0,0.0,0.0,-5.5949,-5.5794,-5.7042,-5.7685,-5.807,-5.8455,-5.9171,-5.9997,-6.0768,-6.1318,-6.1465,-6.0621,-6.0126,-5.9501,-5.8272,0.0,0.0,0.0,-5.7997,-5.7997,-5.7997,-5.7997,0.0,0.0,0.0,0.0,0.0,0.0,0.0,0.0,0.0,0.0,0.0,0.0,0.0,0.0,0.0,-6.278,-6.278,-6.278,-6.278,-6.278,-6.278,-6.278,-6.278,-6.278,-6.278,-6.278,-6.278,-6.278,-6.278,-6.278,-6.278,-6.278,-6.278,0.0,-6.2705,-6.152,-6.076,-6.0291,-5.9011,-5.8024,-5.7273,-5.6934,-5.6308,-5.5547,0.0,0.0,0.0,0.0,0.0,0.0,0.0,-4.7688,-4.7868,-4.8608,-4.8861,-4.9212,-4.9722,-5.0554,-5.1368,0.0,0.0,0.0,0.0,0.0,0.0,0.0,0.0,0.0,0.0,0.0,0.0,0.0,0.0,0.0,0.0,0.0,0.0,0.0,0.0,0.0,0.0,0.0,0.0,0.0,0.0,0.0,0.0,0.0,0.0,0.0,0.0,0.0,0.0,0.0,-5.5536,-5.5849,-5.7281,-5.785,-5.8033,-5.8217,-5.9153,-6.0181,-6.0346,-6.1337,-6.1942,-6.0511,-6.0144,-5.9777,-5.8327,-5.7997,0.0,-5.7997,-5.7997,-5.7997,-5.7997,-5.7997,-5.7997,0.0,-5.8694,0.0,0.0,0.0,0.0,0.0,0.0,0.0,0.0,0.0,0.0,0.0,0.0,0.0,-6.278,-6.278,-6.278,-6.278,-6.278,-6.278,-6.278,-6.278,-6.278,-6.278,-6.278,-6.278,-6.278,-6.278,-6.278,-6.278,-6.278,0.0,0.0,-6.1924,-6.1131,-6.0304,-5.9269,-5.8033,-5.6765,-5.6444,-5.5598,-5.4566,0.0,0.0,0.0,0.0,0.0,0.0,0.0,-4.7248,-4.7622,-4.7737,-4.8482,-4.9032,-4.9077,-5.0286,-5.1368,0.0,0.0,0.0,0.0,0.0,0.0,0.0,0.0,0.0,0.0,0.0,0.0,0.0,0.0,0.0,0.0,0.0,0.0,0.0,0.0,0.0,0.0,0.0,0.0,0.0,0.0,0.0,0.0,0.0,0.0,0.0,0.0,0.0,0.0,0.0,0.0,-5.5739,-5.6638,-5.7409,-5.8143,-5.8896,0.0,0.0,-6.0199,-6.0511,-6.0419,-5.9515,-5.9294,-5.9074,-5.8198,0.0,-5.7997,-5.7997,-5.7997,-5.7997,-5.7997,-5.7997,-5.7997,0.0,0.0,-5.9478,0.0,0.0,0.0,0.0,0.0,0.0,0.0,0.0,0.0,0.0,0.0,0.0,-6.278,-6.278,-6.278,-6.278,-6.278,-6.278,-6.278,-6.278,-6.278,-6.278,-6.278,-6.278,-6.278,-6.278,-6.278,-6.278,-6.278,0.0,0.0,-6.1924,-6.1131,-6.0251,-5.8694,-5.7552,-5.6647,-5.5294,-5.4718,-5.4499,0.0,0.0,0.0,0.0,0.0,0.0,-4.6623,-4.6743,-4.6952,-4.7523,-4.8401,-4.9001,-4.9001,-4.9867,-5.0716,0.0,0.0,0.0,0.0,0.0,0.0,0.0,0.0,0.0,0.0,0.0,0.0,0.0,0.0,0.0,0.0,0.0,0.0,0.0,0.0,0.0,0.0,0.0,0.0,0.0,0.0,0.0,0.0,0.0,0.0,0.0,0.0,0.0,0.0,0.0,0.0,0.0,-5.6547,-5.7354,0.0,0.0,-5.8822,-5.9258,-5.9588,-6.0034,-6.0217,-5.9386,-5.9184,-5.8982,-5.818,0.0,-5.7997,-5.7997,-5.7997,-5.7997,-5.7997,-5.7997,-5.7997,0.0,0.0,0.0,0.0,0.0,0.0,0.0,0.0,0.0,0.0,0.0,0.0,0.0,0.0,0.0,-6.278,-6.278,-6.278,-6.278,-6.278,-6.278,-6.278,-6.278,-6.278,-6.278,-6.278,-6.278,-6.278,-6.278,-6.278,-6.278,-6.278,0.0,0.0,-6.2446,-6.1287,-5.9671,-5.9016,-5.7432,-5.5395,-5.4803,-5.4313,-5.3907,0.0,0.0,0.0,0.0,0.0,-4.5522,-4.6177,-4.6243,-4.6419,-4.7104,-4.8257,-4.9001,-4.9001,-4.9402,-5.009,-5.1008,0.0,0.0,0.0,0.0,0.0,0.0,0.0,0.0,0.0,0.0,-5.3851,-5.4288,-5.4288,0.0,0.0,0.0,0.0,0.0,0.0,0.0,0.0,0.0,0.0,0.0,0.0,0.0,0.0,0.0,0.0,0.0,0.0,0.0,0.0,0.0,0.0,0.0,0.0,0.0,0.0,0.0,-5.84,-5.8859,-5.8859,-5.9263,-5.9557,-5.9006,-5.8859,-5.8712,0.0,0.0,-5.7997,-5.7997,-5.7997,-5.7997,-5.7997,-5.7997,-5.7997,0.0,0.0,-5.829,0.0,0.0,0.0,0.0,0.0,-6.2548,0.0,-6.278,-6.278,0.0,0.0,0.0,-6.278,-6.278,-6.278,-6.278,-6.278,-6.278,-6.278,-6.278,-6.278,-6.278,-6.278,-6.278,-6.278,-6.278,-6.278,-6.278,-6.278,0.0,0.0,-6.2548,-6.1199,-5.9253,-5.8775,-5.6955,-5.4566,-5.4346,-5.394,-5.3501,0.0,0.0,0.0,0.0,0.0,0.0,0.0,-4.5808,-4.6208,-4.6208,-4.7836,-4.9001,-4.9001,-4.9001,-4.958,-5.0981,0.0,0.0,0.0,0.0,0.0,0.0,0.0,0.0,0.0,0.0,-5.3402,-5.3814,-5.3814,-5.3795,-5.3796,-5.3796,0.0,0.0,0.0,0.0,0.0,0.0,0.0,0.0,0.0,0.0,0.0,0.0,0.0,0.0,0.0,0.0,0.0,0.0,0.0,0.0,0.0,0.0,0.0,0.0,-5.7997,-5.8015,-5.8015,-5.8015,-5.8015,-5.8015,-5.8015,-5.7997,0.0,-5.7997,-5.7997,-5.7997,-5.7997,-5.7997,-5.7997,-5.7997,-5.7997,-5.7997,0.0,0.0,0.0,0.0,0.0,0.0,0.0,-6.1924,-6.2707,-6.278,0.0,0.0,0.0,0.0,-6.278,-6.278,-6.278,-6.278,-6.278,-6.278,-6.278,-6.278,-6.278,-6.278,-6.278,-6.278,-6.278,-6.278,-6.278,-6.278,0.0,0.0,0.0,-6.1942,-6.0692,-5.9147,-5.7552,-5.5966,-5.4499,-5.3788,-5.3518,-5.3501,0.0,0.0,0.0,0.0,0.0,0.0,0.0,-4.5808,-4.6208,-4.6208,-4.7836,-4.9001,-4.9001,-4.9001,-4.9359,-5.0269,0.0,0.0,0.0,0.0,0.0,0.0,0.0,0.0,0.0,0.0,-5.3272,-5.3381,-5.3381,-5.3381,-5.3381,-5.3381,-5.3336,-5.3185,0.0,0.0,0.0,0.0,0.0,0.0,0.0,0.0,0.0,0.0,0.0,0.0,0.0,0.0,0.0,0.0,0.0,0.0,0.0,0.0,0.0,0.0,0.0,0.0,-5.7997,-5.7997,-5.7997,-5.7997,-5.7997,-5.7997,-5.7997,-5.7997,-5.7997,-5.7997,-5.7997,-5.7997,-5.7997,-5.7997,-5.7997,-5.7997,0.0,0.0,0.0,0.0,0.0,-5.9905,-6.0933,-6.1924,0.0,0.0,0.0,0.0,0.0,0.0,-6.278,-6.278,-6.278,-6.278,-6.278,-6.278,-6.278,-6.278,-6.278,-6.278,-6.278,-6.278,-6.278,-6.278,-6.278,0.0,0.0,0.0,0.0,-6.1389,-5.9942,-5.8391,-5.6781,-5.5201,-5.3822,-5.3602,-5.3501,-5.3501,0.0,0.0,0.0,0.0,0.0,0.0,0.0,-4.5652,-4.6208,-4.6208,-4.7836,-4.9001,-4.9001,-4.9001,-4.9256,-4.9947,0.0,0.0,0.0,0.0,0.0,0.0,0.0,0.0,0.0,-5.3185,-5.3185,-5.3185,-5.3185,-5.3185,-5.3185,-5.3185,-5.3185,-5.3185,-5.3185,0.0,0.0,0.0,0.0,0.0,0.0,0.0,-5.3185,0.0,0.0,0.0,0.0,0.0,0.0,0.0,0.0,0.0,0.0,0.0,0.0,0.0,-5.7997,-5.7997,0.0,-5.7997,-5.7997,-5.7997,-5.7997,0.0,-5.7997,-5.7997,-5.7997,-5.7997,-5.7997,-5.7997,-5.7997,-5.7997,-5.7997,-5.7997,0.0,0.0,0.0,0.0,0.0,-5.9148,0.0,0.0,0.0,0.0,0.0,0.0,0.0,0.0,-6.278,-6.278,-6.278,-6.278,-6.278,-6.278,-6.278,-6.278,-6.278,-6.278,-6.278,-6.278,-6.278,-6.278,-6.278,0.0,0.0,0.0,0.0,-6.0689,-5.9137,-5.7547,-5.5968,-5.4583,-5.3501,-5.3501,-5.3501,-5.3501,0.0,0.0,0.0,0.0,0.0,0.0,0.0,0.0,0.0,-4.6208,-4.7836,-4.9001,-4.9001,-4.9001,-4.9256,-4.9879,0.0,0.0,0.0,0.0,0.0,0.0,0.0,0.0,0.0,-5.3185,-5.3185,-5.3185,-5.3185,-5.3185,-5.3185,-5.3185,-5.3185,-5.3185,-5.3185,0.0,0.0,0.0,0.0,0.0,0.0,0.0,0.0,0.0,0.0,0.0,0.0,0.0,0.0,0.0,0.0,0.0,0.0,0.0,0.0,0.0,0.0,0.0,0.0,-5.7886,-5.7932,0.0,0.0,0.0,-5.7997,-5.7997,0.0,-5.7997,-5.7997,-5.7997,-5.7997,-5.7997,-5.7997,-5.7997,0.0,0.0,0.0,-5.7997,0.0,0.0,-6.0529,0.0,-6.1502,0.0,0.0,0.0,0.0,0.0,-6.2615,-6.2615,-6.2615,-6.2615,-6.2615,-6.267,-6.278,-6.278,-6.278,-6.278,-6.278,-6.278,-6.278,-6.278,-6.2762,0.0,0.0,0.0,0.0,-5.9802,-5.8257,-5.6739,-5.5144,-5.4106,-5.3501,-5.3501,-5.3501,-5.3501,0.0,0.0,0.0,0.0,0.0,0.0,0.0,0.0,0.0,0.0,-4.7836,-4.9001,-4.9001,-4.9001,-4.9046,0.0,0.0,0.0,0.0,0.0,0.0,0.0,0.0,0.0,0.0,-5.3185,-5.3185,-5.3185,-5.3185,-5.3185,-5.3185,-5.3185,-5.3185,-5.3185,-5.3185,-5.3185,0.0,0.0,0.0,0.0,0.0,0.0,0.0,0.0,0.0,0.0,-5.3185,-5.372,0.0,0.0,0.0,0.0,0.0,0.0,0.0,0.0,-5.7159,-5.7022,-5.6403,0.0,-5.7284,-5.7862,-5.7589,-5.7327,0.0,-5.7997,-5.7997,-5.7997,-5.7997,-5.7997,-5.7997,-5.7997,-5.7997,-5.7997,0.0,0.0,-5.7997,0.0,0.0,-5.9093,-5.9515,-6.0015,-6.0621,0.0,0.0,0.0,0.0,-6.097,-6.097,-6.097,-6.097,-6.097,-6.097,-6.1575,-6.278,-6.278,-6.278,-6.278,-6.278,-6.278,-6.278,-6.278,-6.2475,0.0,0.0,0.0,-6.0506,-5.8367,-5.7246,-5.6681,-5.4557,-5.3634,-5.3501,-5.3501,-5.3501,-5.3501,0.0,0.0,0.0,0.0,0.0,0.0,0.0,0.0,0.0,0.0,0.0,0.0,0.0,0.0,0.0,0.0,0.0,0.0,0.0,0.0,0.0,0.0,0.0,0.0,-5.3185,-5.3185,-5.3185,-5.3185,-5.3185,-5.3185,-5.3185,-5.3185,-5.3185,-5.3185,-5.3185,-5.3185,0.0,0.0,0.0,0.0,-5.3185,0.0,0.0,0.0,0.0,0.0,-5.3628,-5.4271,0.0,-5.5886,-5.6693,-5.7382,0.0,0.0,0.0,0.0,-5.6616,-5.6721,-5.592,-5.6004,-5.6545,-5.7309,-5.692,-5.6545,-5.7309,0.0,0.0,-5.6935,0.0,-5.6935,-5.6935,-5.6935,-5.7054,0.0,-5.7191,0.0,0.0,0.0,-5.8162,-5.8602,-5.8964,-5.9368,0.0,0.0,0.0,0.0,0.0,-6.0401,-6.0401,-6.0401,-6.0401,-6.0401,-6.0401,-6.1006,-6.2236,-6.2254,-6.2438,-6.278,-6.278,-6.2622,-6.2254,-6.2254,-6.1814,0.0,0.0,0.0,-5.97,-5.7728,-5.6673,-5.6146,-5.4246,-5.3501,-5.3501,-5.3501,-5.3501,-5.3501,0.0,0.0,0.0,0.0,0.0,0.0,0.0,0.0,0.0,0.0,0.0,0.0,0.0,0.0,0.0,0.0,0.0,0.0,0.0,0.0,0.0,0.0,0.0,-5.3185,-5.3185,-5.3185,-5.3185,-5.3185,-5.3185,-5.3185,-5.3185,-5.3185,-5.3185,-5.3185,-5.3185,-5.3185,0.0,0.0,0.0,0.0,-5.3185,0.0,0.0,0.0,0.0,0.0,0.0,0.0,0.0,-5.6528,-5.7267,-5.7726,-5.7109,0.0,0.0,0.0,0.0,0.0,-5.5581,-5.535,-5.5581,-5.6492,-5.6104,-5.5752,-5.6518,0.0,0.0,0.0,0.0,0.0,0.0,-5.5706,0.0,0.0,0.0,0.0,-5.6616,-5.7241,-5.766,-5.766,-5.8263,0.0,0.0,0.0,0.0,0.0,0.0,-5.9737,-5.9871,-5.9871,-5.992,-6.0034,-6.0034,-6.0419,-6.1227,-6.1355,-6.1759,-6.2438,-6.2438,-6.2089,-6.141,-6.141,-6.097,-6.0236,0.0,0.0,-5.8888,-5.7343,-5.6336,-5.5535,-5.4091,-5.3501,-5.3501,-5.3501,-5.3501,-5.3501,0.0,0.0,0.0,0.0,0.0,0.0,0.0,0.0,0.0,0.0,0.0,0.0,0.0,0.0,0.0,0.0,0.0,0.0,0.0,0.0,0.0,0.0,-5.394,-5.3185,-5.3185,-5.3185,-5.3185,-5.3185,-5.3185,-5.3185,-5.3185,-5.3185,-5.3185,-5.3185,-5.3185,-5.3185,-5.3185,-5.3185,-5.3185,-5.3185,-5.3185,0.0,0.0,0.0,0.0,0.0,0.0,0.0,0.0,-5.6528,-5.6908,-5.704,-5.6938,0.0,0.0,0.0,0.0,0.0,-5.4027,-5.3832,-5.4171,-5.5524,-5.532,-5.4952,-5.5724,0.0,0.0,0.0,0.0,0.0,0.0,-5.5706,-5.5734,0.0,0.0,-5.5734,0.0,0.0,-5.6059,-5.6059,0.0,0.0,0.0,0.0,0.0,0.0,0.0,-5.6707,-5.7402,-5.7445,-5.774,-5.834,-5.8364,-5.8749,-5.9551,-6.0254,-6.0658,-6.0768,-6.0768,-6.0713,-6.0584,-6.0584,-6.0162,-5.9368,0.0,-5.8933,-5.8069,-5.651,-5.5812,-5.5535,-5.4091,-5.3501,-5.3501,-5.3501,-5.3501,-5.3501,0.0,0.0,0.0,0.0,0.0,0.0,0.0,0.0,0.0,0.0,0.0,0.0,0.0,0.0,0.0,0.0,0.0,0.0,0.0,0.0,0.0,-5.5614,-5.4876,-5.4491,-5.4491,-5.4491,-5.4289,-5.3849,-5.3849,-5.3628,-5.3185,-5.3185,-5.3185,-5.3185,-5.3185,-5.3185,-5.3185,-5.3185,-5.3185,-5.3185,0.0,0.0,0.0,0.0,0.0,0.0,0.0,0.0,0.0,0.0,-5.7207,-5.6817,-5.6394,0.0,0.0,0.0,0.0,0.0,-5.3684,-5.3501,-5.3668,-5.4328,-5.4249,-5.4186,-5.4939,-5.4805,0.0,0.0,0.0,0.0,0.0,0.0,-5.4499,-5.4499,0.0,-5.5563,-5.5144,-5.5466,-5.5706,0.0,0.0,0.0,0.0,0.0,0.0,0.0,0.0,0.0,-5.6214,-5.6668,-5.7058,-5.7401,-5.7797,-5.818,-5.8547,-5.8914,-5.9538,-6.0401,-6.0401,-6.0181,-5.9758,-5.9758,-5.9318,-5.8547,0.0,-5.8345,-5.7886,-5.6349,-5.5706,-5.5535,-5.4091,-5.3501,-5.3501,-5.3501,-5.3501,-5.3501,0.0,0.0,0.0,0.0,0.0,0.0,0.0,0.0,0.0,0.0,0.0,0.0,0.0,0.0,0.0,0.0,0.0,0.0,0.0,0.0,-5.5903,-5.5903,-5.6076,-5.6,-5.5614,-5.5614,-5.5299,-5.4675,-5.4675,-5.4271,-5.3482,-5.3482,-5.339,-5.3185,-5.3185,-5.3185,-5.3185,-5.3185,-5.3185,-5.3185,0.0,0.0,0.0,0.0,0.0,0.0,0.0,0.0,0.0,0.0,0.0,0.0,0.0,0.0,0.0,-5.3832,-5.3913,-5.4218,-5.3634,-5.3501,-5.3501,-5.3501,0.0,-5.3634,-5.4218,-5.3913,0.0,0.0,0.0,0.0,0.0,-5.3501,0.0,-5.3501,-5.4454,-5.4999,-5.4437,-5.4818,-5.5191,-5.5191,0.0,0.0,0.0,0.0,0.0,0.0,0.0,0.0,-5.5419,-5.6039,-5.6438,-5.6616,-5.7358,-5.775,-5.775,-5.7909,-5.8621,-5.985,-5.985,-5.952,-5.8933,-5.8933,-5.8584,-5.7997,-5.7997,-5.7909,-5.7637,-5.625,-5.5592,-5.532,-5.3994,-5.3501,-5.3501,-5.3501,-5.3501,-5.3501,0.0,0.0,0.0,0.0,0.0,0.0,0.0,0.0,0.0,0.0,0.0,0.0,0.0,0.0,0.0,0.0,0.0,0.0,0.0,0.0,-5.6801,-5.6801,-5.7472,-5.7116,-5.5633,-5.5614,-5.5578,-5.55,-5.55,-5.5097,-5.4308,-5.4308,-5.3922,-5.3185,-5.3185,-5.3185,-5.3185,-5.3185,-5.3185,-5.3185,-5.3185,0.0,0.0,0.0,0.0,0.0,0.0,0.0,0.0,0.0,0.0,0.0,0.0,0.0,-5.3651,-5.3534,-5.3534,-5.3568,-5.3501,-5.3501,-5.3501,-5.3501,-5.3501,0.0,-5.3568,-5.3534,0.0,-5.3501,0.0,0.0,0.0,-5.3501,-5.3501,-5.3501,-5.3584,-5.3651,-5.3584,0.0,-5.3668,0.0,0.0,0.0,0.0,0.0,0.0,0.0,0.0,0.0,-5.4651,-5.4726,-5.5072,-5.5762,-5.6571,-5.6989,-5.6989,-5.7679,-5.8052,-5.8162,-5.8162,-5.8143,-5.8088,-5.8088,-5.8052,-5.7997,-5.7997,-5.7613,-5.6894,-5.6031,-5.5291,-5.4589,-5.3799,-5.3501,-5.3501,-5.3501,-5.3501,-5.3501,0.0,0.0,0.0,0.0,0.0,0.0,0.0,0.0,0.0,0.0,0.0,0.0,0.0,0.0,0.0,0.0,0.0,0.0,0.0,0.0,-5.6912,-5.6912,-5.7613,-5.7721,-5.7097,-5.7079,-5.684,-5.6345,-5.5849,-5.5427,-5.5133,-5.5133,-5.4711,-5.3959,-5.3959,-5.3683,-5.3185,-5.3185,-5.3185,-5.3185,-5.3185,-5.35,0.0,0.0,0.0,0.0,0.0,0.0,0.0,0.0,-5.6067,-5.4952,0.0,0.0,-5.3501,-5.3501,-5.3501,-5.3501,-5.3501,-5.3501,-5.3501,-5.3501,-5.3501,0.0,0.0,-5.3501,-5.3501,-5.3501,-5.3501,0.0,0.0,0.0,-5.3501,-5.3501,-5.3501,-5.3501,-5.3501,0.0,0.0,0.0,0.0,0.0,0.0,0.0,0.0,0.0,0.0,0.0,-5.3913,-5.4342,-5.4726,-5.5012,-5.577,-5.6394,-5.6887,-5.7184,-5.754,-5.7997,-5.7997,-5.7997,-5.7997,-5.7997,-5.7997,-5.7973,-5.7516,-5.7159,-5.6791,-5.5541,-5.4848,-5.4544,-5.3783,-5.3501,-5.3501,-5.3501,-5.3501,-5.3501,0.0,0.0,0.0,0.0,0.0,0.0,0.0,0.0,0.0,0.0,0.0,0.0,0.0,0.0,0.0,0.0,0.0,0.0,0.0,-5.5472,-5.615,-5.615,-5.6876,-5.7272,-5.7272,-5.7272,-5.7249,-5.7189,-5.662,-5.6216,-5.5978,-5.5738,-5.519,-5.4442,-5.4442,-5.3963,-5.3196,-5.3218,-5.3218,-5.3203,-5.3211,-5.3694,0.0,0.0,0.0,0.0,0.0,0.0,0.0,0.0,-5.5454,-5.4558,0.0,0.0,0.0,0.0,-5.3331,-5.3179,-5.3433,-5.3315,-5.3179,-5.345,0.0,0.0,-5.3501,-5.3501,-5.3501,-5.3501,-5.3501,-5.3501,-5.3501,0.0,0.0,0.0,-5.3501,-5.3501,0.0,0.0,0.0,0.0,0.0,0.0,0.0,0.0,0.0,0.0,0.0,0.0,0.0,-5.3962,-5.4232,-5.4232,-5.4969,-5.5627,-5.6167,-5.6412,-5.692,-5.7637,-5.7637,-5.7774,-5.7997,-5.7997,-5.7997,-5.7973,-5.7209,-5.6765,-5.6412,-5.5131,-5.4451,-5.4218,-5.3701,-5.3501,-5.3501,-5.3501,-5.3501,-5.3501,0.0,0.0,0.0,0.0,0.0,0.0,0.0,0.0,0.0,0.0,0.0,0.0,0.0,0.0,0.0,0.0,0.0,0.0,0.0,-5.4186,-5.4589,-5.4589,-5.532,-5.5706,-5.5706,-5.5706,-5.6456,-5.7973,-5.7973,-5.757,-5.6758,-5.6055,-5.5281,-5.4499,-5.4499,-5.403,-5.3195,-5.3285,-5.3258,-5.3195,-5.3274,-5.3735,-5.4561,0.0,0.0,0.0,0.0,0.0,0.0,0.0,-5.4589,-5.4451,0.0,0.0,0.0,0.0,-5.2942,-5.2486,-5.3281,-5.2909,-5.2486,0.0,0.0,0.0,-5.3501,-5.3501,-5.3501,-5.3501,-5.3501,-5.3501,-5.3501,-5.3501,0.0,-5.3501,-5.3501,-5.3501,0.0,0.0,0.0,0.0,0.0,0.0,0.0,0.0,0.0,0.0,0.0,0.0,0.0,-5.3501,-5.3501,-5.3501,-5.4218,-5.4589,-5.4589,-5.532,-5.6104,-5.6887,-5.6887,-5.7284,-5.7997,-5.7997,-5.7997,-5.7973,-5.7209,-5.6421,-5.5649,-5.4909,-5.4154,-5.3501,-5.3501,-5.3501,-5.3501,-5.3501,-5.3501,-5.3501,0.0,0.0,0.0,0.0,0.0,0.0,0.0,0.0,0.0,0.0,0.0,0.0,0.0,0.0,0.0,0.0,0.0,0.0,0.0,-5.4186,-5.4589,-5.4589,-5.532,-5.5706,-5.5706,-5.5706,-5.5931,-5.6385,-5.6385,-5.6251,-5.6018,-5.5802,-5.5284,-5.4482,-5.4492,-5.4047,-5.3291,-5.3291,-5.3298,-5.3274,-5.3307,-5.3761,-5.4516,0.0,0.0,0.0,0.0,0.0,0.0,0.0,0.0,0.0,0.0,0.0,0.0,-5.3501,-5.2942,-5.2486,-5.3281,-5.2909,0.0,-5.3298,0.0,0.0,0.0,-5.3501,0.0,0.0,-5.3501,-5.3501,-5.3501,0.0,0.0,-5.3501,-5.3501,-5.3501,0.0,0.0,0.0,0.0,0.0,0.0,0.0,0.0,0.0,0.0,0.0,0.0,0.0,-5.3501,-5.3501,-5.3501,-5.3717,-5.4074,-5.4589,-5.4818,-5.5309,-5.6059,-5.6642,-5.7284,-5.7997,-5.7997,-5.7997,-5.7973,-5.7209,-5.6421,-5.5592,-5.4328,-5.3701,-5.3501,-5.3501,-5.3501,-5.3501,-5.3501,-5.3501,-5.3416,0.0,0.0,0.0,0.0,0.0,0.0,0.0,0.0,0.0,0.0,0.0,0.0,0.0,0.0,0.0,0.0,0.0,0.0,0.0,0.0,-5.4154,-5.4154,-5.4575,-5.4835,-5.4835,-5.4835,-5.4835,-5.4835,-5.5408,-5.5706,-5.5678,-5.5408,-5.4987,-5.4548,-5.453,-5.408,-5.335,-5.3379,-5.3356,-5.3313,-5.3352,-5.3813,-5.4525,0.0,0.0,0.0,0.0,0.0,0.0,0.0,0.0,0.0,0.0,0.0,0.0,-5.3129,-5.2469,-5.2046,-5.2807,-5.2469,0.0,-5.323,-5.3501,-5.3501,-5.3501,0.0,0.0,0.0,0.0,-5.3501,-5.3501,-5.3501,0.0,-5.3501,-5.3501,-5.3501,0.0,0.0,0.0,0.0,0.0,0.0,0.0,0.0,0.0,0.0,0.0,0.0,0.0,-5.3501,-5.3501,-5.3501,-5.3501,-5.3717,-5.4154,-5.4154,-5.4544,-5.5262,-5.5741,-5.6545,-5.7565,-5.7862,-5.7997,-5.7932,-5.6876,-5.5826,-5.4743,-5.3865,-5.3501,-5.3501,-5.3501,-5.3501,-5.3467,-5.3145,-5.3027,-5.2909,0.0,0.0,0.0,0.0,0.0,0.0,0.0,0.0,0.0,0.0,0.0,0.0,0.0,0.0,0.0,0.0,0.0,0.0,0.0,0.0,-5.3501,-5.3501,-5.3501,-5.3501,-5.3501,-5.3501,-5.3501,-5.3501,-5.4835,-5.5495,-5.5495,-5.4818,-5.4513,-5.4513,-5.4513,-5.4102,-5.3418,-5.3462,-5.3385,-5.325,-5.3435,-5.3816,-5.4409,-5.5195,0.0,0.0,0.0,0.0,0.0,0.0,0.0,0.0,-5.3501,0.0,-5.3247,-5.252,-5.1742,-5.1285,-5.208,0.0,0.0,-5.3112,-5.3501,0.0,-5.3501,-5.3501,-5.3501,-5.3501,0.0,-5.3501,-5.3501,-5.3501,-5.3501,-5.3501,-5.3501,0.0,0.0,0.0,0.0,0.0,0.0,0.0,0.0,0.0,0.0,0.0,0.0,0.0,0.0,-5.3501,-5.3501,-5.3501,-5.3501,-5.3501,-5.3501,-5.3501,-5.3832,-5.4513,-5.4558,-5.5367,-5.6817,-5.7565,-5.7886,-5.7797,-5.6277,-5.4835,-5.3584,-5.3534,-5.3501,-5.3501,-5.3501,-5.3467,-5.3298,-5.257,-5.2266,-5.2097,0.0,0.0,0.0,0.0,0.0,0.0,0.0,0.0,0.0,0.0,0.0,0.0,0.0,0.0,0.0,0.0,0.0,0.0,0.0,0.0,0.0,0.0,0.0,0.0,0.0,0.0,0.0,0.0,-5.3816,0.0,0.0,0.0,0.0,-5.375,0.0,-5.3632,-5.3479,-5.3479,-5.3101,-5.258,-5.3222,-5.3219,-5.2868,-5.3671,-5.3979,0.0,0.0,0.0,0.0,0.0,0.0,0.0,-5.3501,-5.3078,-5.252,-5.235,-5.1369,-5.0625,-5.1944,-5.1775,0.0,0.0,-5.3501,-5.3501,-5.3501,-5.3501,-5.3501,-5.3501,-5.3501,-5.3501,-5.3501,-5.3501,0.0,0.0,0.0,0.0,0.0,0.0,0.0,0.0,0.0,0.0,0.0,0.0,0.0,0.0,0.0,0.0,-5.3501,-5.3501,-5.3501,-5.3501,-5.3501,-5.3501,-5.3501,-5.3501,-5.3584,0.0,-5.431,-5.5072,-5.5976,-5.6773,-5.7134,-5.704,-5.5512,-5.4651,-5.4328,-5.375,-5.3501,-5.3501,-5.3501,-5.3112,-5.2536,-5.2367,-5.1944,-5.1336,0.0,0.0,0.0,0.0,0.0,0.0,0.0,0.0,0.0,0.0,0.0,0.0,0.0,0.0,0.0,0.0,0.0,0.0,0.0,0.0,0.0,0.0,0.0,0.0,0.0,0.0,0.0,0.0,0.0,0.0,0.0,0.0,0.0,-5.3501,0.0,-5.3501,-5.3484,-5.3095,-5.2689,-5.2317,-5.2384,-5.2164,-5.1826,-5.2249,-5.2418,-5.2452,-5.2807,0.0,0.0,0.0,0.0,0.0,0.0,0.0,-5.2164,-5.1454,-5.0693,-5.0338,0.0,0.0,0.0,-5.3112,0.0,-5.3501,-5.3501,-5.3501,-5.3501,-5.3501,-5.3501,-5.3501,-5.3501,0.0,0.0,0.0,0.0,0.0,0.0,0.0,0.0,0.0,0.0,0.0,0.0,0.0,0.0,0.0,0.0,-5.3501,-5.3501,-5.3501,-5.3501,-5.3501,-5.3501,-5.3501,-5.3501,-5.3501,-5.3501,-5.3501,-5.3881,-5.4468,-5.5203,-5.6385,-5.651,-5.5741,-5.4939,-5.4405,-5.4042,-5.3668,-5.3281,-5.2926,-5.2926,-5.2452,-5.1742,-5.1386,-5.0997,-5.0574,0.0,0.0,0.0,0.0,0.0,0.0,0.0,0.0,0.0,0.0,0.0,0.0,0.0,0.0,0.0,0.0,0.0,0.0,0.0,0.0,0.0,0.0,0.0,0.0,0.0,0.0,0.0,0.0,0.0,0.0,0.0,0.0,0.0,-5.3501,0.0,-5.3501,-5.345,-5.2638,-5.2232,-5.2063,-5.1454,-5.1133,-5.1031,-5.1134,-5.1185,-5.1302,-5.1894,-5.2114,-5.2215,-5.2892,0.0,0.0,0.0,0.0,-5.1674,-5.0456,-4.9999,-5.0101,0.0,0.0,0.0,0.0,0.0,0.0,-5.3501,-5.3501,-5.3501,-5.3501,-5.3501,0.0,0.0,0.0,0.0,0.0,0.0,0.0,0.0,0.0,0.0,0.0,0.0,0.0,0.0,0.0,0.0,0.0,0.0,-5.3501,-5.3501,-5.3501,-5.3501,-5.3501,-5.3501,-5.3501,-5.3501,-5.3501,-5.3501,-5.3501,-5.3651,-5.3929,-5.4468,-5.5872,-5.5816,-5.4589,-5.4468,-5.4006,-5.3298,-5.3298,-5.2841,-5.2114,-5.2114,-5.1674,-5.0947,-5.0321,-5.0016,-4.9813,0.0,0.0,0.0,0.0,0.0,0.0,0.0,0.0,0.0,0.0,0.0,0.0,0.0,0.0,0.0,0.0,0.0,0.0,0.0,0.0,0.0,0.0,-5.3501,0.0,0.0,0.0,0.0,0.0,0.0,0.0,0.0,0.0,0.0,-5.3501,0.0,0.0,-5.345,-5.2638,-5.1944,-5.132,-5.1251,-5.0828,-5.0321,-5.098,-5.1185,-5.1202,-5.1319,-5.1369,-5.1369,-5.1488,-5.1522,0.0,0.0,0.0,-5.0355,-5.0152,-4.9644,-4.9458,0.0,0.0,0.0,0.0,0.0,0.0,0.0,0.0,0.0,0.0,0.0,0.0,0.0,0.0,0.0,0.0,0.0,0.0,0.0,0.0,0.0,0.0,0.0,0.0,0.0,0.0,0.0,0.0,-5.3501,-5.3501,-5.3501,-5.3501,-5.3501,-5.3501,-5.3501,-5.3501,-5.3501,-5.3501,-5.3501,-5.3501,-5.4154,-5.4154,-5.3668,-5.453,-5.4787,-5.4558,-5.3913,-5.3195,-5.2469,-5.2469,-5.2029,-5.1369,-5.1369,-5.0913,-5.0219,-5.0135,-4.9695,-4.9137,0.0,0.0,0.0,0.0,0.0,0.0,0.0,0.0,0.0,0.0,0.0,0.0,0.0,0.0,0.0,-5.3501,0.0,0.0,0.0,0.0,0.0,-5.3501,-5.3501,-5.3501,-5.3501,0.0,0.0,0.0,0.0,0.0,0.0,-5.3501,-5.3501,0.0,0.0,0.0,0.0,-5.2215,-5.1505,-5.1117,-5.0321,-4.9779,-4.9526,-4.9847,-4.9982,-5.0033,-5.0439,-5.0591,-5.0659,-5.1065,-5.1185,-5.115,-5.071,0.0,0.0,0.0,-4.9255,0.0,-5.0304,0.0,0.0,0.0,0.0,0.0,0.0,0.0,0.0,0.0,0.0,0.0,0.0,0.0,0.0,0.0,0.0,0.0,0.0,0.0,0.0,0.0,0.0,0.0,0.0,0.0,0.0,0.0,-5.3501,-5.3501,-5.3501,-5.3078,-5.2841,-5.2841,-5.2435,-5.2215,-5.2215,-5.2621,-5.3061,-5.3501,-5.3372,-5.3151,-5.2807,-5.2725,-5.3173,-5.3945,-5.3159,-5.2638,-5.2266,-5.186,-5.1251,-5.0591,-5.0591,-5.0135,-4.9475,-4.9475,-4.9272,-4.9001,0.0,0.0,0.0,0.0,0.0,0.0,0.0,0.0,0.0,0.0,0.0,0.0,0.0,0.0,0.0,0.0,-5.3501,0.0,0.0,0.0,0.0,-5.3501,-5.3501,-5.3501,-5.3501,0.0,0.0,0.0,0.0,0.0,-5.3501,-5.3501,-5.3501,0.0,-5.3501,-5.3399,0.0,0.0,0.0,-5.0828,-4.9526,-4.9001,-4.9001,-4.9001,-4.9001,-4.9069,-4.961,-4.9813,-4.9898,-5.0473,-5.0659,-5.0557,-4.9982,-4.9813,0.0,0.0,0.0,0.0,0.0,0.0,0.0,0.0,0.0,0.0,0.0,0.0,0.0,0.0,0.0,0.0,0.0,0.0,0.0,0.0,0.0,0.0,0.0,0.0,0.0,0.0,0.0,0.0,0.0,0.0,0.0,0.0,-5.3315,-5.3196,-5.3196,-5.2452,-5.2029,-5.2029,-5.1505,-5.1185,-5.1185,-5.1758,-5.2334,-5.2926,-5.2317,-5.2029,-5.2012,-5.1471,-5.1843,-5.2892,-5.2283,-5.1911,-5.1708,-5.115,-5.049,-4.9813,-4.9813,-4.9475,-4.9001,-4.9001,-4.9001,-4.9001,0.0,0.0,0.0,0.0,0.0,0.0,0.0,0.0,0.0,0.0,0.0,0.0,-5.3501,-5.3501,-5.3501,-5.3501,-5.3501,-5.3501,-5.3501,-5.3501,0.0,-5.3501,-5.3501,0.0,-5.3501,0.0,0.0,0.0,0.0,0.0,-5.3501,-5.3501,-5.3501,-5.3501,-5.3501,-5.3078,-5.2317,0.0,0.0,0.0,0.0,0.0,0.0,0.0,0.0,0.0,-4.9035,-4.9069,-4.9069,-4.9103,-4.912,-4.912,-4.9069,-4.9069,-4.9052,0.0,0.0,0.0,0.0,0.0,0.0,0.0,0.0,0.0,0.0,0.0,0.0,0.0,0.0,0.0,0.0,0.0,0.0,0.0,0.0,0.0,0.0,0.0,0.0,0.0,0.0,0.0,0.0,0.0,0.0,0.0,-5.279,-5.2367,-5.2367,-5.1674,-5.1268,-5.1268,-5.1202,-5.1185,-5.1185,-5.1251,-5.1302,-5.1303,-5.1302,-5.1268,-5.1268,-5.1202,-5.1251,-5.1303,-5.1302,-5.0862,-5.0202,-5.0168,-4.9712,-4.9069,-4.9069,-4.9035,-4.9001,-4.9001,-4.9001,-4.9001,0.0,0.0,0.0,0.0,0.0,0.0,0.0,0.0,0.0,0.0,0.0,0.0,0.0,-5.3501,-5.3501,-5.3501,-5.3501,-5.3501,-5.3501,-5.3501,0.0,-5.3501,-5.3501,-5.3501,-5.3501,0.0,0.0,0.0,0.0,-5.3501,-5.3501,-5.3501,-5.3501,-5.3501,-5.3501,-5.3061,-5.2249,-5.1522,0.0,0.0,0.0,0.0,0.0,0.0,0.0,0.0,-4.9001,-4.9001,-4.9001,-4.9001,-4.9001,-4.9001,-4.9001,-4.9001,-4.9001,-4.9001,-4.9187,0.0,0.0,0.0,0.0,0.0,0.0,0.0,0.0,0.0,0.0,0.0,0.0,0.0,0.0,0.0,0.0,0.0,0.0,0.0,0.0,0.0,0.0,0.0,0.0,0.0,0.0,0.0,0.0,0.0,0.0,-5.1606,-5.1606,-5.0896,-5.049,-5.049,-5.0033,-5.0016,-5.049,-5.049,-5.0727,-5.1185,-5.0727,-5.049,-5.0473,-4.9999,-4.9796,-4.9796,-4.9796,-4.9915,-5.005,-4.9593,-4.9238,-4.9001,-4.9001,-4.9001,-4.9001,-4.9001,-4.9001,-4.9001,0.0,0.0,0.0,0.0,0.0,0.0,0.0,0.0,0.0,0.0,0.0,0.0,0.0,0.0,-5.3501,-5.3501,-5.3501,-5.3501,-5.3501,-5.3501,-5.3501,-5.3501,-5.3501,-5.3501,-5.3501,0.0,0.0,0.0,0.0,0.0,0.0,-5.3501,-5.3501,-5.3501,-5.323,-5.2672,0.0,0.0,0.0,-4.9678,0.0,0.0,-4.9035,0.0,0.0,0.0,-4.9661,-4.9746,-4.9712,-4.9458,-4.9373,-4.9323,-4.9086,-4.9001,-4.9001,-4.9001,-4.9001,0.0,-4.9001,0.0,0.0,0.0,0.0,0.0,0.0,0.0,0.0,0.0,0.0,0.0,0.0,0.0,0.0,0.0,0.0,0.0,0.0,0.0,0.0,0.0,0.0,0.0,0.0,0.0,0.0,0.0,0.0,0.0,-5.0845,-5.0135,-4.9729,-4.9729,-4.9255,-4.9238,-4.9729,-4.9729,-4.9982,-5.0473,-4.9965,-4.9729,-4.9712,-4.9221,-4.9001,-4.9001,-4.9001,-4.9272,-4.9678,-4.9204,-4.9001,-4.9001,-4.9001,-4.9001,-4.9001,-4.9001,-4.8849,-4.8646,0.0,0.0,0.0,0.0,0.0,0.0,0.0,0.0,0.0,-5.0808,0.0,0.0,0.0,0.0,0.0,-5.3501,-5.3501,-5.3501,-5.3501,-5.3501,-5.3501,-5.3501,0.0,0.0,0.0,0.0,0.0,0.0,0.0,0.0,0.0,0.0,-5.3501,-5.3433,-5.2638,-5.186,-5.1133,0.0,-4.9661,-4.9001,0.0,-4.9001,-4.9086,0.0,0.0,0.0,-5.0947,-5.1185,0.0,-5.0371,0.0,0.0,0.0,0.0,0.0,-4.9001,0.0,0.0,0.0,0.0,0.0,0.0,0.0,0.0,0.0,0.0,0.0,0.0,0.0,0.0,0.0,0.0,0.0,0.0,0.0,0.0,0.0,0.0,0.0,0.0,0.0,0.0,0.0,0.0,0.0,0.0,-5.049,-5.005,-5.005,-4.939,-4.9001,-4.9001,-4.9001,-4.9001,-4.9001,-4.9001,-4.9001,-4.9001,-4.9001,-4.9001,-4.9001,-4.9001,-4.9001,-4.9001,-4.9001,-4.9001,-4.9001,-4.9001,-4.9001,-4.9001,-4.9001,-4.8984,-4.8968,-4.8968,-4.8511,-4.7855,0.0,0.0,0.0,0.0,0.0,0.0,0.0,0.0,-4.9219,0.0,0.0,0.0,-5.3433,-5.3501,-5.3501,-5.3501,-5.3501,-5.3501,-5.3501,-5.3501,-5.3501,-5.3501,-5.3501,0.0,0.0,0.0,0.0,0.0,0.0,0.0,0.0,0.0,0.0,0.0,-5.1843,-5.1099,-5.0388,-5.0185,0.0,-4.9001,-4.9001,-4.9001,0.0,0.0,0.0,0.0,0.0,-5.1185,-5.1183,0.0,-5.0541,-4.9965,0.0,0.0,0.0,0.0,0.0,0.0,-4.9001,0.0,0.0,0.0,0.0,0.0,0.0,0.0,0.0,0.0,0.0,0.0,0.0,0.0,0.0,0.0,0.0,0.0,0.0,0.0,0.0,0.0,0.0,0.0,0.0,0.0,0.0,0.0,-4.9712,-4.9306,-4.9306,-4.912,-4.9001,-4.9001,-4.9001,-4.9001,-4.9001,-4.9001,-4.9001,-4.9001,-4.9001,-4.9001,-4.9001,-4.9001,-4.9001,-4.9001,-4.9001,-4.9001,-4.9001,-4.9001,-4.9001,-4.9001,-4.9001,-4.868,-4.8193,-4.8193,-4.775,-4.7107,0.0,0.0,0.0,0.0,0.0,0.0,0.0,0.0,-4.7909,0.0,0.0,0.0,-5.3349,-5.3501,-5.3501,-5.3501,-5.3501,-5.3501,-5.3501,-5.3501,-5.3501,-5.3501,-5.3501,-5.3501,0.0,0.0,0.0,0.0,0.0,0.0,0.0,0.0,0.0,0.0,0.0,0.0,0.0,0.0,0.0,0.0,-4.9001,0.0,0.0,-5.0152,-5.0557,0.0,0.0,0.0,-5.2114,-5.1775,-5.0963,0.0,0.0,0.0,0.0,0.0,0.0,0.0,0.0,0.0,0.0,0.0,0.0,0.0,-4.9543,-4.9644,-4.9763,0.0,0.0,0.0,0.0,0.0,0.0,0.0,0.0,0.0,0.0,0.0,0.0,0.0,0.0,0.0,0.0,-5.0067,-4.9644,-4.9644,-4.9238,-4.9001,-4.9001,-4.9001,-4.9001,-4.9001,-4.9001,-4.9001,-4.9001,-4.9001,-4.9001,-4.9001,-4.9001,-4.9001,-4.9001,-4.9001,-4.9001,-4.9001,-4.9001,-4.9001,-4.8984,-4.868,-4.8731,-4.8968,-4.8663,-4.8261,-4.7855,-4.7564,-4.6972,-4.6346,0.0,0.0,0.0,0.0,0.0,0.0,0.0,0.0,0.0,0.0,-4.9743,-5.1503,-5.3027,-5.3366,-5.3501,-5.3501,-5.3501,-5.3501,-5.3501,-5.3501,-5.3501,-5.3501,-5.3501,-5.3501,-5.3501,0.0,0.0,0.0,0.0,0.0,0.0,0.0,0.0,0.0,0.0,0.0,0.0,0.0,0.0,-4.9001,-4.9001,-4.9001,0.0,0.0,-5.1185,-5.142,-5.2959,-5.3501,-5.3365,-5.2486,-5.1302,0.0,0.0,0.0,0.0,0.0,-4.9001,0.0,0.0,0.0,0.0,0.0,0.0,0.0,-4.9001,-4.9001,-4.9001,-4.9001,0.0,0.0,0.0,0.0,0.0,0.0,0.0,0.0,0.0,0.0,0.0,0.0,0.0,0.0,-4.9965,-4.9373,-4.9001,-4.9001,-4.9001,-4.9001,-4.9001,-4.9001,-4.9001,-4.9001,-4.9001,-4.9001,-4.9001,-4.9001,-4.9001,-4.9001,-4.9001,-4.9001,-4.9001,-4.9001,-4.8968,-4.8883,-4.8883,-4.8832,-4.8714,-4.8054,-4.8223,-4.8798,-4.8088,-4.775,-4.7567,-4.6921,-4.621,-4.5585,0.0,0.0,0.0,0.0,0.0,0.0,0.0,0.0,0.0,-4.6227,-4.9038,-5.1043,-5.1383,-5.2655,-5.3501,-5.3501,-5.3501,-5.3501,-5.3501,-5.3501,-5.3501,-5.3501,-5.3501,-5.3501,-5.3501,-5.3348,0.0,0.0,0.0,0.0,0.0,0.0,0.0,0.0,0.0,0.0,0.0,0.0,0.0,-4.9001,-4.9001,0.0,-4.9171,-5.0659,-5.1185,-5.142,-5.2959,-5.3501,-5.3298,-5.1894,-5.1234,-5.076,0.0,0.0,0.0,-4.9001,0.0,0.0,0.0,0.0,0.0,0.0,0.0,0.0,-4.9001,-4.9001,-4.9001,0.0,0.0,0.0,0.0,0.0,0.0,0.0,0.0,0.0,0.0,0.0,0.0,0.0,0.0,0.0,-4.9221,-4.9086,-4.9001,-4.9001,-4.9001,-4.9001,-4.9001,-4.9001,-4.9001,-4.9001,-4.9001,-4.9001,-4.9001,-4.9001,-4.9001,-4.9001,-4.9001,-4.9001,-4.9001,-4.9001,-4.868,-4.8091,-4.8091,-4.7784,-4.7208,-4.7073,-4.7462,-4.8054,-4.7293,-4.665,-4.6126,-4.5974,-4.5449,-4.479,0.0,0.0,0.0,0.0,0.0,0.0,0.0,0.0,0.0,0.0,0.0,-5.0152,-4.9711,-5.161,-5.2708,-5.2249,-5.3011,-5.3501,-5.3501,-5.3501,-5.3501,-5.3501,-5.3501,-5.3501,-5.3501,-5.3501,0.0,0.0,0.0,0.0,0.0,0.0,0.0,0.0,0.0,0.0,0.0,0.0,-4.9001,-4.9001,-4.9001,0.0,-4.9171,-5.0659,-5.1185,-5.142,-5.2959,-5.3501,-5.3264,-5.1725,-5.1185,0.0,-4.9475,-4.9001,-4.9001,0.0,-4.9001,-4.9001,0.0,0.0,0.0,-4.9001,0.0,0.0,0.0,-4.9001,-4.9001,-4.9001,0.0,0.0,0.0,0.0,0.0,0.0,0.0,0.0,0.0,0.0,0.0,0.0,0.0,0.0,-4.9001,-4.9001,-4.9001,-4.9001,-4.9001,-4.9001,-4.9001,-4.9001,-4.9001,-4.9001,-4.9001,-4.9001,-4.9001,-4.9001,-4.9001,-4.9001,-4.8646,-4.846,-4.8443,-4.8071,-4.7699,-4.7361,-4.7361,-4.7141,-4.6752,-4.6397,-4.6481,-4.6786,-4.6397,-4.6024,-4.5669,-4.528,-4.4936,-4.4615,-4.308,0.0,0.0,0.0,0.0,0.0,0.0,0.0,0.0,0.0,0.0,0.0,0.0,-5.0349,-5.1598,-5.1003,-5.2083,-5.2876,-5.3027,-5.3061,-5.3061,-5.3061,-5.3061,-5.3061,-5.3061,-5.3061,-5.2739,0.0,0.0,0.0,0.0,0.0,0.0,0.0,0.0,0.0,0.0,0.0,0.0,-4.9001,0.0,-4.9001,-4.9171,-5.0659,-5.1185,-5.142,-5.2959,-5.3399,-5.3061,-5.1674,-5.1116,-5.0777,-4.9424,-4.9001,0.0,0.0,0.0,0.0,0.0,0.0,0.0,0.0,0.0,-4.9001,0.0,0.0,0.0,0.0,0.0,0.0,0.0,0.0,0.0,0.0,0.0,0.0,0.0,0.0,0.0,0.0,0.0,0.0,0.0,-4.8663,-4.8578,-4.8578,-4.8578,-4.8578,-4.8578,-4.8578,-4.8578,-4.8578,-4.8578,-4.8578,-4.8578,-4.8578,-4.8578,-4.8578,-4.7986,-4.7669,-4.7682,-4.7073,-4.6718,-4.6583,-4.6583,-4.6498,-4.6312,-4.5737,-4.55,-4.55,-4.55,-4.55,-4.5415,-4.4835,-4.4615,-4.4615,-4.2396,-4.294,0.0,0.0,0.0,0.0,0.0,0.0,0.0,0.0,0.0,0.0,0.0,0.0,0.0,-5.1091,-5.0576,-5.0575,-5.1406,-5.1438,-5.1438,-5.1438,-5.1438,-5.1438,-5.1438,-5.1438,-5.1437,0.0,0.0,0.0,0.0,0.0,0.0,0.0,-4.9035,0.0,0.0,0.0,-4.9001,0.0,-4.9001,-4.9001,0.0,-5.0659,-5.1185,-5.142,-5.2959,-5.3044,-5.2317,0.0,-5.0777,-5.0067,0.0,-4.9001,-4.9001,-4.9001,0.0,0.0,0.0,0.0,0.0,0.0,-4.9001,0.0,0.0,0.0,-4.9001,-4.9001,0.0,0.0,0.0,0.0,0.0,0.0,0.0,0.0,0.0,0.0,0.0,0.0,0.0,0.0,0.0,-4.7428,-4.7039,-4.7039,-4.7039,-4.7039,-4.7039,-4.7039,-4.7039,-4.7039,-4.7039,-4.7039,-4.7039,-4.7039,-4.7039,-4.7039,-4.6955,-4.6921,-4.6921,-4.6836,-4.6447,-4.5821,-4.5821,-4.5449,-4.4852,-4.4767,-4.4733,-4.4733,-4.4733,-4.4733,-4.4716,-4.4632,-4.4615,-4.4615,-4.2186,-4.262,0.0,0.0,0.0,0.0,0.0,0.0,0.0,0.0,0.0,0.0,0.0,0.0,0.0,0.0,0.0,-4.9807,0.0,0.0,0.0,0.0,-5.0626,-5.0956,-5.0409,-5.0924,-5.0997,-5.0557,-5.0253,0.0,0.0,0.0,0.0,0.0,-4.9001,0.0,-4.9001,0.0,-4.9001,0.0,0.0,0.0,0.0,-5.0168,-5.1099,-5.1928,-5.257,-5.2587,-5.2131,0.0,-5.0355,0.0,0.0,0.0,0.0,0.0,0.0,0.0,0.0,0.0,0.0,0.0,0.0,0.0,-4.9001,0.0,-4.9001,0.0,0.0,0.0,0.0,0.0,0.0,0.0,-4.7259,0.0,0.0,0.0,0.0,0.0,0.0,0.0,0.0,0.0,0.0,0.0,-4.6786,-4.6786,-4.6786,-4.6786,-4.6786,-4.6786,-4.6786,-4.6786,-4.6786,-4.6786,-4.6786,-4.6786,-4.6363,-4.616,-4.6143,-4.5703,-4.5331,-4.5043,-4.5043,-4.4902,-4.4615,-4.4615,-4.4615,-4.4615,-4.4615,-4.4615,-4.4615,-4.4615,-4.4615,-4.4615,-4.1632,0.0,0.0,0.0,0.0,0.0,0.0,0.0,0.0,0.0,0.0,0.0,-4.5022,-4.6819,0.0,0.0,-4.9138,-4.9518,0.0,0.0,-4.9214,0.0,0.0,-4.9726,-4.9576,-4.9726,-4.969,0.0,0.0,0.0,0.0,0.0,0.0,0.0,0.0,-4.9001,-4.9001,0.0,-4.9001,-4.9001,-4.9001,-4.9001,-4.9086,-4.9813,-5.0879,-5.2012,-5.2012,-5.1877,-5.1522,-5.0456,-4.9965,0.0,-4.9171,0.0,0.0,0.0,0.0,0.0,-4.9001,0.0,0.0,0.0,0.0,0.0,0.0,0.0,0.0,0.0,0.0,0.0,0.0,0.0,0.0,0.0,0.0,-4.643,0.0,0.0,0.0,0.0,0.0,0.0,0.0,0.0,0.0,-4.6194,-4.6194,-4.6194,-4.6194,-4.6194,-4.6194,-4.6194,-4.6194,-4.6194,-4.6194,-4.6194,-4.6194,-4.6177,-4.5652,-4.5399,-4.5382,-4.4823,-4.4615,-4.4615,-4.4615,-4.4615,-4.4615,-4.4615,-4.4615,-4.4615,-4.4615,-4.4615,-4.4615,-4.4615,-4.4615,-4.4615,-4.0337,-4.1527,0.0,0.0,0.0,0.0,0.0,0.0,0.0,0.0,0.0,0.0,0.0,0.0,0.0,0.0,0.0,-4.9467,-4.8674,0.0,-4.8796,0.0,0.0,-4.7203,-4.9007,-4.7271,-4.6795,0.0,0.0,0.0,0.0,0.0,0.0,0.0,0.0,-4.9001,-4.9001,-4.9001,-4.9001,-4.9001,-4.9001,-4.9001,-4.9086,0.0,-5.0574,-5.1251,-5.1251,0.0,0.0,-5.0101,-4.9627,0.0,0.0,0.0,0.0,0.0,0.0,0.0,0.0,0.0,0.0,-4.9001,0.0,0.0,0.0,0.0,-4.8798,0.0,0.0,0.0,0.0,0.0,0.0,0.0,0.0,0.0,0.0,0.0,0.0,0.0,0.0,0.0,0.0,0.0,0.0,-4.4682,-4.4682,-4.4682,-4.4682,-4.4682,-4.4682,-4.4682,-4.4682,-4.4682,-4.4682,-4.4682,-4.4682,-4.4682,-4.4649,-4.4649,-4.4632,-4.4615,-4.4615,-4.4615,-4.4615,-4.4615,-4.4615,-4.4615,-4.4615,-4.4615,-4.4615,-4.4615,-4.4615,-4.4615,-4.4615,-4.4615,0.0,0.0,0.0,0.0,0.0,0.0,0.0,-4.329,0.0,0.0,-4.4587,0.0,0.0,-4.7504,-4.882,0.0,0.0,-4.9489,-4.9383,-4.8372,0.0,-4.7856,-4.6781,-4.6781,0.0,0.0,0.0,0.0,0.0,0.0,0.0,0.0,0.0,0.0,0.0,-4.8401,0.0,0.0,0.0,0.0,0.0,-4.9001,-4.9086,0.0,-5.0253,-5.0473,-5.0473,-5.0304,0.0,-4.9543,-4.9204,-4.9001,-4.9001,-4.9001,-4.9001,-4.9001,-4.9001,0.0,0.0,0.0,-4.9001,-4.9001,0.0,0.0,0.0,0.0,0.0,0.0,0.0,0.0,0.0,0.0,0.0,0.0,0.0,0.0,0.0,0.0,0.0,0.0,0.0,0.0,0.0,0.0,0.0,-4.4615,-4.4615,-4.4615,-4.4615,-4.4615,-4.4615,-4.4615,-4.4615,-4.4615,-4.4615,-4.4615,-4.4615,-4.4615,-4.4615,-4.4615,-4.4615,-4.4615,-4.4615,-4.4615,-4.4615,-4.4615,-4.4615,-4.4615,-4.4615,-4.4615,-4.4615,-4.4615,-4.4615,-4.4615,-4.4615,-4.4615,-3.9388,0.0,0.0,0.0,0.0,0.0,0.0,0.0,0.0,0.0,-4.4504,0.0,-4.5559,0.0,-4.9379,0.0,-5.0286,-5.0507,-4.9665,-4.8962,0.0,-4.7796,-4.7011,-4.7075,0.0,0.0,0.0,0.0,0.0,-4.8193,0.0,0.0,0.0,0.0,0.0,-4.8433,-4.897,0.0,-4.8433,0.0,0.0,-4.9001,0.0,0.0,-4.9712,-4.9712,0.0,-4.9712,-4.9644,-4.9171,-4.9001,-4.9001,-4.9001,-4.9001,-4.9001,-4.9001,-4.9001,-4.9001,-4.9001,-4.9001,0.0,-4.9001,-4.9001,0.0,-4.868,0.0,0.0,0.0,0.0,0.0,0.0,0.0,0.0,0.0,0.0,0.0,0.0,-4.4138,0.0,0.0,0.0,0.0,0.0,0.0,-4.3931,-4.4542,-4.4327,-4.4253,0.0,0.0,-4.4615,-4.4615,-4.4615,-4.4615,-4.4615,-4.4615,-4.4615,-4.4615,-4.4615,-4.4615,-4.4615,-4.4615,-4.4615,-4.4615,-4.4615,-4.4615,-4.4615,-4.4615,-4.4615,-4.4615,-4.4615,-4.4615,-4.4615,-4.4615,-4.4615,-4.4615,0.0,0.0,0.0,0.0,-4.1459,0.0,0.0,0.0,-4.329,0.0,-4.3968,-4.4668,-4.5297,-4.7872,-4.9362,-4.9007,-5.174,-5.2344,-4.97,-5.0373,0.0,0.0,-4.7796,-4.7838,-4.8987,0.0,0.0,0.0,0.0,0.0,0.0,0.0,0.0,0.0,-4.894,0.0,-4.9001,-4.894,-4.897,-4.9001,-4.9001,-4.9001,-4.9001,-4.9001,-4.9001,-4.9001,-4.9001,-4.9001,-4.9001,-4.9001,-4.9001,-4.9001,-4.9001,-4.9001,-4.9001,-4.9001,-4.9001,-4.9001,-4.9001,-4.9001,-4.9001,-4.9001,0.0,0.0,0.0,0.0,-4.7382,0.0,0.0,0.0,0.0,0.0,0.0,0.0,0.0,0.0,0.0,0.0,0.0,0.0,0.0,0.0,0.0,-4.2583,-4.2831,-4.4485,-4.3844,0.0,0.0,0.0,-4.4615,-4.4615,-4.4615,-4.4615,-4.4615,-4.4615,-4.4615,-4.4615,-4.4615,-4.4615,-4.4615,-4.4615,-4.4615,-4.4615,-4.4615,-4.4615,-4.4615,-4.4615,-4.4615,-4.4615,-4.4615,-4.457,-4.4542,-4.457,-4.4615,-4.4598,-3.9388,-3.9388,-3.9634,0.0,-4.1085,-4.1826,0.0,0.0,0.0,0.0,-4.4993,-4.6311,-4.6456,-4.9335,-5.1218,-5.1122,-5.2557,0.0,0.0,0.0,0.0,-5.0524,-4.8458,-4.7838,-4.8987,-4.7836,-4.7688,-4.8639,0.0,0.0,-4.7622,0.0,0.0,0.0,0.0,0.0,-4.894,-4.8257,-4.837,-4.9001,-4.9001,-4.9001,0.0,0.0,-4.9001,-4.9001,-4.9001,-4.9001,-4.9001,-4.9001,-4.9001,-4.9001,-4.9001,-4.9001,-4.9001,-4.9001,-4.9001,-4.9001,-4.9001,-4.9001,-4.9001,-4.9001,-4.8595,-4.8125,0.0,0.0,0.0,0.0,0.0,0.0,0.0,0.0,0.0,0.0,0.0,0.0,0.0,0.0,0.0,-4.3078,0.0,0.0,0.0,-4.368,-4.4121,-4.457,-4.4384,0.0,0.0,0.0,0.0,-4.4615,-4.4615,-4.4615,-4.4615,-4.4615,-4.4615,-4.4615,-4.4615,-4.4615,-4.4615,-4.4615,-4.4615,-4.4615,-4.4615,-4.4615,-4.4615,-4.4615,-4.4615,-4.4615,-4.4615,-4.4196,-4.371,-4.4355,-4.4615,-4.4514,-3.9388,0.0,0.0,-4.0337,0.0,0.0,-4.2336,-4.291,0.0,-4.3678,-4.5183,0.0,-4.7214,-4.9649,-5.1431,-5.1849,-5.287,0.0,-5.2835,0.0,0.0,-5.0577,-4.9555,-4.8978,-4.8987,-4.8465,0.0,-4.9001,0.0,0.0,-4.8225,0.0,0.0,0.0,0.0,-4.8212,0.0,-4.845,-4.8513,-4.9001,-4.9001,0.0,0.0,-4.9001,-4.9001,-4.9001,-4.9001,-4.9001,-4.9001,-4.9001,-4.9001,-4.9001,-4.9001,-4.9001,-4.9001,-4.9001,-4.9001,-4.9001,-4.9001,-4.8765,-4.8528,-4.8528,-4.797,-4.7344,-4.7022,-4.6312,-4.5618,0.0,0.0,-4.4615,0.0,0.0,0.0,0.0,0.0,0.0,0.0,0.0,0.0,0.0,-4.2614,0.0,0.0,-4.3061,-4.338,-4.4514,0.0,0.0,0.0,0.0,0.0,-4.4615,-4.4615,-4.4615,-4.4615,-4.4615,-4.4615,-4.4615,-4.4615,-4.4615,-4.4615,-4.4615,-4.4615,-4.4615,-4.4615,-4.4615,-4.4615,-4.4615,-4.4615,-4.4542,-4.4196,-4.3977,-4.3873,-4.4006,-4.3798,-4.338,-3.9493,0.0,0.0,0.0,0.0,0.0,0.0,-4.297,0.0,-4.4227,0.0,-4.5928,-4.762,-4.9245,-5.0665,-5.1813,0.0,-5.2939,-5.2153,-5.2889,-5.2303,-5.0002,-5.0642,-5.0422,-4.9035,-4.9001,-4.9001,0.0,0.0,0.0,0.0,0.0,0.0,0.0,0.0,0.0,0.0,-4.9001,-4.9001,-4.9001,-4.9001,-4.9001,-4.9001,-4.9001,-4.9001,-4.9001,-4.9001,-4.9001,-4.9001,-4.9001,-4.9001,-4.9001,-4.9001,-4.9001,-4.9001,-4.9001,-4.8934,-4.8866,-4.8866,-4.8325,-4.7753,-4.7753,-4.7208,-4.6481,-4.5855,-4.5635,-4.5365,-4.4733,-4.4615,-4.4615,0.0,0.0,0.0,0.0,0.0,0.0,0.0,0.0,0.0,0.0,0.0,0.0,0.0,0.0,0.0,0.0,0.0,0.0,0.0,0.0,0.0,-4.4615,-4.4615,-4.4615,-4.4615,0.0,-4.4615,-4.4615,-4.4615,-4.4615,-4.4615,-4.4615,-4.4615,-4.4615,-4.4615,-4.4615,-4.4615,-4.4615,-4.4542,-4.4355,-4.3591,-4.368,-4.4179,-4.3532,-4.2676,-4.1869,0.0,0.0,0.0,0.0,0.0,-4.259,-4.309,-4.3215,-4.3529,-4.4227,-4.4885,-4.5928,-4.762,-4.8584,-4.9836,-5.1724,-5.2065,0.0,0.0,0.0,0.0,-5.0974,-5.0512,-4.9881,-4.9018,-4.9001,-4.9001,0.0,0.0,0.0,0.0,0.0,0.0,0.0,0.0,0.0,-4.9001,-4.9001,0.0,-4.9001,-4.9001,-4.9001,-4.9001,-4.9001,-4.9001,-4.9001,-4.9001,-4.9001,-4.9001,-4.9001,-4.9001,-4.9001,-4.9001,-4.9001,-4.9001,-4.9001,-4.8578,-4.8075,-4.8075,-4.7564,-4.6989,-4.6989,-4.6447,-4.5872,-4.5737,-4.5229,-4.4767,-4.4632,-4.4615,-4.4615,-4.4615,0.0,0.0,0.0,0.0,0.0,0.0,0.0,0.0,0.0,0.0,-4.3306,0.0,0.0,0.0,0.0,0.0,0.0,0.0,0.0,0.0,0.0,-4.4615,0.0,0.0,0.0,-4.4615,-4.4615,-4.4615,-4.4615,-4.4615,-4.4615,-4.4615,-4.4615,-4.4615,-4.4615,-4.4615,-4.4615,-4.4167,-4.3502,-4.3366,-4.2939,-4.2504,-4.3108,-4.2284,-4.1046,0.0,0.0,0.0,0.0,0.0,0.0,0.0,-4.329,-4.3529,-4.4227,-4.4885,-4.5928,-4.762,-4.8422,-4.9639,-5.1724,-5.1921,-5.2182,-5.2825,-5.252,-5.1809,-5.0676,-5.0287,-4.9746,-4.9018,-4.9001,-4.9001,-4.9001,0.0,0.0,0.0,0.0,0.0,0.0,0.0,-4.8091,0.0,0.0,0.0,-4.9001,-4.9001,-4.9001,-4.9001,-4.9001,-4.9001,-4.9001,-4.9001,-4.9001,-4.9001,-4.9001,-4.9001,-4.9001,-4.9001,-4.8748,-4.8443,-4.8443,-4.7919,-4.7344,-4.7344,-4.6786,-4.6227,-4.6227,-4.5669,-4.5128,-4.5128,-4.4869,-4.4615,-4.4615,-4.4615,-4.4615,-4.4615,-4.4615,0.0,0.0,0.0,0.0,0.0,0.0,0.0,0.0,0.0,0.0,0.0,0.0,0.0,0.0,0.0,0.0,0.0,0.0,0.0,0.0,0.0,0.0,0.0,0.0,0.0,-4.4615,-4.4615,-4.4615,-4.4615,-4.4615,-4.4615,-4.4615,-4.4615,-4.4615,-4.4615,-4.4615,-4.4355,-4.3948,-4.3472,-4.3047,-4.2676,-4.2645,-4.2093,-4.1379,0.0,-4.1692,0.0,0.0,-4.2985,0.0,-4.329,-4.329,-4.3609,-4.4494,-4.5223,-4.6204,-4.7722,-4.8511,-4.9591,-5.128,-5.1424,-5.1617,-5.2031,-5.1928,-5.1302,-5.0135,-4.9949,-4.9593,-4.9018,-4.9001,-4.9001,0.0,0.0,0.0,0.0,0.0,0.0,0.0,0.0,0.0,0.0,0.0,-4.8629,-4.8781,-4.8781,-4.8866,-4.8984,-4.8832,-4.8781,-4.8748,-4.8595,-4.8528,-4.8528,-4.8528,-4.8646,-4.8748,-4.8578,-4.8139,-4.7682,-4.7682,-4.7141,-4.6566,-4.6566,-4.6024,-4.5466,-4.5466,-4.501,-4.4615,-4.4615,-4.4615,-4.4615,-4.4615,-4.4615,-4.4615,-4.4615,-4.4615,0.0,0.0,0.0,0.0,0.0,0.0,0.0,0.0,0.0,0.0,-4.431,0.0,0.0,0.0,0.0,0.0,0.0,0.0,0.0,0.0,0.0,-4.431,-4.431,0.0,-4.4615,-4.4615,-4.4615,-4.4615,-4.4615,-4.4615,-4.4615,-4.4615,-4.4615,-4.4615,-4.4587,-4.4412,-4.4207,-4.396,-4.329,-4.2909,-4.2693,-4.2189,-4.1901,-4.1642,0.0,0.0,0.0,0.0,0.0,0.0,-4.329,-4.329,-4.3871,-4.5434,-4.6291,-4.7084,-4.7977,-4.8779,-4.9443,-4.9871,-4.9891,-5.0305,-5.1254,-5.0676,-5.0236,-5.0101,-4.9458,-4.9069,-4.9001,-4.9001,-4.9001,0.0,0.0,-4.8274,0.0,0.0,0.0,0.0,0.0,0.0,0.0,-4.6972,-4.7394,-4.799,-4.799,-4.8409,-4.8934,-4.8244,-4.799,-4.7936,-4.7242,-4.7005,-4.7005,-4.7005,-4.7445,-4.7902,-4.7225,-4.6955,-4.6904,-4.6904,-4.638,-4.5805,-4.5805,-4.5263,-4.4716,-4.4716,-4.4649,-4.4615,-4.4615,-4.4615,-4.4615,-4.4615,-4.4615,-4.4615,-4.4615,-4.4615,-4.4615,0.0,0.0,0.0,0.0,0.0,-4.4327,-4.3532,0.0,0.0,0.0,-4.2614,0.0,0.0,-4.3873,0.0,0.0,0.0,0.0,-4.3426,0.0,-4.3426,-4.3426,-4.4196,-4.4615,-4.4615,-4.4615,-4.4615,-4.4615,-4.4615,-4.4615,-4.4615,-4.4615,-4.4615,-4.4542,-4.3756,-4.2939,-4.2221,-4.2157,-4.1642,-4.1046,-4.1739,-4.1511,-4.0811,0.0,0.0,0.0,0.0,0.0,0.0,0.0,-4.4182,-4.4625,-4.5866,-4.6137,-4.67,-4.8073,-4.8451,-4.8868,-4.9641,-4.9694,-4.994,-5.0494,-5.0253,-4.9898,-4.9458,-4.9171,-4.9001,-4.9001,-4.9001,-4.9001,0.0,0.0,0.0,0.0,0.0,0.0,0.0,0.0,-4.5872,-4.6177,-4.6599,-4.6972,-4.7242,-4.7242,-4.7428,-4.7648,-4.7344,-4.7242,-4.7208,-4.6904,-4.6786,-4.6718,-4.6295,-4.6633,-4.7192,-4.6887,-4.6498,-4.6143,-4.6143,-4.5618,-4.5026,-4.5026,-4.4835,-4.4615,-4.4615,-4.4615,-4.4615,-4.4615,-4.4615,-4.4615,-4.4615,-4.4615,-4.4615,-4.4615,-4.4615,-4.4615,0.0,0.0,0.0,0.0,0.0,0.0,-4.4121,0.0,-4.4064,0.0,0.0,0.0,0.0,0.0,0.0,0.0,0.0,0.0,-4.2552,0.0,-4.3814,-4.3306,-4.4167,-4.4615,-4.4615,-4.4615,-4.4615,-4.4615,-4.4615,-4.4615,-4.4615,-4.4615,-4.4281,-4.3785,-4.3426,-4.2785,-4.1949,-4.1565,-4.0862,-4.0091,-4.0033,-3.9466,-3.8705,-4.2641,0.0,-4.329,0.0,-4.329,-4.363,-4.4662,-4.4812,-4.529,-4.6759,-4.6554,-4.6739,-4.7974,-4.845,-4.8887,-4.9442,-4.9492,-4.9592,-4.9765,-4.9779,-4.9543,-4.9018,-4.9001,0.0,-4.9001,-4.9001,-4.9001,-4.9001,-4.9001,0.0,0.0,0.0,0.0,0.0,-4.5128,-4.5382,-4.5399,-4.5923,-4.6278,-4.6481,-4.6481,-4.6599,-4.6769,-4.6549,-4.6481,-4.6447,-4.6227,-4.6143,-4.6058,-4.5551,-4.572,-4.6143,-4.6143,-4.5788,-4.5382,-4.5382,-4.4993,-4.4615,-4.4615,-4.4615,-4.4615,-4.4615,-4.4615,-4.4615,-4.4615,-4.4615,-4.4615,-4.4615,-4.4615,-4.4615,-4.4615,-4.4615,-4.4615,-4.4615,0.0,0.0,0.0,-4.4615,0.0,0.0,-4.4224,-4.4224,-4.4224,-4.3426,0.0,0.0,0.0,0.0,0.0,0.0,0.0,0.0,0.0,0.0,0.0,-4.4167,-4.4615,-4.4615,-4.4615,-4.4615,-4.4615,-4.4615,-4.4615,-4.4615,-4.4615,-4.4135,-4.3319,-4.3112,-4.236,-4.1325,-4.061,-3.9782,-3.8962,-3.8486,-3.7934,-3.7404,-4.329,-4.329,-4.329,-4.329,-4.329,-4.363,-4.4662,-4.4812,-4.572,-4.8323,-4.805,-4.7572,-4.7622,-4.9086,-4.9782,-4.9055,-4.9004,-4.9018,-4.9018,-4.9018,-4.9018,0.0,0.0,-4.9001,-4.9001,-4.9001,-4.9001,-4.9001,0.0,0.0,-4.6752,0.0,-4.4632,-4.4615,-4.4615,-4.4615,-4.4615,-4.4632,-4.5043,-4.572,-4.572,-4.616,-4.6718,-4.5991,-4.572,-4.5618,-4.4902,-4.4632,-4.4632,-4.4632,-4.4632,-4.4632,-4.4632,-4.4632,-4.4615,-4.4615,-4.4615,-4.4615,-4.4615,-4.4615,-4.4615,-4.4615,-4.4615,-4.4615,-4.4615,-4.4615,-4.4615,-4.4615,-4.4615,-4.4615,-4.4615,-4.4615,-4.4615,-4.4615,0.0,0.0,0.0,0.0,0.0,-4.3413,-4.3306,-4.3306,-4.3306,-4.252,0.0,0.0,0.0,0.0,0.0,0.0,0.0,-4.3276,-4.3306,0.0,-4.3306,-4.4167,-4.4615,-4.4615,-4.4615,-4.4615,-4.4615,-4.4615,-4.4615,-4.4615,-4.4615,-4.413,-4.3337,-4.2625,-4.1376,-3.9841,-3.9045,-3.82,-3.7419,-3.7404,-3.7404,-3.7404,-4.3433,-4.4365,-4.5085,-4.4434,-4.484,-4.5602,-4.6574,-4.6712,-4.7015,-4.7835,-4.8294,-4.8289,-4.7655,-4.8651,-4.9255,0.0,-4.9001,-4.9001,0.0,-4.9001,-4.9001,-4.9001,-4.9001,-4.9001,-4.9001,-4.9001,-4.9001,-4.9001,0.0,0.0,0.0,-4.5309,-4.4615,-4.4615,-4.4615,-4.4615,-4.4615,-4.4615,-4.475,-4.4942,-4.4942,-4.5077,-4.5275,-4.5055,-4.4942,-4.4936,-4.4682,-4.4615,-4.4615,-4.4615,-4.4615,-4.4615,-4.4615,-4.4615,-4.4615,-4.4615,-4.4615,-4.4615,-4.4615,-4.4615,-4.4615,-4.4615,-4.4615,-4.4615,-4.4615,-4.4615,-4.4615,-4.4615,-4.4615,-4.4615,-4.4615,-4.4615,-4.4615,-4.4615,-4.4615,0.0,0.0,0.0,-4.4514,-4.4224,-4.4196,-4.4196,-4.4196,-4.3931,0.0,0.0,0.0,0.0,0.0,0.0,0.0,0.0,-4.3591,0.0,-4.3306,-4.4167,-4.4615,-4.4615,-4.4615,-4.4615,-4.4615,-4.4615,-4.4615,-4.4581,-4.4012,-4.3029,-4.1722,-4.0978,-3.9676,-3.8139,-3.7463,-3.7029,-3.6731,-3.6267,-3.6103,-3.6103,-4.3927,-4.4856,-4.5597,-4.5358,-4.5798,-4.6539,-4.744,-4.7589,-4.7737,-4.808,-4.8656,-4.8798,-4.8193,-4.8656,0.0,-4.9001,-4.9001,-4.9001,-4.9001,-4.9001,-4.9001,-4.9001,-4.9001,-4.9001,-4.9001,-4.9001,0.0,-4.9001,-4.8443,-4.7564,-4.6363,-4.5173,-4.4615,-4.4615,-4.4615,-4.4615,-4.4615,-4.4615,-4.4615,-4.4615,-4.4615,-4.4615,-4.4615,-4.4615,-4.4615,-4.4615,-4.4615,-4.4615,-4.4615,-4.4615,-4.4615,-4.4615,-4.4615,-4.4615,-4.4615,-4.4615,-4.4615,-4.4615,-4.4615,-4.4615,-4.4615,-4.4615,-4.4615,-4.4615,-4.4615,-4.4615,-4.4615,-4.4615,-4.4615,-4.4615,-4.4615,-4.4615,-4.4615,-4.4615,-4.4615,-4.4615,-4.4615,0.0,0.0,0.0,0.0,0.0,0.0,-4.4412,-4.4479,0.0,0.0,0.0,0.0,0.0,0.0,-4.3031,-4.4018,0.0,-4.3785,-4.4327,-4.4615,-4.4615,-4.4282,-4.4147,-4.413,-4.387,-4.3597,-4.3311,-4.278,-4.1684,-4.0156,-3.9403,-3.8293,-3.7028,-3.6385,-3.6118,-3.6073,-3.5654,-3.5504,-3.5504,-4.4721,-4.4946,-4.5264,0.0,-4.6349,0.0,-4.7556,-4.7688,-4.8015,-4.8892,-4.9001,-4.9001,-4.9001,-4.9001,-4.9001,-4.9001,0.0,0.0,0.0,-4.9001,-4.9001,-4.9001,-4.9001,-4.9001,-4.9001,-4.9001,-4.8984,-4.8934,-4.7496,-4.6413,-4.5686,-4.4942,-4.4615,-4.4615,-4.4615,-4.4615,-4.4615,-4.4615,-4.4615,-4.4615,-4.4615,-4.4615,-4.4615,-4.4615,-4.4615,-4.4615,-4.4615,-4.4615,-4.4615,-4.4615,-4.4615,-4.4615,-4.4615,-4.4615,-4.4615,-4.4615,-4.4615,-4.4615,-4.4615,-4.4615,-4.4615,-4.4615,-4.4615,-4.4615,-4.4615,-4.4615,-4.4615,-4.4615,-4.4615,-4.4615,-4.4615,-4.4615,-4.4615,-4.4615,-4.4615,-4.4615,-4.4615,0.0,0.0,0.0,0.0,0.0,0.0,-4.4054,-4.4181,0.0,0.0,0.0,0.0,0.0,-4.4445,-4.4445,-4.4445,-4.4445,-4.4445,-4.4445,-4.4445,-4.4445,-4.369,-4.3308,-4.3236,-4.2581,-4.1875,-4.1115,-4.1168,-4.0295,-3.877,-3.8012,-3.7251,-3.6477,-3.575,-3.5504,-3.5504,-3.5504,-3.5504,-3.5504,0.0,0.0,-4.7002,-4.7239,-4.7868,-4.8401,-4.8639,-4.8688,-4.875,-4.897,-4.9001,-4.9001,-4.9001,-4.9001,-4.9001,-4.9001,-4.9001,-4.9001,-4.9001,-4.9001,-4.9001,-4.9001,-4.9001,-4.9001,-4.9001,-4.9001,-4.8731,-4.8173,-4.7242,-4.6413,-4.5686,-4.4942,-4.4615,-4.4615,-4.4615,-4.4615,-4.4615,-4.4615,-4.4615,-4.4615,-4.4615,-4.4615,-4.4615,-4.4615,-4.4615,-4.4615,-4.4615,-4.4615,-4.4615,-4.4615,-4.4615,-4.4615,-4.4615,-4.4615,-4.4615,-4.4615,-4.4615,-4.4615,-4.4615,-4.4615,-4.4615,-4.4615,-4.4615,-4.4615,-4.4615,-4.4615,-4.4615,-4.4615,-4.4615,-4.4615,-4.4615,-4.4615,-4.4615,-4.4615,-4.4615,-4.4615,-4.4615,-4.4615,0.0,0.0,-4.4468,-4.4277,-4.3474,-4.3563,-4.3369,0.0,0.0,0.0,0.0,-4.2642,-4.2828,-4.2828,-4.2828,-4.2828,-4.2828,-4.2828,-4.2828,-4.2828,-4.2642,-4.227,-4.1737,-4.2112,-4.1566,-4.0318,-4.0928,-3.998,-3.7966,-3.7826,-3.6969,-3.575,-3.5554,-3.5504,-3.5504,-3.5504,-3.5504,-3.5504,-4.6678,-4.7239,-4.7737,-4.8161,-4.8656,-4.9001,-4.9001,-4.9001,-4.9001,-4.9001,-4.9001,-4.9001,-4.9001,-4.9001,-4.9001,-4.9001,-4.9001,-4.9001,-4.9001,-4.9001,-4.9001,-4.9001,-4.9001,-4.9001,-4.9001,-4.9001,-4.8477,-4.7411,-4.6667,-4.5923,-4.5179,-4.4801,-4.4615,-4.4615,-4.4615,-4.4615,-4.4615,-4.4615,-4.4615,-4.4615,-4.4615,-4.4615,-4.4615,-4.4615,-4.4615,-4.4615,-4.4615,-4.4615,-4.4615,-4.4615,-4.4615,-4.4615,-4.4615,-4.4615,-4.4615,-4.4615,-4.4615,-4.4615,-4.4615,-4.4615,-4.4615,-4.4615,-4.4615,-4.4615,-4.4615,-4.4615,-4.4615,-4.4615,-4.4615,-4.4615,-4.4615,-4.4615,-4.4615,-4.4615,-4.4615,-4.4615,-4.4615,-4.4615,0.0,-4.4096,-4.4045,-4.3758,-4.298,-4.2912,-4.2591,-4.1847,-4.1796,0.0,-4.1314,-4.1271,-4.1593,-4.2269,-4.2286,-4.2286,-4.2286,-4.2286,-4.2286,-4.2286,-4.1948,-4.1593,-4.1209,-4.1266,-4.0648,-3.9536,-3.9972,-3.9039,-3.7204,-3.7257,-3.6569,-3.5504,-3.5504,-3.5504,-3.5504,-3.5504,-3.5504,-3.5504,-4.7457,-4.7688,-4.7917,-4.8829,-4.9001,-4.9001,-4.9001,-4.9001,-4.9001,-4.9001,-4.9001,-4.9001,-4.9001,-4.9001,-4.9001,-4.9001,-4.9001,-4.9001,-4.9001,-4.9001,-4.9001,-4.9001,-4.9001,-4.9001,-4.9001,-4.89,-4.8105,-4.6616,-4.6007,-4.5314,-4.4615,-4.4615,-4.4615,-4.4615,-4.4615,-4.4615,-4.4615,-4.4615,-4.4615,-4.4615,-4.4615,-4.4615,-4.4615,-4.4615,-4.4615,-4.4615,-4.4615,-4.4615,-4.4615,-4.4615,-4.4615,-4.4615,-4.4615,-4.4615,-4.4615,-4.4615,-4.4615,-4.4615,-4.4615,-4.4615,-4.4615,-4.4615,-4.4615,-4.4615,-4.4615,-4.4615,-4.4615,-4.4615,-4.4615,-4.4615,-4.4615,-4.4615,-4.4615,-4.4615,-4.4615,-4.4564,-4.4445,0.0,-4.4113,-4.3335,-4.325,-4.2946,-4.2202,-4.2117,-4.183,-4.1085,-4.1035,-4.0747,-4.013,-4.0096,-4.0671,-4.1914,-4.1974,-4.1974,-4.1974,-4.1974,-4.1974,-4.1948,-4.1322,-4.0966,-4.0845,-4.0333,-3.9516,-3.8564,-3.8799,-3.7958,-3.6446,-3.6554,-3.6165,-3.5504,-3.5504,-3.5504,-3.5504,-3.5504,-3.5504,-3.5504,-4.8459,-4.8144,-4.7917,-4.8829,-4.9001,-4.9001,-4.9001,-4.9001,-4.9001,-4.9001,-4.9001,-4.9001,-4.9001,-4.9001,-4.9001,-4.9001,-4.9001,-4.9001,-4.9001,-4.9001,-4.9001,-4.9001,-4.9001,-4.9001,-4.9001,-4.8409,-4.7361,-4.5872,-4.5771,-4.5314,-4.4615,-4.4615,-4.4615,-4.4615,-4.4615,-4.4615,-4.4615,-4.4615,-4.4615,-4.4615,-4.4615,-4.4615,-4.4615,-4.4615,-4.4615,-4.4615,-4.4615,-4.4615,-4.4615,-4.4615,-4.4615,-4.4615,-4.4615,-4.4615,-4.4615,-4.4615,-4.4615,-4.4615,-4.4615,-4.4615,-4.4615,-4.4615,-4.4615,-4.4615,-4.4615,-4.4615,-4.4615,-4.4615,-4.4615,-4.4615,-4.4615,-4.4615,-4.4615,-4.4615,-4.4615,-4.435,-4.369,0.0,-4.3318,-4.2557,-4.2472,-4.2185,-4.1441,-4.1373,-4.1052,-4.0333,-4.0282,-4.0231,-4.0113,-4.0096,-4.0197,-4.0434,-4.0451,-4.0451,-4.0451,-4.0451,-4.0451,-4.0451,-4.0333,-3.9924,-3.9278,-3.9833,-3.8951,-3.7038,-3.8325,-3.7658,-3.5733,-3.6337,-3.6165,-3.5504,-3.5504,-3.5504,-3.5504,-3.5504,-3.5504,-3.5504,-4.8141,-4.8387,-4.8482,-4.8923,-4.9001,-4.9001,-4.9001,-4.9001,-4.9001,-4.9001,-4.9001,-4.9001,-4.9001,-4.9001,-4.9001,-4.9001,-4.9001,-4.9001,-4.9001,-4.9001,-4.9001,-4.9001,-4.8629,-4.8223,-4.7817,-4.7107,-4.6397,-4.5703,-4.5297,-4.4925,-4.4615,-4.4615,-4.4615,-4.4615,-4.4615,-4.4615,-4.4615,-4.4615,-4.4615,-4.4615,-4.4615,-4.4615,-4.4615,-4.4615,-4.4615,-4.4615,-4.4615,-4.4615,-4.4615,-4.4615,-4.4615,-4.4615,-4.4615,-4.4615,-4.4615,-4.4615,-4.4615,-4.4615,-4.4615,-4.4615,-4.4615,-4.4615,-4.4615,-4.4615,-4.4615,-4.4615,-4.4615,-4.4615,-4.4615,-4.4615,-4.4615,-4.4615,-4.4479,-4.4012,-4.3944,0.0,0.0,-4.2811,-4.254,-4.1796,-4.1711,-4.1407,-4.0679,-4.0595,-4.0485,-4.013,-4.0096,-4.0096,-4.0096,-4.0096,-4.0096,-4.0096,-4.0096,-4.0096,-4.0096,-4.0096,-4.0096,-4.0096,-4.0096,-3.9901,-3.9558,-3.9927,-3.9262,-3.7873,-3.8591,-3.7815,-3.6117,-3.6477,-3.6165,-3.5504,-3.5504,-3.5504,-3.5504,-3.5504,-3.5504,-3.5504,-4.7464,-4.824,-4.8748,-4.8748,-4.89,-4.9001,-4.9001,-4.9001,-4.9001,-4.9001,-4.9001,-4.8934,-4.8765,-4.8748,-4.868,-4.8511,-4.8494,-4.8494,-4.8494,-4.8494,-4.8578,-4.8748,-4.8054,-4.731,-4.6549,-4.5991,-4.5618,-4.5449,-4.4874,-4.4615,-4.4615,-4.4615,-4.4615,-4.4615,-4.4615,-4.4615,-4.4615,-4.4615,-4.4615,-4.4615,-4.4615,-4.4615,-4.4615,-4.4615,-4.4615,-4.4615,-4.4615,-4.4615,-4.4615,-4.4615,-4.4615,-4.4615,-4.4615,-4.4615,-4.4615,-4.4615,-4.4615,-4.4615,-4.4615,-4.4615,-4.4615,-4.4615,-4.4615,-4.4615,-4.4615,-4.4615,-4.4615,-4.4615,-4.4615,-4.4615,-4.4615,-4.4462,-4.4113,-4.3494,0.0,0.0,0.0,-4.2033,-4.1762,-4.1035,-4.0933,-4.0713,-4.0146,-4.0096,-4.0096,-4.0096,-4.0096,-4.0096,-4.0096,-4.0096,-4.0096,-4.0096,-4.0096,-4.0096,-4.0096,-4.0096,-4.0096,-4.0096,-4.0096,-4.0096,-4.0096,-4.0096,-3.9558,-3.8635,-3.8635,-3.7774,-3.6337,-3.6337,-3.6006,-3.5504,-3.5504,-3.5504,-3.5504,-3.5504,-3.5504,-3.5504,-4.6735,-4.7479,-4.7973,-4.7973,-4.8562,-4.9001,-4.9001,-4.9001,-4.9001,-4.9001,-4.9001,-4.8748,-4.8071,-4.7973,-4.7716,-4.7005,-4.6955,-4.6955,-4.6955,-4.6955,-4.7276,-4.7939,-4.7276,-4.6532,-4.5805,-4.5737,-4.5365,-4.4682,-4.4632,-4.4615,-4.4615,-4.4615,-4.4615,-4.4615,-4.4615,-4.4615,-4.4615,-4.4615,-4.4615,-4.4615,-4.4615,-4.4615,-4.4615,-4.4615,-4.4615,-4.4615,-4.4615,-4.4615,-4.4615,-4.4615,-4.4615,-4.4615,-4.4615,-4.4615,-4.4615,-4.4615,-4.4615,-4.4615,-4.4615,-4.4615,-4.4615,-4.4615,-4.4615,-4.4615,-4.4615,-4.4615,-4.4615,-4.4615,-4.4615,-4.4615,-4.4615,-4.3995,-4.346,-4.3392,0.0,0.0,-4.139,-4.1288,-4.1001,-4.0282,-4.018,-4.0163,-4.0113,-4.0096,-4.0096,-4.0096,-4.0096,-4.0096,-4.0096,-4.0096,-4.0096,-4.0096,-4.0096,-4.0096,-4.0096,-4.0096,-4.0096,-4.0096,-4.0096,-4.0096,-4.0096,-4.0096,-3.9279,-3.7892,-3.7892,-3.7011,-3.5587,-3.5587,-3.5554,-3.5504,-3.5504,-3.5504,-3.5504,-3.5504,-3.5504,-3.5504,-4.6058,-4.6718,-4.7225,-4.7225,-4.7445,-4.7631,-4.7631,-4.7631,-4.7631,-4.7631,-4.7631,-4.753,-4.7242,-4.7225,-4.7107,-4.6819,-4.6786,-4.6786,-4.6786,-4.6363,-4.6244,-4.6532,-4.6278,-4.5771,-4.5026,-4.501,-4.4874,-4.4615,-4.4615,-4.4615,-4.4615,-4.4615,-4.4615,-4.4615,-4.4615,-4.4615,-4.4615,-4.4615,-4.4615,-4.4615,-4.4615,-4.4615,-4.4615,-4.4615,-4.4615,-4.4615,-4.4615,-4.4615,-4.4615,-4.4615,-4.4615,-4.4615,-4.4615,-4.4615,-4.4615,-4.4615,-4.4615,-4.4615,-4.4615,-4.4615,-4.4615,-4.4615,-4.4615,-4.4615,-4.4615,-4.4615,-4.4479,-4.3961,-4.3859,-4.3724,-4.325,-4.2912,-4.2574,-4.2117,0.0,-4.1356,-4.0612,-4.051,-4.0417,-4.013,-4.0096,-4.0096,-4.0096,-4.0096,-4.0096,-4.0096,-4.0096,-4.0096,-4.0096,-4.0096,-4.0096,-4.0096,-4.0096,-4.0096,-4.0096,-4.0096,-4.0096,-4.0096,-4.0096,-3.9833,-3.9342,-3.9342,-3.8509,-3.707,-3.707,-3.6461,-3.5504,-3.5504,-3.5504,-3.5504,-3.5504,-3.5504,-3.5504,-3.5504,-3.5504,-3.5504,-4.5348,-4.594,-4.6447,-4.6447,-4.665,-4.6786,-4.6786,-4.6786,-4.6786,-4.6786,-4.6786,-4.6701,-4.6481,-4.6447,-4.6346,-4.6109,-4.6092,-4.6092,-4.6092,-4.5635,-4.5348,-4.5348,-4.5348,-4.5111,-4.4615,-4.4615,-4.4615,-4.4615,-4.4615,-4.4615,-4.4615,-4.4615,-4.4615,-4.4615,-4.4615,-4.4615,-4.4615,-4.4615,-4.4615,-4.4615,-4.4615,-4.4615,-4.4615,-4.4615,-4.4615,-4.4615,-4.4615,-4.4615,-4.4615,-4.4615,-4.4615,-4.4615,-4.4615,-4.4445,-4.4215,-4.4215,-4.4045,-4.3887,-4.3887,-4.3887,-4.4005,-4.4479,-4.4401,-4.4215,-4.4215,-4.4028,-4.3707,-4.3183,-4.3064,-4.2912,-4.2388,-4.21,-4.1779,-4.1288,-4.1018,-4.0679,-4.018,-4.0096,-4.0096,-4.0096,-4.0096,-4.0096,-4.0096,-4.0096,-4.0096,-4.0096,-4.0096,-4.0096,-4.0096,-4.0096,-4.0096,-4.0096,-4.0096,-4.0096,-4.0096,-4.0096,-4.0096,-4.0096,-4.0096,-3.9808,-3.9262,-3.9032,-3.8201,-3.6964,-3.6691,-3.6165,-3.5504,-3.5504,-3.5504,-3.5504,-3.5504,-3.5504,-3.5504,-3.5504,-3.5504,-3.5504,-4.4615,-4.5179,-4.5703,-4.5703,-4.6295,-4.6769,-4.6769,-4.6769,-4.6769,-4.6769,-4.6769,-4.6498,-4.5771,-4.5703,-4.5399,-4.4666,-4.4615,-4.4615,-4.4615,-4.4615,-4.4615,-4.4615,-4.4615,-4.4615,-4.4615,-4.4615,-4.4615,-4.4615,-4.4615,-4.4615,-4.4615,-4.4615,-4.4615,-4.4615,-4.4615,-4.4615,-4.4615,-4.4615,-4.4615,-4.4615,-4.4615,-4.4615,-4.4615,-4.4615,-4.4615,-4.4615,-4.4615,-4.4615,-4.4615,-4.4615,-4.4615,-4.4598,-4.4581,-4.4028,-4.3375,-4.3375,-4.2878,-4.2286,-4.2286,-4.2286,-4.2658,-4.4209,-4.3978,-4.3375,-4.3375,-4.2828,-4.2286,-4.2286,-4.2286,-4.2286,-4.2269,-4.1677,-4.1187,-4.1187,-4.0561,-4.0096,-4.0096,-4.0096,-4.0096,-4.0096,-4.0096,-4.0096,-4.0096,-4.0096,-4.0096,-4.0096,-4.0096,-4.0096,-4.0096,-4.0096,-4.0096,-4.0096,-4.0096,-4.0096,-4.0096,-4.0096,-4.0096,-4.0096,-4.0096,-4.007,-4.0045,-3.9262,-3.8469,-3.7735,-3.6934,-3.6165,-3.5504,-3.5504,-3.5504,-3.5489,-3.5489,-3.5489,-3.5489,-3.5489,-3.5489,-3.5489,-4.4615,-4.4784,-4.4925,-4.4925,-4.5122,-4.5275,-4.5275,-4.5275,-4.5275,-4.5275,-4.5275,-4.5173,-4.4942,-4.4925,-4.4852,-4.4632,-4.4615,-4.4615,-4.4615,-4.4615,-4.4615,-4.4615,-4.4615,-4.4615,-4.4615,-4.4615,-4.4615,-4.4615,-4.4615,-4.4615,-4.4615,-4.4615,-4.4615,-4.4615,-4.4615,-4.4615,-4.4615,-4.4615,-4.4615,-4.4615,-4.4615,-4.4615,-4.4615,-4.4615,-4.4615,-4.4615,-4.4615,-4.4615,-4.4615,-4.4615,-4.4215,-4.3673,-4.3132,-4.2811,-4.2625,-4.2625,-4.2472,-4.2286,-4.2286,-4.2286,-4.2405,-4.2861,-4.2811,-4.2625,-4.2625,-4.2455,-4.2151,-4.1627,-4.1525,-4.1373,-4.0857,-4.0587,-4.0434,-4.0434,-4.0248,-4.0096,-4.0096,-4.0096,-4.0096,-4.0096,-4.0096,-4.0096,-4.0096,-4.0096,-4.0096,-4.0096,-4.0096,-4.0096,-4.0096,-4.0096,-4.0096,-4.0096,-3.9605,-3.9326,-3.9326,-3.9842,-4.0096,-4.0096,-3.9516,-3.8978,-3.8458,-3.7658,-3.6889,-3.6164,-3.5926,-3.5701,-3.5504,-3.5504,-3.522,-3.4786,-3.4786,-3.4502,-3.4098,-3.4098,-3.4098,-3.4098,-4.4615,-4.4615,-4.4615,-4.4615,-4.4615,-4.4615,-4.4615,-4.4615,-4.4615,-4.4615,-4.4615,-4.4615,-4.4615,-4.4615,-4.4615,-4.4615,-4.4615,-4.4615,-4.4615,-4.4615,-4.4615,-4.4615,-4.4615,-4.4615,-4.4615,-4.4615,-4.4615,-4.4615,-4.4615,-4.4615,-4.4615,-4.4615,-4.4615,-4.4615,-4.4615,-4.4615,-4.4615,-4.4615,-4.4615,-4.4615,-4.4615,-4.4615,-4.4615,-4.4615,-4.4615,-4.4615,-4.4615,-4.4412,-4.413,-4.413,-4.3606,-4.2895,-4.2439,-4.21,-4.1863,-4.1863,-4.1644,-4.1424,-4.1424,-4.1424,-4.1424,-4.1424,-4.1644,-4.1863,-4.1863,-4.1627,-4.1288,-4.0849,-4.0747,-4.0629,-4.018,-4.0096,-4.0096,-4.0096,-4.0096,-4.0096,-4.0096,-4.0096,-4.0096,-4.0096,-4.0096,-4.0096,-4.0096,-4.0096,-4.0096,-4.0096,-4.0096,-4.0096,-4.0096,-3.9825,-3.9673,-3.9673,-3.8937,-3.8565,-3.8565,-3.9005,-3.9092,-3.8791,-3.8025,-3.7459,-3.6986,-3.6195,-3.5614,-3.5153,-3.4855,-3.4711,-3.4711,-3.4711,-3.4457,-3.4114,-3.4114,-3.3844,-3.3499,-3.3499,-3.3499,-3.3499,-4.4615,-4.4615,-4.4615,-4.4615,-4.4615,-4.4615,-4.4615,-4.4615,-4.4615,-4.4615,-4.4615,-4.4615,-4.4615,-4.4615,-4.4615,-4.4615,-4.4615,-4.4615,-4.4615,-4.4615,-4.4615,-4.4615,-4.4615,-4.4615,-4.4615,-4.4615,-4.4615,-4.4615,-4.4615,-4.4615,-4.4615,-4.4615,-4.4615,-4.4615,-4.4615,-4.4615,-4.4615,-4.4615,-4.4615,-4.4615,-4.4615,-4.4615,-4.4615,-4.4615,-4.4564,-4.4496,-4.4496,-4.3978,-4.3274,-4.3223,-4.276,-4.2185,-4.2117,-4.1644,-4.1102,-4.1102,-4.0612,-4.0096,-4.0096,-4.0096,-4.0096,-4.0096,-4.0595,-4.1102,-4.1102,-4.0578,-4.0096,-4.0096,-4.0096,-4.0096,-4.0096,-4.0096,-4.0096,-4.0096,-4.0096,-4.0096,-4.0096,-4.0096,-4.0096,-4.0096,-4.0096,-4.0096,-4.0096,-4.0096,-4.0096,-4.0096,-4.0045,-4.0011,-4.0011,-3.9317,-3.8903,-3.8903,-3.8193,-3.7804,-3.7804,-3.7672,-3.7366,-3.6902,-3.6214,-3.5894,-3.5868,-3.5115,-3.4776,-3.4747,-3.3955,-3.3576,-3.3576,-3.3515,-3.3455,-3.341,-3.341,-3.3365,-3.332,-3.332,-3.332,-3.332,-4.4615,-4.4615,-4.4615,-4.4615,-4.4615,-4.4615,-4.4615,-4.4615,-4.4615,-4.4615,-4.4615,-4.4615,-4.4615,-4.4615,-4.4615,-4.4615,-4.4615,-4.4615,-4.4615,-4.4615,-4.4615,-4.4615,-4.4615,-4.4615,-4.4615,-4.4615,-4.4615,-4.4615,-4.4615,-4.4615,-4.4615,-4.4615,-4.4615,-4.4615,-4.4615,-4.4615,-4.4615,-4.4615,-4.4615,-4.4615,-4.4615,-4.4615,-4.4615,-4.4615,-4.4198,-4.3673,-4.3673,-4.3183,-4.2439,-4.188,-4.1576,-4.1339,-4.0773,-4.0468,-4.035,-4.035,-4.0231,-4.0096,-4.0096,-4.0096,-4.0096,-4.0096,-4.0231,-4.035,-4.035,-4.0214,-4.0096,-4.0096,-4.0096,-4.0096,-4.0096,-4.0096,-4.0096,-4.0096,-4.0096,-4.0096,-4.0096,-4.0096,-4.0096,-4.0096,-4.0096,-4.0096,-4.0096,-4.0096,-4.0096,-4.0096,-3.9571,-3.9225,-3.9225,-3.8531,-3.8142,-3.8142,-3.7415,-3.7049,-3.7049,-3.5883,-3.6095,-3.7638,-3.6885,-3.6502,-3.6492,-3.5737,-3.5395,-3.5368,-3.4614,-3.4294,-3.4235,-3.3713,-3.3185,-3.2721,-3.2721,-3.2392,-3.1929,-3.1929,-3.1929,-3.1929,-4.4615,-4.4615,-4.4615,-4.4615,-4.4615,-4.4615,-4.4615,-4.4615,-4.4615,-4.4615,-4.4615,-4.4615,-4.4615,-4.4615,-4.4615,-4.4615,-4.4615,-4.4615,-4.4615,-4.4615,-4.4615,-4.4615,-4.4615,-4.4615,-4.4615,-4.4615,-4.4615,-4.4615,-4.4615,-4.4615,-4.4615,-4.4615,-4.4615,-4.4615,-4.4615,-4.4615,-4.4615,-4.4615,-4.4615,-4.4615,-4.4615,-4.4615,-4.4564,-4.4164,-4.3775,-4.3341,-4.3014,-4.2405,-4.166,-4.0916,-4.0679,-4.0595,-4.0231,-4.0096,-4.0096,-4.0096,-4.0096,-4.0096,-4.0096,-4.0096,-4.0096,-4.0096,-4.0096,-4.0096,-4.0096,-4.0096,-4.0096,-4.0096,-4.0096,-4.0096,-4.0096,-4.0096,-4.0096,-4.0096,-4.0096,-4.0096,-4.0096,-4.0096,-4.0096,-4.0096,-4.0096,-4.0096,-4.0096,-3.9791,-3.9588,-3.9588,-3.8886,-3.8481,-3.8481,-3.777,-3.7381,-3.7381,-3.662,-3.6231,-3.6231,-3.5455,-3.5499,-3.6308,-3.5579,-3.5053,-3.4712,-3.4343,-3.3975,-3.3612,-3.3242,-3.3069,-3.304,-3.269,-3.2333,-3.2019,-3.2019,-3.1809,-3.1511,-3.1511,-3.1511,-3.1511,-4.4615,-4.4615,-4.4615,-4.4615,-4.4615,-4.4615,-4.4615,-4.4615,-4.4615,-4.4615,-4.4615,-4.4615,-4.4615,-4.4615,-4.4615,-4.4615,-4.4615,-4.4615,-4.4615,-4.4615,-4.4615,-4.4615,-4.4615,-4.4615,-4.4615,-4.4615,-4.4615,-4.4615,-4.4615,-4.4615,-4.4615,-4.4615,-4.4615,-4.4615,-4.4615,-4.4615,-4.4615,-4.4615,-4.4615,-4.4598,-4.4462,-4.4384,-4.4327,-4.3521,-4.3122,-4.2936,-4.2337,-4.1644,-4.0916,-4.0316,-4.0096,-4.0096,-4.0096,-4.0096,-4.0096,-4.0096,-4.0096,-4.0096,-4.0096,-4.0096,-4.0096,-4.0096,-4.0096,-4.0096,-4.0096,-4.0096,-4.0096,-4.0096,-4.0096,-4.0096,-4.0096,-4.0096,-4.0096,-4.0096,-4.0096,-4.0096,-4.0096,-4.0096,-4.0096,-4.0096,-4.0096,-4.0045,-3.9926,-3.9343,-3.8937,-3.8819,-3.8125,-3.7719,-3.7719,-3.6992,-3.6586,-3.6586,-3.596,-3.56,-3.56,-3.56,-3.5316,-3.4759,-3.4227,-3.3598,-3.2949,-3.3066,-3.2734,-3.2005,-3.1923,-3.1781,-3.1697,-3.1553,-3.1511,-3.1511,-3.1511,-3.1511,-3.1511,-3.1511,-3.1511,-3.1511,-4.4615,-4.4615,-4.4615,-4.4615,-4.4615,-4.4615,-4.4615,-4.4615,-4.4615,-4.4615,-4.4615,-4.4615,-4.4615,-4.4615,-4.4615,-4.4615,-4.4615,-4.4615,-4.4615,-4.4615,-4.4615,-4.4615,-4.4615,-4.4615,-4.4615,-4.4615,-4.4615,-4.4615,-4.4615,-4.4615,-4.4615,-4.4615,-4.4615,-4.4615,-4.4615,-4.4615,-4.4615,-4.4615,-4.4615,-4.4547,-4.3842,-4.3572,-4.3487,-4.2726,-4.2049,-4.1491,-4.139,-4.0865,-4.0231,-4.013,-4.0096,-4.0096,-4.0096,-4.0096,-4.0096,-4.0096,-4.0096,-4.0096,-4.0096,-4.0096,-4.0096,-4.0096,-4.0096,-4.0096,-4.0096,-4.0096,-4.0096,-4.0096,-4.0096,-4.0096,-4.0096,-4.0096,-4.0096,-4.0096,-4.0096,-4.0096,-4.0096,-4.0096,-4.0096,-4.0096,-4.0096,-3.9859,-3.9191,-3.9056,-3.8734,-3.8108,-3.7364,-3.6948,-3.6948,-3.6197,-3.5752,-3.5752,-3.565,-3.56,-3.56,-3.56,-3.5538,-3.547,-3.5362,-3.4981,-3.4358,-3.4934,-3.4823,-3.4145,-3.3582,-3.2986,-3.241,-3.1768,-3.1511,-3.1511,-3.1511,-3.1511,-3.1511,-3.1511,-3.1511,-3.1511,-4.4615,-4.4615,-4.4615,-4.4615,-4.4615,-4.4615,-4.4615,-4.4615,-4.4615,-4.4615,-4.4615,-4.4615,-4.4615,-4.4615,-4.4615,-4.4615,-4.4615,-4.4615,-4.4615,-4.4615,-4.4615,-4.4615,-4.4615,-4.4615,-4.4615,-4.4615,-4.4615,-4.4615,-4.4615,-4.4615,-4.4615,-4.4615,-4.4615,-4.4615,-4.4615,-4.4615,-4.4581,-4.4113,-4.3927,-4.3859,-4.3098,-4.2794,-4.2709,-4.1965,-4.1474,-4.1153,-4.073,-4.0383,-4.0096,-4.0096,-4.0096,-4.0096,-4.0096,-4.0096,-4.0096,-4.0096,-4.0096,-4.0096,-4.0096,-4.0096,-4.0096,-4.0096,-4.0096,-4.0096,-4.0096,-4.0096,-4.0096,-4.0096,-4.0096,-4.0096,-4.0096,-4.0096,-4.0096,-4.0096,-4.0096,-4.0096,-4.0096,-4.0096,-3.996,-3.9537,-3.9503,-3.9191,-3.8464,-3.8007,-3.7642,-3.7297,-3.6569,-3.6129,-3.6129,-3.5785,-3.56,-3.56,-3.56,-3.56,-3.56,-3.56,-3.5207,-3.4496,-3.4871,-3.4688,-3.4062,-3.435,-3.3887,-3.2848,-3.2555,-3.2256,-3.1951,-3.164,-3.1511,-3.1511,-3.1511,-3.1511,-3.1511,-3.1511,-3.1511,-3.1511]},{"header":{"parameterUnit":"m.s-1","parameterCategory":1,"la1":30.6,"la2":28.766,"lo1":-90.7593,"lo2":-88.6598,"dy":0.0162,"dx":0.0183,"nx":116,"ny":114,"refTime":"2023-08-03T00:00:00:Z","depth":0,"parameterNumber":3,"parameterNumberName":"V-component_of_WINDS"},"data":[0.0,0.0,0.0,0.0,0.0,0.0,0.0,0.0,0.0,0.0,0.0,0.0,0.0,0.0,0.0,0.0,0.0,0.0,0.0,0.0,0.0,0.0,0.0,0.0,0.0,0.0,0.0,0.0,0.0,0.0,0.0,0.0,0.0,0.0,0.0,0.0,0.0,0.0,0.0,0.0,0.0,0.0,0.0,0.0,0.0,0.0,0.0,0.0,0.0,0.0,0.0,0.0,0.0,0.0,0.0,0.0,0.0,0.0,0.0,0.0,0.0,0.0,0.0,0.0,0.0,0.0,0.0,0.0,0.0,0.0,0.0,0.0,0.0,0.0,0.0,0.0,0.0,0.0,0.0,0.0,0.0,0.0,0.0,0.0,0.0,0.0,0.0,0.0,0.0,0.0,0.0,0.0,0.0,0.0,0.0,0.0,0.0,0.0,0.0,0.0,0.0,0.0,0.0,0.0,0.0,0.0,0.0,0.0,0.0,0.0,0.0,0.0,0.0,0.0,0.0,0.0,0.0,0.0,0.0,0.0,0.0,0.0,0.0,0.0,0.0,0.0,0.0,0.0,0.0,0.0,0.0,0.0,0.0,0.0,0.0,0.0,0.0,0.0,0.0,0.0,0.0,0.0,0.0,0.0,0.0,0.0,0.0,0.0,0.0,0.0,0.0,0.0,0.0,0.0,0.0,0.0,0.0,0.0,0.0,0.0,0.0,0.0,0.0,0.0,0.0,0.0,0.0,0.0,0.0,0.0,0.0,0.0,0.0,0.0,0.0,0.0,0.0,0.0,0.0,0.0,0.0,0.0,0.0,0.0,0.0,0.0,0.0,0.0,0.0,0.0,0.0,0.0,0.0,0.0,0.0,0.0,0.0,0.0,0.0,0.0,0.0,0.0,0.0,0.0,0.0,0.0,0.0,0.0,0.0,0.0,0.0,0.0,0.0,0.0,0.0,0.0,0.0,0.0,0.0,0.0,0.0,0.0,0.0,0.0,0.0,0.0,0.0,0.0,0.0,0.0,0.0,0.0,0.0,0.0,0.0,0.0,0.0,0.0,0.0,0.0,0.0,0.0,0.0,0.0,0.0,0.0,0.0,0.0,0.0,0.0,0.0,0.0,0.0,0.0,0.0,0.0,0.0,0.0,0.0,0.0,0.0,0.0,0.0,0.0,0.0,0.0,0.0,0.0,0.0,0.0,0.0,0.0,0.0,0.0,0.0,0.0,0.0,0.0,0.0,0.0,0.0,0.0,0.0,0.0,0.0,0.0,0.0,0.0,0.0,0.0,0.0,0.0,0.0,0.0,0.0,0.0,0.0,0.0,0.0,0.0,0.0,0.0,0.0,0.0,0.0,0.0,0.0,0.0,0.0,0.0,0.0,0.0,0.0,0.0,0.0,0.0,0.0,0.0,0.0,0.0,0.0,0.0,0.0,0.0,0.0,0.0,0.0,0.0,0.0,0.0,0.0,0.0,0.0,0.0,0.0,0.0,0.0,0.0,0.0,0.0,0.0,0.0,0.0,0.0,0.0,0.0,0.0,0.0,0.0,0.0,0.0,0.0,0.0,0.0,0.0,0.0,0.0,0.0,0.0,0.0,0.0,0.0,0.0,0.0,0.0,0.0,0.0,0.0,0.0,0.0,0.0,0.0,0.0,0.0,0.0,0.0,0.0,0.0,0.0,0.0,0.0,0.0,0.0,0.0,0.0,0.0,0.0,0.0,0.0,0.0,0.0,0.0,0.0,0.0,0.0,0.0,0.0,0.0,0.0,0.0,0.0,0.0,0.0,0.0,0.0,0.0,0.0,0.0,0.0,0.0,0.0,0.0,0.0,0.0,0.0,0.0,0.0,0.0,0.0,0.0,0.0,0.0,0.0,0.0,0.0,0.0,0.0,0.0,0.0,0.0,0.0,0.0,0.0,0.0,0.0,0.0,0.0,0.0,0.0,0.0,0.0,0.0,0.0,0.0,0.0,0.0,0.0,0.0,0.0,0.0,0.0,0.0,0.0,0.0,0.0,0.0,0.0,0.0,0.0,0.0,0.0,0.0,0.0,0.0,0.0,0.0,0.0,0.0,0.0,0.0,0.0,0.0,0.0,0.0,0.0,0.0,0.0,0.0,0.0,0.0,0.0,0.0,0.0,0.0,0.0,0.0,0.0,0.0,0.0,0.0,0.0,0.0,0.0,0.0,0.0,0.0,0.0,0.0,0.0,0.0,0.0,0.0,0.0,0.0,0.0,0.0,0.0,0.0,0.0,0.0,0.0,0.0,0.0,0.0,0.0,0.0,0.0,0.0,0.0,0.0,0.0,0.0,0.0,0.0,0.0,0.0,0.0,0.0,0.0,0.0,0.0,0.0,0.0,0.0,0.0,0.0,0.0,0.0,0.0,0.0,0.0,0.0,0.0,0.0,0.0,0.0,0.0,0.0,0.0,0.0,0.0,0.0,0.0,0.0,0.0,0.0,0.0,0.0,0.0,0.0,0.0,0.0,0.0,0.0,0.0,0.0,0.0,0.0,0.0,0.0,0.0,0.0,0.0,0.0,0.0,0.0,0.0,0.0,0.0,0.0,0.0,0.0,0.0,0.0,0.0,0.0,0.0,0.0,0.0,0.0,0.0,0.0,0.0,0.0,0.0,0.0,0.0,0.0,0.0,0.0,0.0,0.0,0.0,0.0,0.0,0.0,0.0,0.0,0.0,0.0,0.0,0.0,0.0,0.0,0.0,0.0,0.0,0.0,0.0,0.0,0.0,0.0,0.0,0.0,0.0,0.0,0.0,0.0,0.0,0.0,0.0,0.0,0.0,0.0,0.0,0.0,0.0,0.0,0.0,0.0,0.0,0.0,0.0,0.0,0.0,0.0,0.0,0.0,0.0,0.0,0.0,0.0,0.0,0.0,0.0,0.0,0.0,0.0,0.0,0.0,0.0,0.0,0.0,0.0,0.0,0.0,0.0,0.0,0.0,0.0,0.0,0.0,0.0,0.0,0.0,0.0,0.0,0.0,0.0,0.0,0.0,0.0,0.0,0.0,0.0,0.0,0.0,0.0,0.0,0.0,0.0,0.0,0.0,0.0,0.0,0.0,0.0,0.0,0.0,0.0,0.0,0.0,0.0,0.0,0.0,0.0,0.0,0.0,0.0,0.0,0.0,0.0,0.0,0.0,0.0,0.0,0.0,0.0,0.0,0.0,0.0,0.0,0.0,0.0,0.0,0.0,0.0,0.0,0.0,0.0,0.0,0.0,0.0,0.0,0.0,0.0,0.0,0.0,0.0,0.0,0.0,0.0,0.0,0.0,0.0,0.0,0.0,0.0,0.0,0.0,0.0,0.0,0.0,0.0,0.0,0.0,0.0,0.0,0.0,0.0,0.0,0.0,0.0,0.0,0.0,0.0,0.0,0.0,0.0,0.0,0.0,0.0,0.0,0.0,0.0,0.0,0.0,0.0,0.0,0.0,0.0,0.0,0.0,0.0,0.0,0.0,0.0,0.0,0.0,0.0,0.0,0.0,0.0,0.0,0.0,0.0,0.0,0.0,0.0,0.0,0.0,0.0,0.0,0.0,0.0,0.0,0.0,0.0,0.0,0.0,0.0,0.0,0.0,0.0,0.0,0.0,0.0,0.0,0.0,0.0,0.0,0.0,0.0,0.0,0.0,0.0,0.0,0.0,0.0,0.0,0.0,0.0,0.0,0.0,0.0,0.0,0.0,0.0,0.0,0.0,0.0,0.0,0.0,0.0,0.0,0.0,0.0,0.0,0.0,0.0,0.0,0.0,0.0,0.0,0.0,0.0,0.0,0.0,0.0,0.0,0.0,0.0,0.0,0.0,0.0,0.0,0.0,0.0,0.0,0.0,0.0,0.0,0.0,0.0,0.0,0.0,0.0,0.0,0.0,0.0,0.0,0.0,0.0,0.0,0.0,0.0,0.0,0.0,0.0,0.0,0.0,0.0,0.0,0.0,0.0,0.0,0.0,0.0,0.0,0.0,0.0,0.0,0.0,0.0,0.0,0.0,0.0,0.0,0.0,0.0,0.0,0.0,0.0,0.0,0.0,0.0,0.0,0.0,0.0,0.0,0.0,0.0,0.0,0.0,0.0,0.0,0.0,0.0,0.0,0.0,0.0,0.0,0.0,0.0,0.0,0.0,0.0,0.0,0.0,0.0,0.0,0.0,0.0,0.0,0.0,0.0,0.0,0.0,0.0,0.0,0.0,0.0,0.0,0.0,0.0,0.0,0.0,0.0,0.0,0.0,0.0,0.0,0.0,0.0,0.0,0.0,0.0,0.0,0.0,0.0,0.0,0.0,0.0,0.0,0.0,0.0,0.0,0.0,0.0,0.0,0.0,0.0,0.0,0.0,0.0,0.0,0.0,0.0,0.0,0.0,0.0,0.0,0.0,0.0,0.0,0.0,0.0,0.0,0.0,0.0,0.0,0.0,0.0,0.0,0.0,0.0,0.0,0.0,0.0,0.0,0.0,0.0,0.0,0.0,0.0,0.0,0.0,0.0,0.0,0.0,0.0,0.0,0.0,0.0,0.0,0.0,0.0,0.0,0.0,0.0,0.0,0.0,0.0,0.0,0.0,0.0,0.0,0.0,0.0,0.0,0.0,0.0,0.0,0.0,0.0,0.0,0.0,0.0,0.0,0.0,0.0,0.0,0.0,0.0,0.0,0.0,0.0,0.0,0.0,0.0,0.0,0.0,0.0,0.0,0.0,0.0,0.0,0.0,0.0,0.0,0.0,0.0,0.0,0.0,0.0,0.0,0.0,0.0,0.0,0.0,0.0,0.0,0.0,0.0,0.0,0.0,0.0,0.0,0.0,0.0,0.0,0.0,0.0,0.0,0.0,0.0,0.0,0.0,0.0,0.0,0.0,0.0,0.0,0.0,0.0,0.0,0.0,0.0,0.0,0.0,0.0,0.0,0.0,0.0,0.0,0.0,0.0,0.0,0.0,0.0,0.0,0.0,0.0,0.0,0.0,0.0,0.0,0.0,0.0,0.0,0.0,0.0,0.0,0.0,0.0,0.0,0.0,0.0,0.0,0.0,0.0,0.0,0.0,0.0,0.0,0.0,0.0,0.0,0.0,0.0,0.0,0.0,0.0,0.0,0.0,0.0,0.0,0.0,0.0,0.0,0.0,0.0,0.0,0.0,0.0,0.0,0.0,0.0,0.0,0.0,0.0,0.0,0.0,0.0,0.0,0.0,0.0,0.0,0.0,0.0,0.0,0.0,0.0,0.0,0.0,0.0,0.0,0.0,0.0,0.0,0.0,0.0,0.0,0.0,0.0,0.0,0.0,0.0,0.0,0.0,0.0,0.0,0.0,0.0,0.0,0.0,0.0,0.0,0.0,0.0,0.0,0.0,0.0,0.0,0.0,0.0,0.0,0.0,0.0,0.0,0.0,0.0,0.0,0.0,0.0,0.0,0.0,0.0,0.0,0.0,0.0,0.0,0.0,0.0,0.0,0.0,0.0,0.0,0.0,0.0,0.0,0.0,0.0,0.0,0.0,0.0,0.0,0.0,0.0,0.0,0.0,0.0,0.0,0.0,0.0,0.0,0.0,0.0,0.0,0.0,0.0,0.0,0.0,0.0,0.0,0.0,0.0,0.0,0.0,0.0,0.0,0.0,0.0,0.0,0.0,0.0,0.0,0.0,0.0,0.0,0.0,0.0,0.0,0.0,0.0,0.0,0.0,0.0,0.0,0.0,0.0,0.0,0.0,0.0,0.0,0.0,0.0,0.0,0.0,0.0,0.0,0.0,0.0,0.0,0.0,0.0,0.0,0.0,0.0,0.0,0.0,0.0,0.0,0.0,0.0,0.0,0.0,0.0,0.0,0.0,0.0,0.0,0.0,0.0,0.0,0.0,0.0,0.0,0.0,0.0,0.0,0.0,0.0,0.0,0.0,0.0,0.0,0.0,0.0,0.0,0.0,0.0,0.0,0.0,0.0,0.0,0.0,0.0,0.0,0.0,0.0,0.0,0.0,0.0,0.0,0.0,0.0,0.0,0.0,0.0,0.0,0.0,0.0,0.0,0.0,0.0,0.0,0.0,0.0,0.0,0.0,0.0,0.0,0.0,0.0,0.0,0.0,0.0,0.0,0.0,-1.9424,0.0,0.0,0.0,0.0,0.0,0.0,0.0,0.0,0.0,0.0,0.0,0.0,0.0,0.0,0.0,0.0,0.0,0.0,0.0,0.0,0.0,0.0,0.0,0.0,0.0,0.0,0.0,0.0,0.0,0.0,0.0,0.0,0.0,0.0,0.0,0.0,0.0,0.0,0.0,0.0,0.0,0.0,0.0,0.0,0.0,0.0,0.0,0.0,0.0,0.0,0.0,0.0,0.0,0.0,0.0,0.0,0.0,0.0,0.0,0.0,0.0,0.0,0.0,0.0,0.0,0.0,0.0,0.0,0.0,0.0,0.0,0.0,0.0,0.0,0.0,0.0,0.0,0.0,0.0,0.0,0.0,0.0,0.0,0.0,0.0,0.0,0.0,0.0,0.0,0.0,0.0,0.0,0.0,0.0,0.0,0.0,0.0,0.0,0.0,0.0,0.0,0.0,0.0,0.0,0.0,0.0,0.0,0.0,0.0,0.0,0.0,0.0,0.0,0.0,0.0,0.0,-1.9424,0.0,0.0,0.0,0.0,0.0,0.0,0.0,0.0,0.0,0.0,0.0,0.0,0.0,0.0,0.0,0.0,0.0,0.0,0.0,0.0,0.0,0.0,0.0,0.0,0.0,0.0,0.0,0.0,0.0,0.0,0.0,0.0,0.0,0.0,0.0,0.0,0.0,0.0,0.0,0.0,0.0,0.0,0.0,0.0,0.0,0.0,0.0,0.0,0.0,0.0,0.0,0.0,0.0,0.0,0.0,0.0,0.0,0.0,0.0,0.0,0.0,0.0,0.0,0.0,0.0,0.0,0.0,0.0,0.0,0.0,0.0,0.0,0.0,0.0,0.0,0.0,0.0,0.0,0.0,0.0,0.0,0.0,0.0,0.0,0.0,0.0,0.0,0.0,0.0,0.0,0.0,0.0,0.0,0.0,0.0,0.0,0.0,0.0,0.0,0.0,0.0,0.0,0.0,0.0,0.0,0.0,0.0,0.0,-1.9873,-1.9746,-1.9519,-1.9519,-1.9519,-1.9519,-1.9519,-1.9459,-1.9424,-1.9424,0.0,0.0,0.0,0.0,0.0,0.0,0.0,0.0,0.0,0.0,0.0,0.0,0.0,0.0,0.0,0.0,0.0,0.0,0.0,0.0,0.0,0.0,0.0,0.0,0.0,0.0,0.0,0.0,0.0,0.0,0.0,0.0,0.0,0.0,0.0,0.0,0.0,0.0,-0.1901,-0.2124,-0.2794,-0.3913,0.0,0.0,0.0,0.0,0.0,0.0,0.0,0.0,0.0,0.0,0.0,0.0,0.0,0.0,0.0,0.0,0.0,0.0,0.0,0.0,0.0,0.0,0.0,0.0,0.0,0.0,0.0,0.0,0.0,0.0,0.0,0.0,0.0,0.0,0.0,0.0,0.0,0.0,0.0,0.0,0.0,0.0,0.0,0.0,-1.0014,-1.0232,0.0,0.0,0.0,0.0,0.0,0.0,0.0,0.0,0.0,0.0,0.0,0.0,0.0,-1.6439,-1.8062,-1.8181,-1.8838,-2.0174,-2.0174,-2.0154,-2.0114,-2.0114,-2.0114,-2.0114,-2.0114,0.0,-1.9424,-1.9424,0.0,0.0,0.0,0.0,0.0,0.0,0.0,0.0,0.0,0.0,0.0,0.0,0.0,0.0,0.0,0.0,0.0,0.0,0.0,0.0,0.0,0.0,0.0,0.0,0.0,0.0,0.0,0.0,0.0,0.0,0.0,0.0,0.0,0.0,0.0,0.0,-0.2125,-0.2852,-0.3521,-0.4355,-0.5081,-0.5753,-0.6589,-0.6031,-0.447,-0.3799,0.0,0.0,0.0,0.0,0.0,0.0,0.0,0.0,0.0,0.0,0.0,0.0,0.0,0.0,0.0,0.0,0.0,0.0,0.0,0.0,0.0,0.0,0.0,0.0,0.0,0.0,0.0,0.0,0.0,0.0,0.0,0.0,0.0,0.0,0.0,0.0,0.0,0.0,0.0,-0.9692,-1.0232,-1.0382,-1.0399,-1.046,0.0,0.0,0.0,0.0,0.0,0.0,0.0,0.0,0.0,-1.7339,-1.7299,-1.8082,-1.9758,-1.9763,-1.994,-2.0481,-2.0481,-2.0394,-2.0173,-2.0173,-2.0173,-2.0173,-2.0173,-2.0087,-1.984,-1.9679,-1.9606,-1.9593,0.0,0.0,0.0,0.0,-2.2533,-2.2983,0.0,0.0,0.0,0.0,0.0,0.0,0.0,0.0,0.0,0.0,0.0,0.0,0.0,0.0,0.0,0.3249,0.0,0.0,0.0,0.0,0.0,0.0,0.0,0.0,0.0,0.0,0.0,0.0,-0.3911,-0.4693,-0.5085,-0.62,-0.6924,-0.7315,-0.8432,-0.7706,-0.5586,-0.525,-0.5085,0.0,0.0,0.0,0.0,0.0,0.0,0.0,0.0,0.0,0.0,0.0,0.0,0.0,0.0,0.0,0.0,0.0,0.0,0.0,0.0,0.0,0.0,0.0,0.0,0.0,0.0,0.0,0.0,0.0,0.0,0.0,0.0,0.0,0.0,0.0,0.0,0.0,0.0,-1.0334,-1.0388,-1.0531,-1.0551,-1.0595,0.0,0.0,0.0,0.0,0.0,0.0,-1.4553,-1.5459,-1.6915,-1.9191,-1.9261,-1.9946,-2.1336,-2.1329,-2.1223,-2.1009,-2.1009,-2.0895,-2.0681,-2.0681,-2.0681,-2.0681,-2.0601,-2.0568,-2.0535,-2.0094,-1.9913,-1.9887,-1.9673,-1.9879,-2.0443,-2.1897,-2.2684,-2.3416,0.0,0.0,0.0,0.0,0.0,0.0,0.0,0.0,0.0,0.0,0.0,0.0,0.0,0.0,0.0116,0.0225,0.0224,0.0168,0.0,0.0,0.0,0.0,0.0,0.0,0.0,0.0,0.0,-0.4359,-0.447,-0.5194,-0.6589,-0.6644,-0.7426,-0.8771,-0.8881,-0.8826,-0.8602,-0.7204,-0.6589,-0.6478,0.0,0.0,0.0,0.0,0.0,0.0,0.0,0.0,0.0,0.0,0.0,0.0,0.0,0.0,0.0,0.0,0.0,0.0,0.0,0.0,0.0,0.0,0.0,0.0,0.0,0.0,0.0,0.0,0.0,0.0,0.0,0.0,0.0,0.0,0.0,0.0,0.0,0.0,0.0,-1.069,-1.0707,0.0,0.0,0.0,0.0,-1.3062,-1.1699,-1.2997,-1.7988,-1.6759,-1.7579,-2.1323,-2.1459,-2.1599,-2.1937,-2.1944,-2.1937,-2.1917,-2.1917,-2.1911,-2.1897,-2.1897,-2.1897,-2.1884,-2.1668,-2.1554,-2.1487,-2.0561,-2.0153,-2.0153,-2.0194,-2.1131,-2.272,-2.4212,-2.5722,-2.7239,0.0,0.0,0.0,0.0,0.0,0.0,0.0,0.0,0.0,0.0,0.0,0.0,0.0,-0.1582,-0.1153,-0.0114,0.0,0.0,0.0,0.0,0.0,0.0,0.0,0.0,0.0,0.0,-0.5361,-0.5919,-0.6869,-0.7595,-0.8097,-0.8097,-0.838,-0.8885,-0.8885,-0.8885,-0.8881,-0.8322,-0.8097,-0.7986,-0.6533,-0.5027,0.0,0.0,0.0,0.0,0.0,0.0,0.0,0.0,0.0,0.0,0.0,0.0,0.0,0.0,0.0,0.0,0.0,0.0,0.0,0.0,0.0,0.0,0.0,0.0,0.0,0.0,0.0,0.0,0.0,0.0,0.0,0.0,0.0,0.0,0.0,0.0,0.0,-1.0714,-1.0721,0.0,-1.0721,-1.0721,-1.0982,-1.1567,-1.2088,-1.3765,-1.6977,-1.7636,-1.9137,-2.1758,-2.183,-2.1884,-2.1984,-2.1984,-2.1984,-2.1984,-2.1984,-2.1984,-2.1984,-2.1984,-2.1984,-2.1977,-2.1877,-2.183,-2.181,-2.149,-2.1029,-2.0501,-2.0307,-2.0591,-2.1414,-2.3975,-2.5252,-2.612,0.0,0.0,0.0,0.0,0.0,0.0,0.0,0.0,0.0,0.0,0.0,-0.5132,-0.3487,-0.3287,-0.2594,-0.0976,-0.0792,-0.0504,-0.0056,0.0,0.0,0.0,0.0,0.0,0.0,-0.5695,-0.6924,-0.7426,-0.8432,-0.8885,-0.8885,-0.8885,-0.8885,-0.8885,-0.8885,-0.8885,-0.8885,-0.8885,-0.8885,-0.8826,-0.782,-0.6533,-0.5139,0.0,0.0,0.0,0.0,0.0,0.0,0.0,0.0,0.0,0.0,0.0,0.0,0.0,0.0,0.0,0.0,0.0,0.0,0.0,0.0,0.0,0.0,0.0,0.0,0.0,0.0,0.0,0.0,0.0,0.0,0.0,0.0,0.0,0.0,0.0,-1.0721,-1.0721,-1.0721,-1.0721,-1.0721,-1.0721,-1.0937,-1.1581,-1.2761,-1.4615,-1.7217,-1.849,-2.0078,-2.2051,-2.2131,-2.2184,-2.2278,-2.2278,-2.2278,-2.2278,-2.2278,-2.2278,-2.2278,-2.2278,-2.2278,-2.2271,-2.2171,-2.2131,-2.2124,-2.2024,-2.1643,-2.1089,-2.0795,-2.1272,-2.2425,-2.4495,-2.5973,-2.7227,0.0,0.0,0.0,0.0,0.0,0.0,0.0,0.0,0.0,0.0,-0.8502,-0.6834,-0.5174,-0.4856,-0.4196,-0.2699,-0.237,-0.1622,-0.0168,-0.0112,0.0,0.0,0.0,0.0,-0.6644,-0.6758,-0.7482,-0.8885,-0.8885,-0.8885,-0.8885,-0.8885,-0.8885,-0.8892,-0.8892,-0.8892,-0.8892,-0.8892,-0.8888,-0.8885,-0.8885,-0.8042,-0.6702,0.0,0.0,0.0,0.0,0.0,0.0,0.0,0.0,0.0,0.0,0.0,0.0,0.0,0.0,0.0,0.0,0.0,0.0,0.0,0.0,0.0,0.0,0.0,0.0,0.0,0.0,0.0,0.0,0.0,0.0,0.0,0.0,0.0,-1.0721,-1.0721,-1.0721,-1.0721,-1.0721,-1.0721,-1.0727,-1.0727,-1.1445,-1.3269,-1.3612,-1.529,-1.8948,-1.9227,-2.0288,-2.2358,-2.2432,-2.2572,-2.2928,-2.2928,-2.2928,-2.2928,-2.2928,-2.2928,-2.2928,-2.2928,-2.2928,-2.2846,-2.2559,-2.2432,-2.2412,-2.2131,-2.2004,-2.1971,-2.1742,-2.3362,-2.5871,-2.6001,-2.8068,-3.0889,0.0,0.0,0.0,0.0,0.0,0.0,0.0,0.0,0.0,0.0,-1.0162,-0.8514,-0.6892,-0.6551,-0.5791,-0.4254,-0.3977,-0.3242,-0.1677,0.0,0.0,0.0,0.0,0.0,-0.67,-0.7762,-0.8491,-0.8885,-0.8885,-0.8885,-0.8885,-0.8885,-0.8994,-0.9093,-0.9093,-0.9093,-0.9093,-0.9093,-0.9032,-0.8885,-0.8885,-0.8042,-0.6702,0.0,0.0,0.0,0.0,0.0,0.0,0.0,0.0,0.0,0.0,0.0,0.0,0.0,0.0,0.0,0.0,0.0,0.0,0.0,0.0,0.0,0.0,0.0,0.0,0.0,0.0,0.0,0.0,0.0,0.0,0.0,0.0,-1.0721,-1.0721,-1.0721,-1.0721,-1.0721,-1.0721,-1.0765,-1.0806,-1.082,-1.1148,-1.1769,-1.1913,-1.3613,-1.7428,-1.7644,-1.9266,-2.2657,-2.2739,-2.2779,-2.2928,-2.2928,-2.2928,-2.2928,-2.2928,-2.2928,-2.2928,-2.2928,-2.2928,-2.2859,-2.2779,-2.2739,-2.2732,-2.2652,-2.2498,-2.2271,-2.1977,-2.2254,-2.3104,-2.5443,-2.824,-3.0889,0.0,0.0,0.0,0.0,0.0,0.0,0.0,0.0,0.0,0.0,-1.2213,-1.0472,-0.9485,-0.8641,-0.7498,-0.5864,-0.561,-0.4837,-0.3242,0.0,0.0,0.0,0.0,-0.698,-0.7595,-0.8436,-0.8885,-0.8885,-0.8885,-0.8885,-0.8885,-0.8998,-0.9072,-0.9214,-0.9275,-0.9306,-0.9306,-0.9306,-0.9164,-0.9028,-0.9028,-0.8484,-0.7595,-0.7595,-0.6728,-0.5535,-0.5585,-0.5285,-0.4817,-0.4882,0.0,0.0,0.0,0.0,0.0,0.0,0.0,0.0,0.0,0.0,0.0,0.0,0.0,0.0,0.0,0.0,0.0,0.0,0.0,0.0,0.0,0.0,0.0,0.0,-1.0721,-1.0721,-1.0721,-1.0721,-1.0744,-1.0809,-1.0749,-1.0877,-1.1023,-1.1036,-1.1101,-1.1246,-1.2762,-1.4626,-1.6976,-1.8578,-2.0523,-2.2853,-2.2928,-2.2928,-2.2928,-2.2928,-2.2928,-2.2928,-2.2928,-2.2928,-2.2928,-2.2928,-2.2928,-2.2928,-2.2928,-2.2928,-2.2928,-2.2928,-2.2759,0.0,0.0,0.0,0.0,0.0,-2.968,-3.1133,0.0,0.0,0.0,0.0,0.0,0.0,0.0,0.0,0.0,0.0,0.0,-1.2213,-1.2213,-1.064,-0.9015,-0.7529,-0.7224,-0.6532,0.0,0.0,0.0,-0.6869,-0.6924,-0.754,-0.8881,-0.8885,-0.8885,-0.8885,-0.8885,-0.8892,-0.8964,-0.9093,-0.9228,-0.9268,-0.9347,-0.9408,-0.9408,-0.9408,-0.9317,-0.9234,-0.9234,-0.9083,-0.8885,-0.8902,-0.8189,-0.715,-0.7176,-0.6443,-0.542,-0.5447,0.0,0.0,0.0,0.0,0.0,0.0,0.0,0.0,0.0,0.0,0.0,0.0,0.0,0.0,0.0,0.0,0.0,0.0,0.0,0.0,0.0,0.0,0.0,0.0,-1.0721,-1.0724,-1.0744,-1.0748,-1.0795,-1.0863,-1.0894,-1.1029,-1.1175,-1.1189,-1.1253,-1.1406,-1.4671,-1.6832,-1.7173,0.0,0.0,0.0,0.0,-2.2928,-2.2928,-2.2928,-2.2928,-2.2928,-2.2928,-2.2928,-2.2928,-2.2928,-2.2928,-2.2928,-2.2928,-2.2928,-2.2928,-2.2928,-2.2996,-2.3297,-2.4376,-2.5758,-2.7487,-3.0059,-3.1273,-3.1533,0.0,0.0,0.0,0.0,0.0,0.0,0.0,0.0,0.0,-1.7026,-1.4178,-1.2213,-1.2213,-1.064,-0.9476,-0.9146,-0.8903,-0.8576,0.0,0.0,-0.6924,-0.8432,-0.8491,-0.8605,-0.8881,-0.8885,-0.8885,-0.8885,-0.8885,-0.8998,-0.9169,-0.9197,-0.9344,-0.952,-0.9551,-0.9564,-0.9564,-0.9564,-0.9479,-0.9337,-0.9337,-0.9178,-0.8895,-0.9066,-0.8957,-0.878,-0.9017,-0.8881,-0.8685,-0.8817,-0.886,-0.8863,-0.883,0.0,0.0,0.0,0.0,0.0,0.0,0.0,0.0,0.0,0.0,0.0,0.0,0.0,0.0,0.0,0.0,0.0,0.0,0.0,0.0,-1.0721,-1.0721,-1.0765,-1.082,-1.0836,-1.0847,-1.0877,-1.105,-1.1182,-1.1335,-1.1348,-1.1409,-1.1562,-1.361,-1.5586,-1.7107,-1.9426,-2.1321,-2.2859,-2.2928,-2.2928,-2.2928,-2.2928,-2.2928,-2.2928,0.0,0.0,-2.2928,-2.2928,-2.2928,-2.2928,-2.2928,-2.2928,-2.2928,-2.2928,-2.3727,-2.4889,-2.3454,-2.4796,-2.7478,-2.7819,-2.9703,-3.1982,0.0,0.0,0.0,0.0,0.0,0.0,0.0,0.0,0.0,0.0,-1.6079,-1.4297,-1.3467,-1.1898,-1.0573,-0.9675,-0.9398,0.0,0.0,-0.843,-0.8357,-0.9101,-0.9161,-0.9161,-0.9161,-0.9161,-0.9161,-0.9161,-0.9161,-0.9198,-0.9326,-0.9347,-0.9462,-0.9612,-0.9683,-0.9717,-0.9717,-0.9717,-0.9632,-0.9496,-0.9496,-0.9361,-0.9167,-0.9239,-0.9313,-0.9401,-0.9554,-0.9656,-0.9727,-0.9795,-0.9822,-0.9822,-0.9822,-0.9265,-0.8787,0.0,0.0,0.0,0.0,0.0,0.0,0.0,0.0,0.0,0.0,0.0,0.0,0.0,0.0,-1.0721,0.0,0.0,-1.0721,-1.0721,-1.0785,-1.0793,-1.087,-1.1008,-1.1168,-1.1168,-1.1233,-1.1338,-1.1491,-1.1504,-1.1888,-1.2952,-1.4716,-1.6615,-1.8584,-2.0473,-2.1947,-2.2859,-2.2928,-2.2928,-2.2928,-2.2928,-2.2928,-2.2928,-2.2928,-2.2928,-2.2928,-2.2928,-2.2928,-2.2928,-2.2928,-2.2928,-2.2928,-2.2928,-2.3924,-2.5435,-2.4348,-2.6051,-2.9211,-2.9734,-3.1003,-3.2422,0.0,0.0,0.0,0.0,0.0,0.0,0.0,0.0,0.0,0.0,0.0,-1.6492,-1.5192,-1.3347,-1.1491,0.0,0.0,0.0,0.0,-0.9313,-0.9381,-0.9381,-0.9381,0.0,0.0,0.0,0.0,0.0,0.0,-0.9398,-0.9429,-0.9551,-0.9625,-0.9656,-0.9771,-0.9822,-0.9822,-0.9822,-0.9754,-0.9649,-0.9649,-0.9578,-0.9466,-0.9466,-0.9527,-0.9612,-0.9642,-0.9724,-0.9822,-0.9822,-0.9822,-0.9822,-0.9822,-0.9822,-0.9849,-0.9943,-1.0007,0.0,0.0,0.0,0.0,0.0,0.0,0.0,0.0,0.0,-1.0721,-1.0721,-1.0721,-1.0721,-1.0721,-1.0721,-1.0731,-1.0761,-1.0799,-1.09,-1.0958,-1.124,-1.1402,-1.1433,-1.1436,-1.1484,-1.1606,-1.19,-1.2745,-1.429,-1.6474,-1.8444,-1.9987,-2.1878,-2.2928,-2.2928,-2.2928,-2.2928,-2.2928,-2.2928,-2.2928,-2.2928,-2.2928,-2.2928,-2.2928,-2.2928,-2.2928,-2.2928,-2.2928,-2.2928,-2.2928,-2.2928,-2.3924,-2.551,-2.5912,-2.7949,-3.0928,-3.1986,-3.2651,-3.2861,0.0,0.0,0.0,0.0,0.0,0.0,0.0,0.0,0.0,0.0,0.0,0.0,0.0,0.0,0.0,0.0,0.0,0.0,0.0,0.0,0.0,0.0,0.0,0.0,0.0,0.0,0.0,0.0,0.0,0.0,0.0,-0.9602,-0.9676,-0.9798,-0.9815,-0.9822,-0.9822,-0.9822,-0.9812,-0.9798,-0.9798,-0.9788,-0.9771,-0.9771,-0.9703,-0.9625,-0.9751,-0.9805,-0.9822,-0.9822,-0.9822,-0.9822,-0.9822,-0.9822,-0.9849,-0.9943,0.0,-1.029,-1.0449,-1.0592,-1.07,-1.0717,-1.0721,-1.0721,0.0,0.0,-1.0721,-1.0721,-1.0721,-1.0721,-1.0721,-1.0721,-1.0765,-1.0833,-1.087,-1.0971,-1.1304,-1.1369,-1.1443,-1.1575,-1.1592,-1.1599,-1.1616,-1.3099,-1.4148,-1.4357,-1.7734,-1.9843,-2.0057,-2.1878,-2.2928,-2.2928,-2.2928,-2.2928,-2.2928,-2.2928,-2.2928,-2.2928,-2.2928,-2.2928,-2.2928,-2.2928,-2.2928,-2.2928,-2.2928,-2.2928,-2.2928,-2.2928,-2.3924,-2.5644,-2.7238,-2.9083,-3.0836,-3.0992,-3.2025,-3.3291,0.0,0.0,0.0,0.0,0.0,0.0,0.0,0.0,0.0,0.0,0.0,0.0,0.0,0.0,0.0,0.0,0.0,0.0,0.0,0.0,0.0,0.0,0.0,0.0,0.0,0.0,0.0,0.0,0.0,0.0,0.0,0.0,0.0,-0.9822,-0.9822,-0.9822,-0.9822,-0.9822,-0.9822,-0.9822,-0.9822,-0.9822,-0.9822,-0.9822,-0.9785,-0.9741,-0.9798,-0.9822,0.0,0.0,-0.9822,-0.9822,-0.9822,-0.9883,-0.9923,-1.0137,-1.029,0.0,-1.0585,-1.067,-1.0721,-1.0721,-1.0721,-1.0721,-1.0721,-1.0721,-1.0721,-1.0721,-1.0721,-1.0721,-1.0721,-1.1711,-1.2523,0.0,-1.365,-1.4117,-1.3165,-1.3064,-1.2738,-1.1753,-1.2534,-1.2817,-1.1688,-1.2323,-1.3238,-1.429,-1.6896,-1.8932,-2.0057,-2.1878,-2.2928,-2.2928,-2.2928,-2.2928,-2.2928,-2.2928,-2.2928,-2.2928,-2.2928,-2.2928,-2.2928,-2.2928,-2.2928,-2.2928,-2.2928,-2.2928,-2.2928,-2.2928,-2.4527,-2.7179,-2.7908,-2.9874,-3.2292,-3.2292,-3.2756,-3.3398,0.0,0.0,0.0,0.0,0.0,0.0,0.0,0.0,0.0,0.0,0.0,0.0,0.0,0.0,0.0,0.0,0.0,0.0,0.0,0.0,0.0,0.0,0.0,0.0,0.0,0.0,0.0,0.0,0.0,0.0,0.0,0.0,0.0,0.0,-0.9822,-0.9822,-0.9822,-0.9822,-0.9822,-0.9822,-0.9822,-0.9822,-0.9822,-0.9822,-0.9822,-0.9822,-0.9822,-0.9822,0.0,0.0,-0.9822,-0.9829,-0.9869,-0.9899,-1.0024,-1.0283,-1.0439,-1.0578,-1.069,-1.0721,-1.0721,-1.0721,-1.0721,-1.0721,-1.0721,-1.0721,-1.085,-1.1306,-1.1439,-1.1567,-1.2022,-1.341,-1.4548,-1.4535,-1.5506,-1.5967,-1.512,-1.4696,-1.4081,-1.3242,-1.4365,-1.4436,-1.2534,-1.2817,-1.3737,-1.5066,-1.6896,-1.8863,-2.0756,-2.216,-2.2928,-2.2928,-2.2928,-2.2928,-2.2928,-2.2928,-2.2928,-2.2928,-2.2928,-2.2928,-2.2928,-2.2928,-2.2928,-2.2928,-2.2928,-2.2928,-2.2928,-2.2928,-2.4986,-2.8172,-2.8172,-3.0337,-3.3418,-3.3418,-3.3418,-3.3418,0.0,0.0,0.0,0.0,0.0,0.0,0.0,0.0,0.0,0.0,0.0,0.0,0.0,0.0,0.0,0.0,0.0,0.0,0.0,0.0,0.0,0.0,0.0,0.0,0.0,0.0,0.0,0.0,0.0,0.0,0.0,0.0,0.0,0.0,0.0,-0.9822,-0.9822,-0.9822,-0.9822,-0.9822,-0.9822,-0.9822,-0.9822,-0.9822,-0.9822,-0.9822,-0.9822,0.0,0.0,0.0,-0.9822,-0.9846,-0.9933,-0.9984,0.0,-1.0399,-1.0595,-1.0714,-1.0717,-1.0721,-1.0721,-1.0721,-1.0721,-1.0721,-1.0721,-1.0721,-1.1178,-1.2869,-1.3193,-1.3713,-1.5399,-1.6035,-1.6389,-1.6473,-1.5257,-1.4976,-1.6857,-1.5557,-1.5066,-1.6831,-1.7112,-1.6409,0.0,-1.5981,-1.7042,-1.7112,-1.8932,-2.0825,-2.2722,-2.2859,-2.2928,-2.2928,-2.2928,-2.2928,-2.2928,-2.2928,-2.2928,-2.2928,-2.2928,-2.2928,-2.2928,-2.2928,-2.2928,-2.2928,-2.2928,-2.2928,-2.2928,-2.2928,-2.4986,-2.8172,-2.8172,-3.0337,-3.3418,-3.3418,-3.3418,-3.3418,0.0,0.0,0.0,0.0,0.0,0.0,0.0,0.0,0.0,0.0,0.0,0.0,0.0,0.0,0.0,0.0,0.0,0.0,0.0,0.0,0.0,0.0,0.0,0.0,0.0,0.0,0.0,0.0,0.0,0.0,0.0,0.0,0.0,0.0,0.0,0.0,-1.1318,-1.024,-0.9822,-0.9822,-0.9822,-0.9822,-0.9822,-0.9822,-0.9822,-0.9822,0.0,0.0,0.0,0.0,0.0,0.0,-0.994,-1.012,-1.0259,-1.0558,-1.1457,-1.2413,-1.2413,-1.3259,-1.4166,-1.4166,-1.4166,-1.4166,-1.4166,-1.4166,-1.4297,-1.4879,-1.5009,-1.5204,-1.5784,-1.727,-1.8439,-1.8457,-1.9288,-1.9738,-1.92,-1.8584,-1.7949,-1.7253,-1.8374,0.0,0.0,0.0,0.0,-1.542,-1.8299,-2.0409,-2.1038,-2.2229,-2.2928,-2.2928,-2.2928,-2.2928,-2.2928,-2.2928,-2.2928,-2.2928,-2.2928,-2.2928,-2.2928,-2.2928,-2.2928,-2.2928,-2.2928,-2.2928,-2.2996,-2.4121,-2.6046,-2.8303,-2.9474,-3.1378,-3.3418,-3.3418,-3.3418,-3.3418,0.0,0.0,0.0,0.0,0.0,0.0,0.0,0.0,0.0,0.0,0.0,0.0,0.0,0.0,0.0,0.0,0.0,0.0,0.0,0.0,0.0,0.0,0.0,0.0,0.0,0.0,0.0,0.0,0.0,0.0,0.0,0.0,0.0,0.0,0.0,0.0,0.0,-1.024,-0.9822,-0.9822,-0.9822,-0.9822,-0.9822,-0.9822,-0.9822,0.0,0.0,0.0,0.0,0.0,0.0,-0.9859,-1.0066,-1.0711,-1.1429,-1.1571,-1.2869,-1.4232,-1.4232,-1.5074,-1.5913,-1.5913,-1.5913,-1.5913,-1.5913,-1.5913,-1.6108,-1.6689,-1.6824,-1.7017,-1.7661,-1.9119,-2.0247,-2.034,-2.108,-2.1551,-2.1164,-2.0548,-1.9918,-1.9281,-2.0334,-2.0334,0.0,0.0,0.0,-1.661,-1.8718,-2.0409,-2.1038,-2.2229,-2.2928,-2.2928,-2.2928,-2.2928,-2.2928,-2.2928,-2.2928,-2.2928,-2.2928,-2.2928,-2.2928,-2.2928,-2.2928,-2.2928,-2.2928,-2.2928,-2.3065,-2.4783,-2.6581,-2.8361,-3.0125,-3.1899,-3.3418,-3.3418,-3.3418,-3.3418,0.0,0.0,0.0,0.0,0.0,0.0,0.0,0.0,0.0,0.0,0.0,0.0,0.0,0.0,0.0,0.0,0.0,0.0,0.0,0.0,0.0,0.0,0.0,0.0,-0.9822,-0.9822,-0.9822,-0.9822,0.0,0.0,0.0,0.0,0.0,0.0,0.0,0.0,0.0,-0.9819,-0.9822,-0.9822,-0.9822,-0.9822,-0.9822,-0.9822,0.0,0.0,0.0,0.0,0.0,0.0,0.0,-1.0134,-1.0437,-1.1884,-1.3451,-1.3451,-1.4684,-1.6048,-1.6058,-1.6118,-1.6177,-1.6188,-1.6183,-1.6172,-1.6172,-1.6172,-1.663,-1.8314,-1.8634,-1.9158,0.0,0.0,-2.1715,-2.1937,-2.0728,-2.0446,-2.2607,-2.139,-2.0894,0.0,0.0,0.0,0.0,0.0,0.0,-2.0409,0.0,-2.1038,-2.2791,-2.2928,-2.2928,-2.2928,-2.2928,-2.2928,-2.2928,-2.2928,-2.2928,-2.2928,-2.2928,-2.2928,-2.2928,-2.2928,-2.2928,-2.2928,-2.2928,-2.2928,-2.3065,-2.4851,-2.6639,-2.8369,-3.0189,-3.1963,-3.3418,-3.3418,-3.3418,-3.3418,0.0,0.0,0.0,0.0,0.0,0.0,0.0,0.0,0.0,0.0,0.0,0.0,0.0,0.0,0.0,0.0,0.0,0.0,0.0,0.0,0.0,0.0,0.0,0.0,0.0,-0.9822,-0.9822,-0.9822,0.0,0.0,0.0,0.0,0.0,0.0,0.0,0.0,0.0,0.0,-0.9822,-0.9822,0.0,-0.9822,-0.9822,0.0,0.0,0.0,0.0,0.0,0.0,0.0,0.0,0.0,-1.3978,-1.4607,-1.5269,-1.5269,-1.6501,-1.7899,-1.8151,-1.8981,-1.9858,-2.0065,-1.9958,-1.9744,-1.9744,-1.9744,-1.9871,-2.0329,-2.0456,-2.0589,0.0,0.0,0.0,-2.1937,-2.1818,0.0,-2.2819,-2.251,0.0,-2.2859,0.0,-2.2722,-2.2229,-2.2647,0.0,0.0,-2.216,-2.2372,-2.2859,-2.2928,-2.2928,-2.2928,-2.2928,-2.2928,-2.2928,-2.2928,-2.2928,-2.2928,-2.2928,-2.2928,-2.2928,-2.2928,-2.2928,-2.2928,-2.2928,-2.2928,-2.3126,-2.6247,-2.7776,-2.8501,-3.1579,-3.3019,-3.3418,-3.3418,-3.3418,-3.3379,0.0,0.0,0.0,0.0,0.0,0.0,0.0,0.0,0.0,0.0,0.0,0.0,0.0,0.0,0.0,0.0,0.0,0.0,0.0,0.0,0.0,0.0,0.0,0.0,0.0,0.0,0.0,0.0,0.0,0.0,0.0,0.0,0.0,0.0,0.0,0.0,0.0,0.0,0.0,0.0,0.0,0.0,0.0,0.0,0.0,0.0,0.0,0.0,0.0,0.0,0.0,-1.5328,-1.5425,-1.6207,-1.7017,-1.7017,0.0,-1.9892,-2.0113,-2.0793,-2.1503,-2.1608,-2.1494,-2.1269,-2.1136,-2.1109,-2.1109,-2.1109,-2.1109,0.0,-2.1109,-2.1243,0.0,0.0,0.0,0.0,-2.2625,-2.2779,-2.2928,0.0,-2.2928,0.0,-2.2928,-2.2928,-2.2928,0.0,-2.2928,-2.2928,-2.2928,-2.2928,-2.2928,-2.2928,-2.2928,-2.2928,-2.2928,-2.2928,-2.2928,-2.2928,-2.2928,-2.2928,-2.2928,-2.2928,-2.2928,-2.2928,0.0,-2.2928,-2.3201,-2.6714,-2.8172,-2.8567,-3.2036,-3.3418,-3.3418,-3.3418,-3.331,-3.3086,0.0,0.0,0.0,0.0,0.0,0.0,0.0,0.0,0.0,0.0,0.0,0.0,0.0,0.0,0.0,0.0,0.0,0.0,0.0,0.0,0.0,0.0,0.0,0.0,0.0,0.0,0.0,0.0,0.0,0.0,0.0,0.0,0.0,0.0,0.0,0.0,0.0,0.0,0.0,0.0,0.0,0.0,0.0,0.0,0.0,0.0,0.0,0.0,0.0,0.0,-1.6625,-1.5975,-1.6265,-1.7528,-1.8838,-1.8874,-2.0162,-2.1635,-2.1715,-2.1824,-2.1924,-2.1735,-2.1648,-2.1541,-2.1176,-2.1109,-2.1109,-2.1109,0.0,-2.1109,-2.1109,-2.1109,-2.1203,-2.1568,0.0,-2.2084,-2.2378,-2.2672,-2.2928,-2.2928,-2.2928,-2.2928,-2.2928,-2.2928,-2.2928,-2.2928,-2.2928,-2.2928,-2.2928,-2.2928,-2.2928,-2.2928,-2.2928,-2.2928,-2.2928,-2.2928,-2.2928,-2.2928,-2.2928,-2.2928,-2.2928,-2.2928,-2.2928,-2.2928,-2.2928,-2.2928,-2.3201,-2.6714,-2.8172,-2.8567,-3.2036,-3.3418,-3.3418,-3.3359,-3.3105,-3.2725,0.0,0.0,0.0,0.0,0.0,0.0,0.0,0.0,0.0,0.0,-2.6997,-2.5489,0.0,0.0,0.0,0.0,0.0,0.0,0.0,0.0,0.0,0.0,0.0,0.0,0.0,0.0,0.0,0.0,0.0,0.0,0.0,0.0,0.0,0.0,0.0,0.0,0.0,0.0,0.0,0.0,0.0,0.0,0.0,0.0,0.0,0.0,0.0,0.0,0.0,0.0,-1.7395,-1.9408,-1.9752,-2.0229,-2.0698,-2.1004,-2.131,-2.1722,-2.2138,-2.2131,-2.1977,-2.1924,-2.173,-2.1541,-2.1176,-2.1109,0.0,0.0,-2.1109,-2.1109,-2.1109,-2.1109,-2.1203,-2.1568,0.0,0.0,0.0,0.0,-2.2928,0.0,0.0,0.0,0.0,0.0,0.0,0.0,0.0,-2.2928,-2.2928,-2.2928,-2.2928,-2.2928,-2.2928,-2.2928,-2.2928,-2.2928,-2.2928,-2.2928,-2.2928,-2.2928,-2.2928,-2.2928,-2.2928,-2.2928,-2.2928,0.0,-2.3201,-2.6714,-2.8172,-2.8567,-3.2036,-3.3418,-3.3379,-3.3037,-3.2861,-3.2685,0.0,0.0,0.0,0.0,0.0,0.0,0.0,0.0,-2.9102,-2.8398,-2.7672,-2.6662,-2.5151,-2.3654,0.0,0.0,0.0,0.0,0.0,0.0,0.0,0.0,0.0,0.0,0.0,0.0,0.0,0.0,0.0,0.0,0.0,0.0,0.0,0.0,0.0,0.0,0.0,0.0,0.0,0.0,0.0,0.0,0.0,0.0,0.0,0.0,0.0,0.0,0.0,0.0,-1.8924,-2.0307,-2.0762,-2.0995,-2.1136,-2.1276,-2.1537,-2.1837,-2.2118,-2.2318,-2.2372,-2.2064,-2.1884,-2.1657,-2.1209,0.0,0.0,0.0,-2.1109,-2.1109,-2.1109,-2.1109,0.0,0.0,0.0,0.0,0.0,0.0,0.0,0.0,0.0,0.0,0.0,0.0,0.0,0.0,0.0,-2.2928,-2.2928,-2.2928,-2.2928,-2.2928,-2.2928,-2.2928,-2.2928,-2.2928,-2.2928,-2.2928,-2.2928,-2.2928,-2.2928,-2.2928,-2.2928,-2.2928,-2.2928,0.0,-2.3133,-2.5719,-2.737,-2.8435,-3.1047,-3.2495,-3.3066,-3.2871,-3.251,-3.207,0.0,0.0,0.0,0.0,0.0,0.0,0.0,-3.2091,-2.9911,-2.8847,-2.8495,-2.7843,-2.6717,-2.4931,-2.3207,0.0,0.0,0.0,0.0,0.0,0.0,0.0,0.0,0.0,0.0,0.0,0.0,0.0,0.0,0.0,0.0,0.0,0.0,0.0,0.0,0.0,0.0,0.0,0.0,0.0,0.0,0.0,0.0,0.0,0.0,0.0,0.0,0.0,0.0,0.0,-1.9871,-2.0327,-2.0848,-2.1056,-2.1122,-2.1189,-2.153,-2.1904,-2.1964,-2.2325,-2.2545,-2.2024,-2.1891,-2.1757,-2.1229,-2.1109,0.0,-2.1109,-2.1109,-2.1109,-2.1109,-2.1109,-2.1109,0.0,-2.1363,0.0,0.0,0.0,0.0,0.0,0.0,0.0,0.0,0.0,0.0,0.0,0.0,0.0,-2.2928,-2.2928,-2.2928,-2.2928,-2.2928,-2.2928,-2.2928,-2.2928,-2.2928,-2.2928,-2.2928,-2.2928,-2.2928,-2.2928,-2.2928,-2.2928,-2.2928,0.0,0.0,-2.4783,-2.6581,-2.8361,-3.0036,-3.1509,-3.2773,-3.2588,-3.21,-3.1504,0.0,0.0,0.0,0.0,0.0,0.0,0.0,-3.2701,-3.0266,-3.012,-2.9059,-2.8237,-2.8121,-2.5553,-2.3207,0.0,0.0,0.0,0.0,0.0,0.0,0.0,0.0,0.0,0.0,0.0,0.0,0.0,0.0,0.0,0.0,0.0,0.0,0.0,0.0,0.0,0.0,0.0,0.0,0.0,0.0,0.0,0.0,0.0,0.0,0.0,0.0,0.0,0.0,0.0,0.0,-2.0287,-2.0615,-2.0895,-2.1162,-2.1436,0.0,0.0,-2.1911,-2.2024,-2.1991,-2.1735,-2.1655,-2.1574,-2.1182,0.0,-2.1109,-2.1109,-2.1109,-2.1109,-2.1109,-2.1109,-2.1109,0.0,0.0,-2.1722,0.0,0.0,0.0,0.0,0.0,0.0,0.0,0.0,0.0,0.0,0.0,0.0,-2.2928,-2.2928,-2.2928,-2.2928,-2.2928,-2.2928,-2.2928,-2.2928,-2.2928,-2.2928,-2.2928,-2.2928,-2.2928,-2.2928,-2.2928,-2.2928,-2.2928,0.0,0.0,-2.4783,-2.6581,-2.8336,-2.9745,-3.133,-3.2705,-3.1924,-3.1592,-3.1465,0.0,0.0,0.0,0.0,0.0,0.0,-3.6099,-3.3419,-3.1224,-3.0421,-2.9154,-2.8291,-2.8291,-2.6445,-2.4599,0.0,0.0,0.0,0.0,0.0,0.0,0.0,0.0,0.0,0.0,0.0,0.0,0.0,0.0,0.0,0.0,0.0,0.0,0.0,0.0,0.0,0.0,0.0,0.0,0.0,0.0,0.0,0.0,0.0,0.0,0.0,0.0,0.0,0.0,0.0,0.0,0.0,-2.0581,-2.0875,0.0,0.0,-2.141,-2.1641,-2.1762,-2.185,-2.1917,-2.1688,-2.1614,-2.1541,-2.1176,0.0,-2.1109,-2.1109,-2.1109,-2.1109,-2.1109,-2.1109,-2.1109,0.0,0.0,0.0,0.0,0.0,0.0,0.0,0.0,0.0,0.0,0.0,0.0,0.0,0.0,0.0,-2.2928,-2.2928,-2.2928,-2.2928,-2.2928,-2.2928,-2.2928,-2.2928,-2.2928,-2.2928,-2.2928,-2.2928,-2.2928,-2.2928,-2.2928,-2.2928,-2.2928,0.0,0.0,-2.3659,-2.5464,-2.7825,-2.8387,-2.9977,-3.1982,-3.1641,-3.1357,-3.1123,0.0,0.0,0.0,0.0,0.0,-3.7693,-3.6731,-3.414,-3.1977,-3.103,-2.9355,-2.8291,-2.8291,-2.7384,-2.5936,-2.3989,0.0,0.0,0.0,0.0,0.0,0.0,0.0,0.0,0.0,0.0,-1.6915,-1.5311,-1.5311,0.0,0.0,0.0,0.0,0.0,0.0,0.0,0.0,0.0,0.0,0.0,0.0,0.0,0.0,0.0,0.0,0.0,0.0,0.0,0.0,0.0,0.0,0.0,0.0,0.0,0.0,0.0,-2.1256,-2.1423,-2.1423,-2.157,-2.1677,-2.1476,-2.1423,-2.137,0.0,0.0,-2.1109,-2.1109,-2.1109,-2.1109,-2.1109,-2.1109,-2.1109,0.0,0.0,-2.1216,0.0,0.0,0.0,0.0,0.0,-2.2766,0.0,-2.2928,-2.2928,0.0,0.0,0.0,-2.2928,-2.2928,-2.2928,-2.2928,-2.2928,-2.2928,-2.2928,-2.2928,-2.2928,-2.2928,-2.2928,-2.2928,-2.2928,-2.2928,-2.2928,-2.2928,-2.2928,0.0,0.0,-2.2766,-2.4648,-2.7473,-2.7251,-2.8942,-3.1504,-3.1377,-3.1143,-3.0889,0.0,0.0,0.0,0.0,0.0,0.0,0.0,-3.4754,-3.228,-3.228,-2.9964,-2.8291,-2.8291,-2.8291,-2.706,-2.4044,0.0,0.0,0.0,0.0,0.0,0.0,0.0,0.0,0.0,0.0,-1.8583,-1.6968,-1.6968,-1.6962,-1.7026,-1.7026,0.0,0.0,0.0,0.0,0.0,0.0,0.0,0.0,0.0,0.0,0.0,0.0,0.0,0.0,0.0,0.0,0.0,0.0,0.0,0.0,0.0,0.0,0.0,0.0,-2.1109,-2.1116,-2.1116,-2.1116,-2.1116,-2.1116,-2.1116,-2.1109,0.0,-2.1109,-2.1109,-2.1109,-2.1109,-2.1109,-2.1109,-2.1109,-2.1109,-2.1109,0.0,0.0,0.0,0.0,0.0,0.0,0.0,-2.2539,-2.2901,-2.2928,0.0,0.0,0.0,0.0,-2.2928,-2.2928,-2.2928,-2.2928,-2.2928,-2.2928,-2.2928,-2.2928,-2.2928,-2.2928,-2.2928,-2.2928,-2.2928,-2.2928,-2.2928,-2.2928,0.0,0.0,0.0,-2.2545,-2.4444,-2.7424,-2.6684,-2.8516,-3.1465,-3.1055,-3.0898,-3.0889,0.0,0.0,0.0,0.0,0.0,0.0,0.0,-3.4754,-3.228,-3.228,-2.9964,-2.8291,-2.8291,-2.8291,-2.7501,-2.5544,0.0,0.0,0.0,0.0,0.0,0.0,0.0,0.0,0.0,0.0,-1.9127,-1.8642,-1.8642,-1.8642,-1.8642,-1.8642,-1.8887,-1.9424,0.0,0.0,0.0,0.0,0.0,0.0,0.0,0.0,0.0,0.0,0.0,0.0,0.0,0.0,0.0,0.0,0.0,0.0,0.0,0.0,0.0,0.0,0.0,0.0,-2.1109,-2.1109,-2.1109,-2.1109,-2.1109,-2.1109,-2.1109,-2.1109,-2.1109,-2.1109,-2.1109,-2.1109,-2.1109,-2.1109,-2.1109,-2.1109,0.0,0.0,0.0,0.0,0.0,-2.1804,-2.2178,-2.2539,0.0,0.0,0.0,0.0,0.0,0.0,-2.2928,-2.2928,-2.2928,-2.2928,-2.2928,-2.2928,-2.2928,-2.2928,-2.2928,-2.2928,-2.2928,-2.2928,-2.2928,-2.2928,-2.2928,0.0,0.0,0.0,0.0,-2.3796,-2.529,-2.7151,-2.7847,-2.9351,-3.1074,-3.0947,-3.0889,-3.0889,0.0,0.0,0.0,0.0,0.0,0.0,0.0,-3.4636,-3.228,-3.228,-2.9964,-2.8291,-2.8291,-2.8291,-2.7726,-2.6209,0.0,0.0,0.0,0.0,0.0,0.0,0.0,0.0,0.0,-1.9424,-1.9424,-1.9424,-1.9424,-1.9424,-1.9424,-1.9424,-1.9424,-1.9424,-1.9424,0.0,0.0,0.0,0.0,0.0,0.0,0.0,-1.9424,0.0,0.0,0.0,0.0,0.0,0.0,0.0,0.0,0.0,0.0,0.0,0.0,0.0,-2.1109,-2.1109,0.0,-2.1109,-2.1109,-2.1109,-2.1109,0.0,-2.1109,-2.1109,-2.1109,-2.1109,-2.1109,-2.1109,-2.1109,-2.1109,-2.1109,-2.1109,0.0,0.0,0.0,0.0,0.0,-2.1601,0.0,0.0,0.0,0.0,0.0,0.0,0.0,0.0,-2.2928,-2.2928,-2.2928,-2.2928,-2.2928,-2.2928,-2.2928,-2.2928,-2.2928,-2.2928,-2.2928,-2.2928,-2.2928,-2.2928,-2.2928,0.0,0.0,0.0,0.0,-2.4136,-2.5484,-2.6835,-2.821,-2.9636,-3.0889,-3.0889,-3.0889,-3.0889,0.0,0.0,0.0,0.0,0.0,0.0,0.0,0.0,0.0,-3.228,-2.9964,-2.8291,-2.8291,-2.8291,-2.7726,-2.6381,0.0,0.0,0.0,0.0,0.0,0.0,0.0,0.0,0.0,-1.9424,-1.9424,-1.9424,-1.9424,-1.9424,-1.9424,-1.9424,-1.9424,-1.9424,-1.9424,0.0,0.0,0.0,0.0,0.0,0.0,0.0,0.0,0.0,0.0,0.0,0.0,0.0,0.0,0.0,0.0,0.0,0.0,0.0,0.0,0.0,0.0,0.0,0.0,-2.1355,-2.1229,0.0,0.0,0.0,-2.1109,-2.1109,0.0,-2.1109,-2.1109,-2.1109,-2.1109,-2.1109,-2.1109,-2.1109,0.0,0.0,0.0,-2.1109,0.0,0.0,-2.2031,0.0,-2.2385,0.0,0.0,0.0,0.0,0.0,-2.2867,-2.2867,-2.2867,-2.2867,-2.2867,-2.2887,-2.2928,-2.2928,-2.2928,-2.2928,-2.2928,-2.2928,-2.2928,-2.2928,-2.2921,0.0,0.0,0.0,0.0,-2.3934,-2.5255,-2.6533,-2.8022,-2.953,-3.0889,-3.0889,-3.0889,-3.0889,0.0,0.0,0.0,0.0,0.0,0.0,0.0,0.0,0.0,0.0,-2.9964,-2.8291,-2.8291,-2.8291,-2.8174,0.0,0.0,0.0,0.0,0.0,0.0,0.0,0.0,0.0,0.0,-1.9424,-1.9424,-1.9424,-1.9424,-1.9424,-1.9424,-1.9424,-1.9424,-1.9424,-1.9424,-1.9424,0.0,0.0,0.0,0.0,0.0,0.0,0.0,0.0,0.0,0.0,-1.9424,-1.9553,0.0,0.0,0.0,0.0,0.0,0.0,0.0,0.0,-2.3021,-2.3256,-2.4525,0.0,-2.2709,-2.1418,-2.2034,-2.2654,0.0,-2.1109,-2.1109,-2.1109,-2.1109,-2.1109,-2.1109,-2.1109,-2.1109,-2.1109,0.0,0.0,-2.1109,0.0,0.0,-2.1581,-2.1735,-2.1844,-2.2064,0.0,0.0,0.0,0.0,-2.2191,-2.2191,-2.2191,-2.2191,-2.2191,-2.2191,-2.2412,-2.2928,-2.2928,-2.2928,-2.2928,-2.2928,-2.2928,-2.2928,-2.2928,-2.2739,0.0,0.0,0.0,-2.2322,-2.4851,-2.6088,-2.6657,-2.9314,-3.0577,-3.0889,-3.0889,-3.0889,-3.0889,0.0,0.0,0.0,0.0,0.0,0.0,0.0,0.0,0.0,0.0,0.0,0.0,0.0,0.0,0.0,0.0,0.0,0.0,0.0,0.0,0.0,0.0,0.0,0.0,-1.9424,-1.9424,-1.9424,-1.9424,-1.9424,-1.9424,-1.9424,-1.9424,-1.9424,-1.9424,-1.9424,-1.9424,0.0,0.0,0.0,0.0,-1.9424,0.0,0.0,0.0,0.0,0.0,-1.9519,-1.9753,0.0,-2.0341,-2.0635,-2.1027,0.0,0.0,0.0,0.0,-2.4178,-2.3931,-2.5558,-2.5375,-2.4294,-2.2647,-2.3504,-2.4294,-2.2647,0.0,0.0,-2.3365,0.0,-2.3365,-2.3365,-2.3365,-2.3124,0.0,-2.2889,0.0,0.0,0.0,-2.1169,-2.1329,-2.1534,-2.1681,0.0,0.0,0.0,0.0,0.0,-2.1984,-2.1984,-2.1984,-2.1984,-2.1984,-2.1984,-2.2205,-2.2652,-2.2659,-2.2726,-2.2928,-2.2928,-2.2792,-2.2659,-2.2659,-2.2498,0.0,0.0,0.0,-2.2024,-2.5101,-2.6352,-2.6555,-2.9683,-3.0889,-3.0889,-3.0889,-3.0889,-3.0889,0.0,0.0,0.0,0.0,0.0,0.0,0.0,0.0,0.0,0.0,0.0,0.0,0.0,0.0,0.0,0.0,0.0,0.0,0.0,0.0,0.0,0.0,0.0,-1.9424,-1.9424,-1.9424,-1.9424,-1.9424,-1.9424,-1.9424,-1.9424,-1.9424,-1.9424,-1.9424,-1.9424,-1.9424,0.0,0.0,0.0,0.0,-1.9424,0.0,0.0,0.0,0.0,0.0,0.0,0.0,0.0,-2.0575,-2.1056,-2.1727,-2.3146,0.0,0.0,0.0,0.0,0.0,-2.6288,-2.6772,-2.6288,-2.4417,-2.52,-2.5924,-2.4355,0.0,0.0,0.0,0.0,0.0,0.0,-2.5976,0.0,0.0,0.0,0.0,-2.4178,-2.2764,-2.1846,-2.1846,-2.2074,0.0,0.0,0.0,0.0,0.0,0.0,-2.2483,-2.2236,-2.2236,-2.2105,-2.185,-2.185,-2.1991,-2.2285,-2.2331,-2.2478,-2.2726,-2.2726,-2.2599,-2.2352,-2.2352,-2.2191,-2.1924,0.0,0.0,-2.1798,-2.5008,-2.6195,-2.634,-2.9599,-3.0889,-3.0889,-3.0889,-3.0889,-3.0889,0.0,0.0,0.0,0.0,0.0,0.0,0.0,0.0,0.0,0.0,0.0,0.0,0.0,0.0,0.0,0.0,0.0,0.0,0.0,0.0,0.0,0.0,-1.9633,-1.9424,-1.9424,-1.9424,-1.9424,-1.9424,-1.9424,-1.9424,-1.9424,-1.9424,-1.9424,-1.9424,-1.9424,-1.9424,-1.9424,-1.9424,-1.9424,-1.9424,-1.9424,0.0,0.0,0.0,0.0,0.0,0.0,0.0,0.0,-2.0575,-2.1845,-2.3263,-2.3512,0.0,0.0,0.0,0.0,0.0,-2.9717,-3.0147,-2.9412,-2.6409,-2.6832,-2.7623,-2.5984,0.0,0.0,0.0,0.0,0.0,0.0,-2.5976,-2.5915,0.0,0.0,-2.5915,0.0,0.0,-2.5253,-2.5253,0.0,0.0,0.0,0.0,0.0,0.0,0.0,-2.4804,-2.3411,-2.3355,-2.2672,-2.1306,-2.1243,-2.1383,-2.1748,-2.1931,-2.2078,-2.2118,-2.2118,-2.2098,-2.2051,-2.2051,-2.1897,-2.1681,0.0,-2.145,-2.1423,-2.4718,-2.6026,-2.634,-2.9599,-3.0889,-3.0889,-3.0889,-3.0889,-3.0889,0.0,0.0,0.0,0.0,0.0,0.0,0.0,0.0,0.0,0.0,0.0,0.0,0.0,0.0,0.0,0.0,0.0,0.0,0.0,0.0,0.0,-2.0173,-1.9973,-1.9833,-1.9833,-1.9833,-1.976,-1.9599,-1.9599,-1.9519,-1.9424,-1.9424,-1.9424,-1.9424,-1.9424,-1.9424,-1.9424,-1.9424,-1.9424,-1.9424,0.0,0.0,0.0,0.0,0.0,0.0,0.0,0.0,0.0,0.0,-2.2103,-2.3752,-2.4594,0.0,0.0,0.0,0.0,0.0,-3.045,-3.0889,-3.0518,-2.9039,-2.9226,-2.9344,-2.7692,-2.8,0.0,0.0,0.0,0.0,0.0,0.0,-2.8673,-2.8673,0.0,-2.628,-2.7194,-2.653,-2.5976,0.0,0.0,0.0,0.0,0.0,0.0,0.0,0.0,0.0,-2.4955,-2.4054,-2.327,-2.2466,-2.1538,-2.1176,-2.1309,-2.1443,-2.167,-2.1984,-2.1984,-2.1904,-2.175,-2.175,-2.159,-2.1309,0.0,-2.1236,-2.1355,-2.4648,-2.5976,-2.634,-2.9599,-3.0889,-3.0889,-3.0889,-3.0889,-3.0889,0.0,0.0,0.0,0.0,0.0,0.0,0.0,0.0,0.0,0.0,0.0,0.0,0.0,0.0,0.0,0.0,0.0,0.0,0.0,0.0,-2.0971,-2.0971,-2.0618,-2.0313,-2.0173,-2.0173,-2.0127,-1.99,-1.99,-1.9753,-1.9466,-1.9466,-1.9432,-1.9424,-1.9424,-1.9424,-1.9424,-1.9424,-1.9424,-1.9424,0.0,0.0,0.0,0.0,0.0,0.0,0.0,0.0,0.0,0.0,0.0,0.0,0.0,0.0,0.0,-3.0147,-2.9962,-2.9285,-3.0577,-3.0889,-3.0889,-3.0889,0.0,-3.0577,-2.9285,-2.9962,0.0,0.0,0.0,0.0,0.0,-3.0889,0.0,-3.0889,-2.8801,-2.7572,-2.8792,-2.7931,-2.7142,-2.7142,0.0,0.0,0.0,0.0,0.0,0.0,0.0,0.0,-2.6582,-2.5391,-2.454,-2.4178,-2.2522,-2.1664,-2.1664,-2.1292,-2.1336,-2.1784,-2.1784,-2.1663,-2.145,-2.145,-2.1323,-2.1109,-2.1109,-2.1292,-2.1908,-2.4824,-2.6219,-2.6832,-2.9776,-3.0889,-3.0889,-3.0889,-3.0889,-3.0889,0.0,0.0,0.0,0.0,0.0,0.0,0.0,0.0,0.0,0.0,0.0,0.0,0.0,0.0,0.0,0.0,0.0,0.0,0.0,0.0,-2.3383,-2.3383,-2.1846,-2.0788,-2.018,-2.0173,-2.016,-2.0201,-2.0201,-2.0054,-1.9766,-1.9766,-1.9626,-1.9424,-1.9424,-1.9424,-1.9424,-1.9424,-1.9424,-1.9424,-1.9424,0.0,0.0,0.0,0.0,0.0,0.0,0.0,0.0,0.0,0.0,0.0,0.0,0.0,-3.0587,-3.083,-3.083,-3.0772,-3.0889,-3.0889,-3.0889,-3.0889,-3.0889,0.0,-3.0772,-3.083,0.0,-3.0889,0.0,0.0,0.0,-3.0889,-3.0889,-3.0889,-3.0704,-3.0587,-3.0704,0.0,-3.0518,0.0,0.0,0.0,0.0,0.0,0.0,0.0,0.0,0.0,-2.8298,-2.811,-2.7383,-2.5855,-2.4232,-2.3387,-2.3387,-2.1853,-2.1129,-2.1169,-2.1169,-2.1162,-2.1142,-2.1142,-2.1129,-2.1109,-2.1109,-2.1971,-2.3566,-2.5314,-2.6893,-2.8417,-3.0206,-3.0889,-3.0889,-3.0889,-3.0889,-3.0889,0.0,0.0,0.0,0.0,0.0,0.0,0.0,0.0,0.0,0.0,0.0,0.0,0.0,0.0,0.0,0.0,0.0,0.0,0.0,0.0,-2.3574,-2.3574,-2.1971,-2.1009,-2.0782,-2.0775,-2.0688,-2.0508,-2.0327,-2.0174,-2.0067,-2.0067,-1.9913,-1.9639,-1.9639,-1.9539,-1.9424,-1.9424,-1.9424,-1.9424,-1.9424,-1.9472,0.0,0.0,0.0,0.0,0.0,0.0,0.0,0.0,-2.533,-2.7623,0.0,0.0,-3.0889,-3.0889,-3.0889,-3.0889,-3.0889,-3.0889,-3.0889,-3.0889,-3.0889,0.0,0.0,-3.0889,-3.0889,-3.0889,-3.0889,0.0,0.0,0.0,-3.0889,-3.0889,-3.0889,-3.0889,-3.0889,0.0,0.0,0.0,0.0,0.0,0.0,0.0,0.0,0.0,0.0,0.0,-2.9962,-2.897,-2.811,-2.7503,-2.5932,-2.4594,-2.3636,-2.2959,-2.216,-2.1109,-2.1109,-2.1109,-2.1109,-2.1109,-2.1109,-2.1172,-2.2223,-2.3021,-2.3814,-2.6417,-2.7871,-2.8545,-3.0274,-3.0889,-3.0889,-3.0889,-3.0889,-3.0889,0.0,0.0,0.0,0.0,0.0,0.0,0.0,0.0,0.0,0.0,0.0,0.0,0.0,0.0,0.0,0.0,0.0,0.0,0.0,-2.6608,-2.5146,-2.5146,-2.3559,-2.2632,-2.2632,-2.2632,-2.2047,-2.0815,-2.0608,-2.0461,-2.0374,-2.0909,-2.0979,-2.0694,-2.0694,-2.0579,-2.0287,-2.0229,-1.9897,-1.943,-2.0027,-2.0075,0.0,0.0,0.0,0.0,0.0,0.0,0.0,0.0,-2.6599,-2.8477,0.0,0.0,0.0,0.0,-3.0791,-3.0703,-3.085,-3.0781,-3.0703,-3.0859,0.0,0.0,-3.0889,-3.0889,-3.0889,-3.0889,-3.0889,-3.0889,-3.0889,0.0,0.0,0.0,-3.0889,-3.0889,0.0,0.0,0.0,0.0,0.0,0.0,0.0,0.0,0.0,0.0,0.0,0.0,0.0,-2.9835,-2.9216,-2.9216,-2.7632,-2.6236,-2.5154,-2.4602,-2.3504,-2.1908,-2.1908,-2.1601,-2.1109,-2.1109,-2.1109,-2.1172,-2.2897,-2.3876,-2.4602,-2.7263,-2.8724,-2.9285,-3.046,-3.0889,-3.0889,-3.0889,-3.0889,-3.0889,0.0,0.0,0.0,0.0,0.0,0.0,0.0,0.0,0.0,0.0,0.0,0.0,0.0,0.0,0.0,0.0,0.0,0.0,0.0,-2.9344,-2.8417,-2.8417,-2.6832,-2.5976,-2.5976,-2.5976,-2.4401,-2.1172,-2.1172,-2.1025,-2.0799,-2.2364,-2.2969,-2.2714,-2.2714,-2.2518,-2.2238,-2.2072,-2.1046,-1.9625,-2.1322,-2.1167,-1.9926,0.0,0.0,0.0,0.0,0.0,0.0,0.0,-2.8417,-2.8724,0.0,0.0,0.0,0.0,-3.0566,-3.0303,-3.0762,-3.0547,-3.0303,0.0,0.0,0.0,-3.0889,-3.0889,-3.0889,-3.0889,-3.0889,-3.0889,-3.0889,-3.0889,0.0,-3.0889,-3.0889,-3.0889,0.0,0.0,0.0,0.0,0.0,0.0,0.0,0.0,0.0,0.0,0.0,0.0,0.0,-3.0889,-3.0889,-3.0889,-2.9285,-2.8417,-2.8417,-2.6832,-2.52,-2.3636,-2.3636,-2.2709,-2.1109,-2.1109,-2.1109,-2.1172,-2.2897,-2.4532,-2.6098,-2.7751,-2.9403,-3.0889,-3.0889,-3.0889,-3.0889,-3.0889,-3.0889,-3.0889,0.0,0.0,0.0,0.0,0.0,0.0,0.0,0.0,0.0,0.0,0.0,0.0,0.0,0.0,0.0,0.0,0.0,0.0,0.0,-2.9344,-2.8417,-2.8417,-2.6832,-2.5976,-2.5976,-2.5976,-2.5489,-2.4517,-2.4517,-2.4531,-2.443,-2.4918,-2.4976,-2.4757,-2.469,-2.4488,-2.4216,-2.4216,-2.3869,-2.3441,-2.3943,-2.4077,-2.3917,0.0,0.0,0.0,0.0,0.0,0.0,0.0,0.0,0.0,0.0,0.0,0.0,-3.0889,-3.0566,-3.0303,-3.0762,-3.0547,0.0,-3.0771,0.0,0.0,0.0,-3.0889,0.0,0.0,-3.0889,-3.0889,-3.0889,0.0,0.0,-3.0889,-3.0889,-3.0889,0.0,0.0,0.0,0.0,0.0,0.0,0.0,0.0,0.0,0.0,0.0,0.0,0.0,-3.0889,-3.0889,-3.0889,-3.0392,-2.9589,-2.8417,-2.7931,-2.6901,-2.5253,-2.4116,-2.2709,-2.1109,-2.1109,-2.1109,-2.1172,-2.2897,-2.4532,-2.6219,-2.9039,-3.046,-3.0889,-3.0889,-3.0889,-3.0889,-3.0889,-3.0889,-3.084,0.0,0.0,0.0,0.0,0.0,0.0,0.0,0.0,0.0,0.0,0.0,0.0,0.0,0.0,0.0,0.0,0.0,0.0,0.0,0.0,-2.9403,-2.9403,-2.8486,-2.794,-2.794,-2.794,-2.794,-2.794,-2.6651,-2.5976,-2.6037,-2.6651,-2.6893,-2.6679,-2.667,-2.6523,-2.6237,-2.6179,-2.5736,-2.5144,-2.5878,-2.5956,-2.5643,0.0,0.0,0.0,0.0,0.0,0.0,0.0,0.0,0.0,0.0,0.0,0.0,-3.0674,-3.0293,-3.0049,-3.0488,-3.0293,0.0,-3.0732,-3.0889,-3.0889,-3.0889,0.0,0.0,0.0,0.0,-3.0889,-3.0889,-3.0889,0.0,-3.0889,-3.0889,-3.0889,0.0,0.0,0.0,0.0,0.0,0.0,0.0,0.0,0.0,0.0,0.0,0.0,0.0,-3.0889,-3.0889,-3.0889,-3.0889,-3.0392,-2.9403,-2.9403,-2.8545,-2.6953,-2.5993,-2.4294,-2.2097,-2.1418,-2.1109,-2.1229,-2.3559,-2.581,-2.8119,-3.0089,-3.0889,-3.0889,-3.0889,-3.0889,-3.0869,-3.0684,-3.0615,-3.0547,0.0,0.0,0.0,0.0,0.0,0.0,0.0,0.0,0.0,0.0,0.0,0.0,0.0,0.0,0.0,0.0,0.0,0.0,0.0,0.0,-3.0889,-3.0889,-3.0889,-3.0889,-3.0889,-3.0889,-3.0889,-3.0889,-2.794,-2.647,-2.647,-2.7931,-2.8605,-2.8605,-2.8605,-2.8464,-2.8253,-2.8128,-2.7128,-2.5685,-2.7374,-2.7273,-2.6025,-2.6327,0.0,0.0,0.0,0.0,0.0,0.0,0.0,0.0,-3.0889,0.0,-3.0742,-3.0322,-2.9873,-2.9609,-3.0068,0.0,0.0,-3.0664,-3.0889,0.0,-3.0889,-3.0889,-3.0889,-3.0889,0.0,-3.0889,-3.0889,-3.0889,-3.0889,-3.0889,-3.0889,0.0,0.0,0.0,0.0,0.0,0.0,0.0,0.0,0.0,0.0,0.0,0.0,0.0,0.0,-3.0889,-3.0889,-3.0889,-3.0889,-3.0889,-3.0889,-3.0889,-3.0147,-2.8605,-2.8477,-2.678,-2.3752,-2.2097,-2.1355,-2.1538,-2.4763,-2.794,-3.0704,-3.083,-3.0889,-3.0889,-3.0889,-3.0869,-3.0771,-3.0351,-3.0176,-3.0078,0.0,0.0,0.0,0.0,0.0,0.0,0.0,0.0,0.0,0.0,0.0,0.0,0.0,0.0,0.0,0.0,0.0,0.0,0.0,0.0,0.0,0.0,0.0,0.0,0.0,0.0,0.0,0.0,-3.0216,0.0,0.0,0.0,0.0,-3.0333,0.0,-3.0344,-3.0257,-3.0257,-2.9814,-2.9145,-2.9958,-2.9804,-2.923,-2.9674,-2.9844,0.0,0.0,0.0,0.0,0.0,0.0,0.0,-3.0889,-3.0644,-3.0322,-3.0225,-2.9658,-2.9228,-2.999,-2.9893,0.0,0.0,-3.0889,-3.0889,-3.0889,-3.0889,-3.0889,-3.0889,-3.0889,-3.0889,-3.0889,-3.0889,0.0,0.0,0.0,0.0,0.0,0.0,0.0,0.0,0.0,0.0,0.0,0.0,0.0,0.0,0.0,0.0,-3.0889,-3.0889,-3.0889,-3.0889,-3.0889,-3.0889,-3.0889,-3.0889,-3.0704,0.0,-2.903,-2.7383,-2.5436,-2.3807,-2.3084,-2.3263,-2.6478,-2.8298,-2.9039,-3.0333,-3.0889,-3.0889,-3.0889,-3.0664,-3.0332,-3.0234,-2.999,-2.9639,0.0,0.0,0.0,0.0,0.0,0.0,0.0,0.0,0.0,0.0,0.0,0.0,0.0,0.0,0.0,0.0,0.0,0.0,0.0,0.0,0.0,0.0,0.0,0.0,0.0,0.0,0.0,0.0,0.0,0.0,0.0,0.0,0.0,-3.0889,0.0,-3.0889,-3.0879,-3.0654,-3.042,-3.0205,-3.0244,-3.0117,-2.9922,-3.0166,-3.0264,-3.0283,-3.0488,0.0,0.0,0.0,0.0,0.0,0.0,0.0,-3.0117,-2.9707,-2.9268,-2.9062,0.0,0.0,0.0,-3.0664,0.0,-3.0889,-3.0889,-3.0889,-3.0889,-3.0889,-3.0889,-3.0889,-3.0889,0.0,0.0,0.0,0.0,0.0,0.0,0.0,0.0,0.0,0.0,0.0,0.0,0.0,0.0,0.0,0.0,-3.0889,-3.0889,-3.0889,-3.0889,-3.0889,-3.0889,-3.0889,-3.0889,-3.0889,-3.0889,-3.0889,-3.002,-2.8733,-2.7073,-2.4663,-2.4425,-2.5993,-2.7692,-2.8852,-2.9648,-3.0518,-3.0762,-3.0557,-3.0557,-3.0283,-2.9873,-2.9668,-2.9443,-2.9199,0.0,0.0,0.0,0.0,0.0,0.0,0.0,0.0,0.0,0.0,0.0,0.0,0.0,0.0,0.0,0.0,0.0,0.0,0.0,0.0,0.0,0.0,0.0,0.0,0.0,0.0,0.0,0.0,0.0,0.0,0.0,0.0,0.0,-3.0889,0.0,-3.0889,-3.0859,-3.0391,-3.0156,-3.0059,-2.9707,-2.9521,-2.9463,-2.9597,-2.9626,-2.9619,-2.9961,-3.0088,-3.0146,-3.0537,0.0,0.0,0.0,0.0,-2.9834,-2.9131,-2.8867,-2.8926,0.0,0.0,0.0,0.0,0.0,0.0,-3.0889,-3.0889,-3.0889,-3.0889,-3.0889,0.0,0.0,0.0,0.0,0.0,0.0,0.0,0.0,0.0,0.0,0.0,0.0,0.0,0.0,0.0,0.0,0.0,0.0,-3.0889,-3.0889,-3.0889,-3.0889,-3.0889,-3.0889,-3.0889,-3.0889,-3.0889,-3.0889,-3.0889,-3.0587,-2.9893,-2.8733,-2.5757,-2.5879,-2.8417,-2.8733,-2.9552,-3.0771,-3.0771,-3.0508,-3.0088,-3.0088,-2.9834,-2.9414,-2.9053,-2.8877,-2.876,0.0,0.0,0.0,0.0,0.0,0.0,0.0,0.0,0.0,0.0,0.0,0.0,0.0,0.0,0.0,0.0,0.0,0.0,0.0,0.0,0.0,0.0,-3.0889,0.0,0.0,0.0,0.0,0.0,0.0,0.0,0.0,0.0,0.0,-3.0889,0.0,0.0,-3.0859,-3.0391,-2.999,-2.9704,-2.959,-2.9346,-2.9053,-2.9434,-2.9626,-2.9636,-2.9629,-2.9658,-2.9658,-2.9726,-2.9746,0.0,0.0,0.0,-2.9072,-2.8955,-2.8662,-2.8555,0.0,0.0,0.0,0.0,0.0,0.0,0.0,0.0,0.0,0.0,0.0,0.0,0.0,0.0,0.0,0.0,0.0,0.0,0.0,0.0,0.0,0.0,0.0,0.0,0.0,0.0,0.0,0.0,-3.0889,-3.0889,-3.0889,-3.0889,-3.0889,-3.0889,-3.0889,-3.0889,-3.0889,-3.0889,-3.0889,-3.0889,-2.9403,-2.9403,-3.0518,-2.8614,-2.7991,-2.8477,-2.9962,-3.048,-3.0293,-3.0293,-3.0039,-2.9658,-2.9658,-2.9394,-2.8994,-2.8945,-2.8691,-2.8369,0.0,0.0,0.0,0.0,0.0,0.0,0.0,0.0,0.0,0.0,0.0,0.0,0.0,0.0,0.0,-3.0889,0.0,0.0,0.0,0.0,0.0,-3.0889,-3.0889,-3.0889,-3.0889,0.0,0.0,0.0,0.0,0.0,0.0,-3.0889,-3.0889,0.0,0.0,0.0,0.0,-3.0146,-2.9736,-2.9587,-2.9053,-2.874,-2.8594,-2.8779,-2.8857,-2.8887,-2.9121,-2.9209,-2.9248,-2.9482,-2.9626,-2.9531,-2.9277,0.0,0.0,0.0,-2.8437,0.0,-2.9043,0.0,0.0,0.0,0.0,0.0,0.0,0.0,0.0,0.0,0.0,0.0,0.0,0.0,0.0,0.0,0.0,0.0,0.0,0.0,0.0,0.0,0.0,0.0,0.0,0.0,0.0,0.0,-3.0889,-3.0889,-3.0889,-3.0644,-3.0508,-3.0508,-3.0273,-3.0146,-3.0146,-3.0381,-3.0635,-3.0889,-2.989,-2.9766,-3.0488,-2.9527,-2.9323,-2.9825,-3.0306,-3.0391,-3.0176,-2.9941,-2.959,-2.9209,-2.9209,-2.8945,-2.8564,-2.8564,-2.8447,-2.8291,0.0,0.0,0.0,0.0,0.0,0.0,0.0,0.0,0.0,0.0,0.0,0.0,0.0,0.0,0.0,0.0,-3.0889,0.0,0.0,0.0,0.0,-3.0889,-3.0889,-3.0889,-3.0889,0.0,0.0,0.0,0.0,0.0,-3.0889,-3.0889,-3.0889,0.0,-3.0889,-3.083,0.0,0.0,0.0,-2.9346,-2.8594,-2.8291,-2.8291,-2.8291,-2.8291,-2.833,-2.8643,-2.876,-2.8809,-2.9141,-2.9248,-2.9189,-2.8857,-2.876,0.0,0.0,0.0,0.0,0.0,0.0,0.0,0.0,0.0,0.0,0.0,0.0,0.0,0.0,0.0,0.0,0.0,0.0,0.0,0.0,0.0,0.0,0.0,0.0,0.0,0.0,0.0,0.0,0.0,0.0,0.0,0.0,-3.0781,-3.0713,-3.0713,-3.0283,-3.0039,-3.0039,-2.9736,-2.9626,-2.9626,-2.9883,-3.0215,-3.0557,-3.0205,-3.0039,-3.0029,-2.9717,-2.9932,-3.0537,-3.0185,-2.9971,-2.9853,-2.9531,-2.915,-2.876,-2.876,-2.8564,-2.8291,-2.8291,-2.8291,-2.8291,0.0,0.0,0.0,0.0,0.0,0.0,0.0,0.0,0.0,0.0,0.0,0.0,-3.0889,-3.0889,-3.0889,-3.0889,-3.0889,-3.0889,-3.0889,-3.0889,0.0,-3.0889,-3.0889,0.0,-3.0889,0.0,0.0,0.0,0.0,0.0,-3.0889,-3.0889,-3.0889,-3.0889,-3.0889,-3.0644,-3.0205,0.0,0.0,0.0,0.0,0.0,0.0,0.0,0.0,0.0,-2.831,-2.833,-2.833,-2.835,-2.8359,-2.8359,-2.833,-2.833,-2.832,0.0,0.0,0.0,0.0,0.0,0.0,0.0,0.0,0.0,0.0,0.0,0.0,0.0,0.0,0.0,0.0,0.0,0.0,0.0,0.0,0.0,0.0,0.0,0.0,0.0,0.0,0.0,0.0,0.0,0.0,0.0,-3.0478,-3.0234,-3.0234,-2.9834,-2.96,-2.96,-2.9636,-2.9626,-2.9626,-2.959,-2.9619,-2.9695,-2.9619,-2.96,-2.96,-2.9636,-2.959,-2.9695,-2.9619,-2.9365,-2.8984,-2.8965,-2.8701,-2.833,-2.833,-2.831,-2.8291,-2.8291,-2.8291,-2.8291,0.0,0.0,0.0,0.0,0.0,0.0,0.0,0.0,0.0,0.0,0.0,0.0,0.0,-3.0889,-3.0889,-3.0889,-3.0889,-3.0889,-3.0889,-3.0889,0.0,-3.0889,-3.0889,-3.0889,-3.0889,0.0,0.0,0.0,0.0,-3.0889,-3.0889,-3.0889,-3.0889,-3.0889,-3.0889,-3.0635,-3.0166,-2.9746,0.0,0.0,0.0,0.0,0.0,0.0,0.0,0.0,-2.8291,-2.8291,-2.8291,-2.8291,-2.8291,-2.8291,-2.8291,-2.8291,-2.8291,-2.8291,-2.8398,0.0,0.0,0.0,0.0,0.0,0.0,0.0,0.0,0.0,0.0,0.0,0.0,0.0,0.0,0.0,0.0,0.0,0.0,0.0,0.0,0.0,0.0,0.0,0.0,0.0,0.0,0.0,0.0,0.0,0.0,-2.9795,-2.9795,-2.9385,-2.915,-2.915,-2.8887,-2.8877,-2.915,-2.915,-2.9287,-2.9626,-2.9287,-2.915,-2.9141,-2.8867,-2.875,-2.875,-2.875,-2.8818,-2.8896,-2.8633,-2.8428,-2.8291,-2.8291,-2.8291,-2.8291,-2.8291,-2.8291,-2.8291,0.0,0.0,0.0,0.0,0.0,0.0,0.0,0.0,0.0,0.0,0.0,0.0,0.0,0.0,-3.0889,-3.0889,-3.0889,-3.0889,-3.0889,-3.0889,-3.0889,-3.0889,-3.0889,-3.0889,-3.0889,0.0,0.0,0.0,0.0,0.0,0.0,-3.0889,-3.0889,-3.0889,-3.0732,-3.041,0.0,0.0,0.0,-2.8682,0.0,0.0,-2.831,0.0,0.0,0.0,-2.8672,-2.8721,-2.8701,-2.8555,-2.8506,-2.8476,-2.834,-2.8291,-2.8291,-2.8291,-2.8291,0.0,-2.8291,0.0,0.0,0.0,0.0,0.0,0.0,0.0,0.0,0.0,0.0,0.0,0.0,0.0,0.0,0.0,0.0,0.0,0.0,0.0,0.0,0.0,0.0,0.0,0.0,0.0,0.0,0.0,0.0,0.0,-2.9355,-2.8945,-2.8711,-2.8711,-2.8437,-2.8428,-2.8711,-2.8711,-2.8857,-2.9141,-2.8848,-2.8711,-2.8701,-2.8418,-2.8291,-2.8291,-2.8291,-2.8447,-2.8682,-2.8408,-2.8291,-2.8291,-2.8291,-2.8291,-2.8291,-2.8291,-2.8203,-2.8086,0.0,0.0,0.0,0.0,0.0,0.0,0.0,0.0,0.0,-3.2135,0.0,0.0,0.0,0.0,0.0,-3.0889,-3.0889,-3.0889,-3.0889,-3.0889,-3.0889,-3.0889,0.0,0.0,0.0,0.0,0.0,0.0,0.0,0.0,0.0,0.0,-3.0889,-3.085,-3.0391,-2.9941,-2.9521,0.0,-2.8672,-2.8291,0.0,-2.8291,-2.834,0.0,0.0,0.0,-2.9414,-2.9626,0.0,-2.9082,0.0,0.0,0.0,0.0,0.0,-2.8291,0.0,0.0,0.0,0.0,0.0,0.0,0.0,0.0,0.0,0.0,0.0,0.0,0.0,0.0,0.0,0.0,0.0,0.0,0.0,0.0,0.0,0.0,0.0,0.0,0.0,0.0,0.0,0.0,0.0,0.0,-2.915,-2.8896,-2.8896,-2.8516,-2.8291,-2.8291,-2.8291,-2.8291,-2.8291,-2.8291,-2.8291,-2.8291,-2.8291,-2.8291,-2.8291,-2.8291,-2.8291,-2.8291,-2.8291,-2.8291,-2.8291,-2.8291,-2.8291,-2.8291,-2.8291,-2.8281,-2.8271,-2.8271,-2.8008,-2.7699,0.0,0.0,0.0,0.0,0.0,0.0,0.0,0.0,-3.2965,0.0,0.0,0.0,-3.1005,-3.0889,-3.0889,-3.0889,-3.0889,-3.0889,-3.0889,-3.0889,-3.0889,-3.0889,-3.0889,0.0,0.0,0.0,0.0,0.0,0.0,0.0,0.0,0.0,0.0,0.0,-2.9932,-2.9502,-2.9092,-2.8975,0.0,-2.8291,-2.8291,-2.8291,0.0,0.0,0.0,0.0,0.0,-2.9626,-2.9551,0.0,-2.918,-2.8848,0.0,0.0,0.0,0.0,0.0,0.0,-2.8291,0.0,0.0,0.0,0.0,0.0,0.0,0.0,0.0,0.0,0.0,0.0,0.0,0.0,0.0,0.0,0.0,0.0,0.0,0.0,0.0,0.0,0.0,0.0,0.0,0.0,0.0,0.0,-2.8701,-2.8467,-2.8467,-2.8359,-2.8291,-2.8291,-2.8291,-2.8291,-2.8291,-2.8291,-2.8291,-2.8291,-2.8291,-2.8291,-2.8291,-2.8291,-2.8291,-2.8291,-2.8291,-2.8291,-2.8291,-2.8291,-2.8291,-2.8291,-2.8291,-2.8105,-2.7894,-2.7894,-2.7568,-2.7197,0.0,0.0,0.0,0.0,0.0,0.0,0.0,0.0,-3.3937,0.0,0.0,0.0,-3.1034,-3.0889,-3.0889,-3.0889,-3.0889,-3.0889,-3.0889,-3.0889,-3.0889,-3.0889,-3.0889,-3.0889,0.0,0.0,0.0,0.0,0.0,0.0,0.0,0.0,0.0,0.0,0.0,0.0,0.0,0.0,0.0,0.0,-2.8291,0.0,0.0,-2.8955,-2.9189,0.0,0.0,0.0,-3.0088,-2.9893,-2.9424,0.0,0.0,0.0,0.0,0.0,0.0,0.0,0.0,0.0,0.0,0.0,0.0,0.0,-2.8603,-2.8662,-2.873,0.0,0.0,0.0,0.0,0.0,0.0,0.0,0.0,0.0,0.0,0.0,0.0,0.0,0.0,0.0,0.0,-2.8906,-2.8662,-2.8662,-2.8428,-2.8291,-2.8291,-2.8291,-2.8291,-2.8291,-2.8291,-2.8291,-2.8291,-2.8291,-2.8291,-2.8291,-2.8291,-2.8291,-2.8291,-2.8291,-2.8291,-2.8291,-2.8291,-2.8291,-2.8281,-2.8105,-2.8135,-2.8271,-2.8096,-2.7933,-2.7699,-2.7461,-2.7119,-2.6758,0.0,0.0,0.0,0.0,0.0,0.0,0.0,0.0,0.0,0.0,-3.2846,-3.1871,-3.1158,-3.0966,-3.0889,-3.0889,-3.0889,-3.0889,-3.0889,-3.0889,-3.0889,-3.0889,-3.0889,-3.0889,-3.0889,0.0,0.0,0.0,0.0,0.0,0.0,0.0,0.0,0.0,0.0,0.0,0.0,0.0,0.0,-2.8291,-2.8291,-2.8291,0.0,0.0,-2.9626,-2.9687,-3.0576,-3.0889,-3.081,-3.0303,-2.9619,0.0,0.0,0.0,0.0,0.0,-2.8291,0.0,0.0,0.0,0.0,0.0,0.0,0.0,-2.8291,-2.8291,-2.8291,-2.8291,0.0,0.0,0.0,0.0,0.0,0.0,0.0,0.0,0.0,0.0,0.0,0.0,0.0,0.0,-2.8848,-2.8506,-2.8291,-2.8291,-2.8291,-2.8291,-2.8291,-2.8291,-2.8291,-2.8291,-2.8291,-2.8291,-2.8291,-2.8291,-2.8291,-2.8291,-2.8291,-2.8291,-2.8291,-2.8291,-2.8271,-2.8223,-2.8223,-2.8193,-2.8125,-2.7744,-2.7842,-2.8174,-2.7764,-2.7568,-2.7532,-2.709,-2.668,-2.6318,0.0,0.0,0.0,0.0,0.0,0.0,0.0,0.0,0.0,-3.4913,-3.3233,-3.2128,-3.1952,-3.1327,-3.0889,-3.0889,-3.0889,-3.0889,-3.0889,-3.0889,-3.0889,-3.0889,-3.0889,-3.0889,-3.0889,-3.0801,0.0,0.0,0.0,0.0,0.0,0.0,0.0,0.0,0.0,0.0,0.0,0.0,0.0,-2.8291,-2.8291,0.0,-2.8389,-2.9248,-2.9626,-2.9687,-3.0576,-3.0889,-3.0771,-2.9961,-2.958,-2.9307,0.0,0.0,0.0,-2.8291,0.0,0.0,0.0,0.0,0.0,0.0,0.0,0.0,-2.8291,-2.8291,-2.8291,0.0,0.0,0.0,0.0,0.0,0.0,0.0,0.0,0.0,0.0,0.0,0.0,0.0,0.0,0.0,-2.8418,-2.834,-2.8291,-2.8291,-2.8291,-2.8291,-2.8291,-2.8291,-2.8291,-2.8291,-2.8291,-2.8291,-2.8291,-2.8291,-2.8291,-2.8291,-2.8291,-2.8291,-2.8291,-2.8291,-2.8105,-2.7836,-2.7836,-2.7588,-2.7256,-2.7178,-2.7402,-2.7744,-2.7305,-2.6934,-2.6631,-2.6543,-2.624,-2.5859,0.0,0.0,0.0,0.0,0.0,0.0,0.0,0.0,0.0,0.0,0.0,-3.2182,-3.2825,-3.1472,-3.0815,-3.1472,-3.1148,-3.0889,-3.0889,-3.0889,-3.0889,-3.0889,-3.0889,-3.0889,-3.0889,-3.0889,0.0,0.0,0.0,0.0,0.0,0.0,0.0,0.0,0.0,0.0,0.0,0.0,-2.8291,-2.8291,-2.8291,0.0,-2.8389,-2.9248,-2.9626,-2.9687,-3.0576,-3.0889,-3.0752,-2.9863,-2.9626,0.0,-2.8564,-2.8291,-2.8291,0.0,-2.8291,-2.8291,0.0,0.0,0.0,-2.8291,0.0,0.0,0.0,-2.8291,-2.8291,-2.8291,0.0,0.0,0.0,0.0,0.0,0.0,0.0,0.0,0.0,0.0,0.0,0.0,0.0,0.0,-2.8291,-2.8291,-2.8291,-2.8291,-2.8291,-2.8291,-2.8291,-2.8291,-2.8291,-2.8291,-2.8291,-2.8291,-2.8291,-2.8291,-2.8291,-2.8291,-2.8086,-2.7978,-2.7969,-2.7754,-2.7539,-2.7344,-2.7344,-2.7217,-2.6992,-2.6787,-2.6836,-2.7012,-2.6787,-2.6572,-2.6367,-2.6143,-2.5879,-2.5693,-3.6229,0.0,0.0,0.0,0.0,0.0,0.0,0.0,0.0,0.0,0.0,0.0,0.0,-3.1691,-3.0774,-3.1639,-3.1295,-3.0914,-3.0693,-3.0635,-3.0635,-3.0635,-3.0635,-3.0635,-3.0635,-3.0635,-3.0449,0.0,0.0,0.0,0.0,0.0,0.0,0.0,0.0,0.0,0.0,0.0,0.0,-2.8291,0.0,-2.8291,-2.8389,-2.9248,-2.9626,-2.9687,-3.0576,-3.083,-3.0635,-2.9834,-2.9512,-2.9316,-2.8535,-2.8291,0.0,0.0,0.0,0.0,0.0,0.0,0.0,0.0,0.0,-2.8291,0.0,0.0,0.0,0.0,0.0,0.0,0.0,0.0,0.0,0.0,0.0,0.0,0.0,0.0,0.0,0.0,0.0,0.0,0.0,-2.8096,-2.8047,-2.8047,-2.8047,-2.8047,-2.8047,-2.8047,-2.8047,-2.8047,-2.8047,-2.8047,-2.8047,-2.8047,-2.8047,-2.8047,-2.7705,-2.7591,-2.7529,-2.7178,-2.6973,-2.6894,-2.6894,-2.6846,-2.6738,-2.6406,-2.6269,-2.6269,-2.6269,-2.6269,-2.6221,-2.582,-2.5693,-2.5693,-3.5495,-3.6031,0.0,0.0,0.0,0.0,0.0,0.0,0.0,0.0,0.0,0.0,0.0,0.0,0.0,-3.002,-3.0917,-3.0993,-2.9829,-2.9773,-2.9773,-2.9773,-2.9773,-2.9773,-2.9773,-2.9773,-2.9697,0.0,0.0,0.0,0.0,0.0,0.0,0.0,-2.831,0.0,0.0,0.0,-2.8291,0.0,-2.8291,-2.8291,0.0,-2.9248,-2.9626,-2.9687,-3.0576,-3.0625,-3.0205,0.0,-2.9316,-2.8906,0.0,-2.8291,-2.8291,-2.8291,0.0,0.0,0.0,0.0,0.0,0.0,-2.8291,0.0,0.0,0.0,-2.8291,-2.8291,0.0,0.0,0.0,0.0,0.0,0.0,0.0,0.0,0.0,0.0,0.0,0.0,0.0,0.0,0.0,-2.7383,-2.7158,-2.7158,-2.7158,-2.7158,-2.7158,-2.7158,-2.7158,-2.7158,-2.7158,-2.7158,-2.7158,-2.7158,-2.7158,-2.7158,-2.7109,-2.709,-2.709,-2.7041,-2.6816,-2.6455,-2.6455,-2.624,-2.583,-2.5781,-2.5762,-2.5762,-2.5762,-2.5762,-2.5752,-2.5703,-2.5693,-2.5693,-3.532,-3.5683,0.0,0.0,0.0,0.0,0.0,0.0,0.0,0.0,0.0,0.0,0.0,0.0,0.0,0.0,0.0,-3.25,0.0,0.0,0.0,0.0,-3.0419,-2.9941,-3.074,-2.9996,-2.9443,-2.9189,-2.9014,0.0,0.0,0.0,0.0,0.0,-2.8291,0.0,-2.8291,0.0,-2.8291,0.0,0.0,0.0,0.0,-2.8965,-2.9502,-2.998,-3.0351,-3.0361,-3.0098,0.0,-2.9072,0.0,0.0,0.0,0.0,0.0,0.0,0.0,0.0,0.0,0.0,0.0,0.0,0.0,-2.8291,0.0,-2.8291,0.0,0.0,0.0,0.0,0.0,0.0,0.0,-2.7285,0.0,0.0,0.0,0.0,0.0,0.0,0.0,0.0,0.0,0.0,0.0,-2.7012,-2.7012,-2.7012,-2.7012,-2.7012,-2.7012,-2.7012,-2.7012,-2.7012,-2.7012,-2.7012,-2.7012,-2.6768,-2.665,-2.6641,-2.6387,-2.6172,-2.6006,-2.6006,-2.5859,-2.5693,-2.5693,-2.5693,-2.5693,-2.5693,-2.5693,-2.5693,-2.5693,-2.5693,-2.5693,-3.4856,0.0,0.0,0.0,0.0,0.0,0.0,0.0,0.0,0.0,0.0,0.0,-3.4625,-3.4016,0.0,0.0,-3.291,-3.3009,0.0,0.0,-3.1655,0.0,0.0,-3.0472,-3.0679,-3.0472,-3.0005,0.0,0.0,0.0,0.0,0.0,0.0,0.0,0.0,-2.8291,-2.8291,0.0,-2.8291,-2.8291,-2.8291,-2.8291,-2.834,-2.876,-2.9375,-3.0029,-3.0029,-2.9951,-2.9746,-2.9131,-2.8848,0.0,-2.8389,0.0,0.0,0.0,0.0,0.0,-2.8291,0.0,0.0,0.0,0.0,0.0,0.0,0.0,0.0,0.0,0.0,0.0,0.0,0.0,0.0,0.0,0.0,-2.6807,0.0,0.0,0.0,0.0,0.0,0.0,0.0,0.0,0.0,-2.667,-2.667,-2.667,-2.667,-2.667,-2.667,-2.667,-2.667,-2.667,-2.667,-2.667,-2.667,-2.666,-2.6357,-2.6211,-2.6201,-2.5879,-2.5693,-2.5693,-2.5693,-2.5693,-2.5693,-2.5693,-2.5693,-2.5693,-2.5693,-2.5693,-2.5693,-2.5693,-2.5693,-2.5693,-3.3847,-3.4768,0.0,0.0,0.0,0.0,0.0,0.0,0.0,0.0,0.0,0.0,0.0,0.0,0.0,0.0,0.0,-3.1514,-3.1158,0.0,-3.0269,0.0,0.0,-3.1021,-2.8437,-3.0918,-3.1564,0.0,0.0,0.0,0.0,0.0,0.0,0.0,0.0,-2.8291,-2.8291,-2.8291,-2.8291,-2.8291,-2.8291,-2.8291,-2.834,0.0,-2.9199,-2.959,-2.959,0.0,0.0,-2.8926,-2.8652,0.0,0.0,0.0,0.0,0.0,0.0,0.0,0.0,0.0,0.0,-2.8291,0.0,0.0,0.0,0.0,-2.8174,0.0,0.0,0.0,0.0,0.0,0.0,0.0,0.0,0.0,0.0,0.0,0.0,0.0,0.0,0.0,0.0,0.0,0.0,-2.5732,-2.5732,-2.5732,-2.5732,-2.5732,-2.5732,-2.5732,-2.5732,-2.5732,-2.5732,-2.5732,-2.5732,-2.5732,-2.5713,-2.5713,-2.5703,-2.5693,-2.5693,-2.5693,-2.5693,-2.5693,-2.5693,-2.5693,-2.5693,-2.5693,-2.5693,-2.5693,-2.5693,-2.5693,-2.5693,-2.5693,0.0,0.0,0.0,0.0,0.0,0.0,0.0,-3.6405,0.0,0.0,-3.5466,0.0,0.0,-3.4435,-3.3553,0.0,0.0,-3.2912,-3.1536,-3.2017,0.0,-3.1451,-3.2002,-3.148,0.0,0.0,0.0,0.0,0.0,0.0,0.0,0.0,0.0,0.0,0.0,-2.9154,0.0,0.0,0.0,0.0,0.0,-2.8291,-2.834,0.0,-2.9014,-2.9141,-2.9141,-2.9043,0.0,-2.8603,-2.8408,-2.8291,-2.8291,-2.8291,-2.8291,-2.8291,-2.8291,0.0,0.0,0.0,-2.8291,-2.8291,0.0,0.0,0.0,0.0,0.0,0.0,0.0,0.0,0.0,0.0,0.0,0.0,0.0,0.0,0.0,0.0,0.0,0.0,0.0,0.0,0.0,0.0,0.0,-2.5693,-2.5693,-2.5693,-2.5693,-2.5693,-2.5693,-2.5693,-2.5693,-2.5693,-2.5693,-2.5693,-2.5693,-2.5693,-2.5693,-2.5693,-2.5693,-2.5693,-2.5693,-2.5693,-2.5693,-2.5693,-2.5693,-2.5693,-2.5693,-2.5693,-2.5693,-2.5693,-2.5693,-2.5693,-2.5693,-2.5693,-3.3124,0.0,0.0,0.0,0.0,0.0,0.0,0.0,0.0,0.0,-3.6038,0.0,-3.6158,0.0,-3.4255,0.0,-3.3442,-3.3035,-3.2717,-3.2716,0.0,-3.2315,-3.2461,-3.1603,0.0,0.0,0.0,0.0,0.0,-2.946,0.0,0.0,0.0,0.0,0.0,-2.9102,-2.8344,0.0,-2.9102,0.0,0.0,-2.8291,0.0,0.0,-2.8701,-2.8701,0.0,-2.8701,-2.8662,-2.8389,-2.8291,-2.8291,-2.8291,-2.8291,-2.8291,-2.8291,-2.8291,-2.8291,-2.8291,-2.8291,0.0,-2.8291,-2.8291,0.0,-2.8105,0.0,0.0,0.0,0.0,0.0,0.0,0.0,0.0,0.0,0.0,0.0,0.0,-2.639,0.0,0.0,0.0,0.0,0.0,0.0,-2.6658,-2.5781,-2.611,-2.6197,0.0,0.0,-2.5693,-2.5693,-2.5693,-2.5693,-2.5693,-2.5693,-2.5693,-2.5693,-2.5693,-2.5693,-2.5693,-2.5693,-2.5693,-2.5693,-2.5693,-2.5693,-2.5693,-2.5693,-2.5693,-2.5693,-2.5693,-2.5693,-2.5693,-2.5693,-2.5693,-2.5693,0.0,0.0,0.0,0.0,-3.4788,0.0,0.0,0.0,-3.6405,0.0,-3.6812,-3.7315,-3.7841,-3.5747,-3.5129,-3.7097,-3.336,-3.1919,-3.4238,-3.3026,0.0,0.0,-3.2315,-3.1513,-2.8354,0.0,0.0,0.0,0.0,0.0,0.0,0.0,0.0,0.0,-2.8398,0.0,-2.8291,-2.8398,-2.8344,-2.8291,-2.8291,-2.8291,-2.8291,-2.8291,-2.8291,-2.8291,-2.8291,-2.8291,-2.8291,-2.8291,-2.8291,-2.8291,-2.8291,-2.8291,-2.8291,-2.8291,-2.8291,-2.8291,-2.8291,-2.8291,-2.8291,-2.8291,0.0,0.0,0.0,0.0,-2.7425,0.0,0.0,0.0,0.0,0.0,0.0,0.0,0.0,0.0,0.0,0.0,0.0,0.0,0.0,0.0,0.0,-2.8588,-2.8215,-2.5878,-2.6802,0.0,0.0,0.0,-2.5693,-2.5693,-2.5693,-2.5693,-2.5693,-2.5693,-2.5693,-2.5693,-2.5693,-2.5693,-2.5693,-2.5693,-2.5693,-2.5693,-2.5693,-2.5693,-2.5693,-2.5693,-2.5693,-2.5693,-2.5693,-2.5732,-2.5781,-2.5732,-2.5693,-2.5684,-3.3124,-3.3124,-3.3257,0.0,-3.4474,-3.5019,0.0,0.0,0.0,0.0,-3.6272,-3.6182,-3.6377,-3.4625,-3.366,-3.4159,-3.2207,0.0,0.0,0.0,0.0,-3.0058,-3.1922,-3.1513,-2.8354,-2.9964,-3.0162,-2.8794,0.0,0.0,-3.0266,0.0,0.0,0.0,0.0,0.0,-2.8398,-2.9355,-2.9207,-2.8291,-2.8291,-2.8291,0.0,0.0,-2.8291,-2.8291,-2.8291,-2.8291,-2.8291,-2.8291,-2.8291,-2.8291,-2.8291,-2.8291,-2.8291,-2.8291,-2.8291,-2.8291,-2.8291,-2.8291,-2.8291,-2.8291,-2.8057,-2.7855,0.0,0.0,0.0,0.0,0.0,0.0,0.0,0.0,0.0,0.0,0.0,0.0,0.0,0.0,0.0,-2.7908,0.0,0.0,0.0,-2.703,-2.638,-2.5732,-2.6014,0.0,0.0,0.0,0.0,-2.5693,-2.5693,-2.5693,-2.5693,-2.5693,-2.5693,-2.5693,-2.5693,-2.5693,-2.5693,-2.5693,-2.5693,-2.5693,-2.5693,-2.5693,-2.5693,-2.5693,-2.5693,-2.5693,-2.5693,-2.6294,-2.6982,-2.6062,-2.5693,-2.583,-3.3124,0.0,0.0,-3.3847,0.0,0.0,-3.5445,-3.6006,0.0,-3.6732,-3.6752,0.0,-3.6228,-3.4926,-3.38,-3.3191,-3.1767,0.0,-3.1825,0.0,0.0,-3.0615,-3.1192,-3.0531,-2.8354,-2.9049,0.0,-2.8291,0.0,0.0,-2.9408,0.0,0.0,0.0,0.0,-2.8825,0.0,-2.9112,-2.9006,-2.8291,-2.8291,0.0,0.0,-2.8291,-2.8291,-2.8291,-2.8291,-2.8291,-2.8291,-2.8291,-2.8291,-2.8291,-2.8291,-2.8291,-2.8291,-2.8291,-2.8291,-2.8291,-2.8291,-2.8154,-2.8018,-2.8018,-2.7695,-2.7334,-2.7148,-2.6738,-2.6338,0.0,0.0,-2.5693,0.0,0.0,0.0,0.0,0.0,0.0,0.0,0.0,0.0,0.0,-2.8541,0.0,0.0,-2.7898,-2.7437,-2.583,0.0,0.0,0.0,0.0,0.0,-2.5693,-2.5693,-2.5693,-2.5693,-2.5693,-2.5693,-2.5693,-2.5693,-2.5693,-2.5693,-2.5693,-2.5693,-2.5693,-2.5693,-2.5693,-2.5693,-2.5693,-2.5693,-2.5781,-2.6294,-2.662,-2.6754,-2.6572,-2.6839,-2.7437,-3.3212,0.0,0.0,0.0,0.0,0.0,0.0,-3.6056,0.0,-3.7111,0.0,-3.7692,-3.6789,-3.6025,-3.4902,-3.3247,0.0,-3.1652,-3.2747,-3.1544,-3.104,-3.1472,-3.0204,-2.9111,-2.831,-2.8291,-2.8291,0.0,0.0,0.0,0.0,0.0,0.0,0.0,0.0,0.0,0.0,-2.8291,-2.8291,-2.8291,-2.8291,-2.8291,-2.8291,-2.8291,-2.8291,-2.8291,-2.8291,-2.8291,-2.8291,-2.8291,-2.8291,-2.8291,-2.8291,-2.8291,-2.8291,-2.8291,-2.8252,-2.8213,-2.8213,-2.79,-2.764,-2.764,-2.7256,-2.6836,-2.6475,-2.6348,-2.6191,-2.5762,-2.5693,-2.5693,0.0,0.0,0.0,0.0,0.0,0.0,0.0,0.0,0.0,0.0,0.0,0.0,0.0,0.0,0.0,0.0,0.0,0.0,0.0,0.0,0.0,-2.5693,-2.5693,-2.5693,-2.5693,0.0,-2.5693,-2.5693,-2.5693,-2.5693,-2.5693,-2.5693,-2.5693,-2.5693,-2.5693,-2.5693,-2.5693,-2.5693,-2.5781,-2.6062,-2.7173,-2.703,-2.6284,-2.7268,-2.8448,-2.959,0.0,0.0,0.0,0.0,0.0,-3.5658,-3.6157,-3.6342,-3.6606,-3.7111,-3.7663,-3.7692,-3.6789,-3.6944,-3.6042,-3.335,-3.2851,0.0,0.0,0.0,0.0,-3.0026,-2.9384,-2.8799,-2.8301,-2.8291,-2.8291,0.0,0.0,0.0,0.0,0.0,0.0,0.0,0.0,0.0,-2.8291,-2.8291,0.0,-2.8291,-2.8291,-2.8291,-2.8291,-2.8291,-2.8291,-2.8291,-2.8291,-2.8291,-2.8291,-2.8291,-2.8291,-2.8291,-2.8291,-2.8291,-2.8291,-2.8291,-2.8047,-2.7826,-2.7826,-2.7461,-2.7129,-2.7129,-2.6816,-2.6484,-2.6406,-2.6113,-2.5781,-2.5703,-2.5693,-2.5693,-2.5693,0.0,0.0,0.0,0.0,0.0,0.0,0.0,0.0,0.0,0.0,-2.7589,0.0,0.0,0.0,0.0,0.0,0.0,0.0,0.0,0.0,0.0,-2.5693,0.0,0.0,0.0,-2.5693,-2.5693,-2.5693,-2.5693,-2.5693,-2.5693,-2.5693,-2.5693,-2.5693,-2.5693,-2.5693,-2.5693,-2.6342,-2.7315,-2.7494,-2.8085,-2.8669,-2.7861,-2.8993,-3.0721,0.0,0.0,0.0,0.0,0.0,0.0,0.0,-3.6405,-3.6606,-3.7111,-3.7663,-3.7692,-3.6789,-3.7156,-3.6314,-3.335,-3.3077,-3.237,-3.0652,-3.0322,-2.9912,-2.9258,-2.9033,-2.8721,-2.8301,-2.8291,-2.8291,-2.8291,0.0,0.0,0.0,0.0,0.0,0.0,0.0,-2.7836,0.0,0.0,0.0,-2.8291,-2.8291,-2.8291,-2.8291,-2.8291,-2.8291,-2.8291,-2.8291,-2.8291,-2.8291,-2.8291,-2.8291,-2.8291,-2.8291,-2.8144,-2.7969,-2.7969,-2.7666,-2.7334,-2.7334,-2.7012,-2.6689,-2.6689,-2.6367,-2.6055,-2.6055,-2.584,-2.5693,-2.5693,-2.5693,-2.5693,-2.5693,-2.5693,0.0,0.0,0.0,0.0,0.0,0.0,0.0,0.0,0.0,0.0,0.0,0.0,0.0,0.0,0.0,0.0,0.0,0.0,0.0,0.0,0.0,0.0,0.0,0.0,0.0,-2.5693,-2.5693,-2.5693,-2.5693,-2.5693,-2.5693,-2.5693,-2.5693,-2.5693,-2.5693,-2.5693,-2.6062,-2.6668,-2.7363,-2.7955,-2.8448,-2.8495,-2.9269,-3.0271,0.0,-3.4906,0.0,0.0,-3.6069,0.0,-3.6405,-3.6405,-3.6511,-3.676,-3.7196,-3.7166,-3.6206,-3.6555,-3.5782,-3.3064,-3.284,-3.202,-3.0192,-2.998,-2.9619,-2.8945,-2.8838,-2.8633,-2.8301,-2.8291,-2.8291,0.0,0.0,0.0,0.0,0.0,0.0,0.0,0.0,0.0,0.0,0.0,-2.8076,-2.8164,-2.8164,-2.8213,-2.8281,-2.8193,-2.8164,-2.8144,-2.8057,-2.8018,-2.8018,-2.8018,-2.8086,-2.8144,-2.8047,-2.7793,-2.7529,-2.7529,-2.7217,-2.6885,-2.6885,-2.6572,-2.625,-2.625,-2.5986,-2.5693,-2.5693,-2.5693,-2.5693,-2.5693,-2.5693,-2.5693,-2.5693,-2.5693,0.0,0.0,0.0,0.0,0.0,0.0,0.0,0.0,0.0,0.0,-2.61,0.0,0.0,0.0,0.0,0.0,0.0,0.0,0.0,0.0,0.0,-2.61,-2.61,0.0,-2.5693,-2.5693,-2.5693,-2.5693,-2.5693,-2.5693,-2.5693,-2.5693,-2.5693,-2.5693,-2.5742,-2.5965,-2.6235,-2.661,-2.7579,-2.8132,-2.8459,-2.9131,-2.9544,-2.9909,0.0,0.0,0.0,0.0,0.0,0.0,-3.6405,-3.6405,-3.6164,-3.5497,-3.5762,-3.5561,-3.438,-3.4634,-3.406,-3.2078,-3.1938,-3.1282,-2.9741,-2.9258,-2.9004,-2.8926,-2.8555,-2.833,-2.8291,-2.8291,-2.8291,0.0,0.0,-2.7871,0.0,0.0,0.0,0.0,0.0,0.0,0.0,-2.7119,-2.7363,-2.7777,-2.7777,-2.7949,-2.8252,-2.7924,-2.7777,-2.7676,-2.7275,-2.7139,-2.7139,-2.7139,-2.7393,-2.7656,-2.7266,-2.7109,-2.708,-2.708,-2.6777,-2.6445,-2.6445,-2.6133,-2.5752,-2.5752,-2.5713,-2.5693,-2.5693,-2.5693,-2.5693,-2.5693,-2.5693,-2.5693,-2.5693,-2.5693,-2.5693,0.0,0.0,0.0,0.0,0.0,-2.611,-2.7268,0.0,0.0,0.0,-2.8541,0.0,0.0,-2.6754,0.0,0.0,0.0,0.0,-2.74,0.0,-2.74,-2.74,-2.6294,-2.5693,-2.5693,-2.5693,-2.5693,-2.5693,-2.5693,-2.5693,-2.5693,-2.5693,-2.5693,-2.5781,-2.6945,-2.8085,-2.9085,-2.9177,-2.9909,-3.0721,-2.9772,-3.009,-3.1033,0.0,0.0,0.0,0.0,0.0,0.0,0.0,-3.5223,-3.4787,-3.3631,-3.4609,-3.5031,-3.3975,-3.4083,-3.3586,-3.193,-3.1811,-3.1055,-2.93,-2.9014,-2.8809,-2.8555,-2.8389,-2.8291,-2.8291,-2.8291,-2.8291,0.0,0.0,0.0,0.0,0.0,0.0,0.0,0.0,-2.6484,-2.666,-2.6904,-2.7119,-2.7275,-2.7275,-2.7383,-2.751,-2.7334,-2.7275,-2.7256,-2.708,-2.7012,-2.6973,-2.6728,-2.6924,-2.7246,-2.707,-2.6846,-2.6641,-2.6641,-2.6338,-2.5996,-2.5996,-2.582,-2.5693,-2.5693,-2.5693,-2.5693,-2.5693,-2.5693,-2.5693,-2.5693,-2.5693,-2.5693,-2.5693,-2.5693,-2.5693,0.0,0.0,0.0,0.0,0.0,0.0,-2.638,0.0,-2.6476,0.0,0.0,0.0,0.0,0.0,0.0,0.0,0.0,0.0,-2.8634,0.0,-2.6849,-2.7589,-2.6342,-2.5693,-2.5693,-2.5693,-2.5693,-2.5693,-2.5693,-2.5693,-2.5693,-2.5693,-2.6149,-2.6897,-2.74,-2.8319,-2.9373,-2.9037,-2.9688,-3.0624,-2.9826,-3.0283,-3.1343,-3.578,0.0,-3.6405,0.0,-3.6405,-3.5966,-3.4581,-3.4385,-3.3819,-3.2137,-3.2977,-3.3492,-3.2818,-3.2603,-3.2052,-3.0895,-3.0776,-3.0167,-2.8804,-2.874,-2.8603,-2.8301,-2.8291,0.0,-2.8291,-2.8291,-2.8291,-2.8291,-2.8291,0.0,0.0,0.0,0.0,0.0,-2.6055,-2.6201,-2.6211,-2.6514,-2.6719,-2.6836,-2.6836,-2.6904,-2.7002,-2.6875,-2.6836,-2.6816,-2.6689,-2.6641,-2.6592,-2.6299,-2.6396,-2.6641,-2.6641,-2.6435,-2.6201,-2.6201,-2.5977,-2.5693,-2.5693,-2.5693,-2.5693,-2.5693,-2.5693,-2.5693,-2.5693,-2.5693,-2.5693,-2.5693,-2.5693,-2.5693,-2.5693,-2.5693,-2.5693,-2.5693,0.0,0.0,0.0,-2.5693,0.0,0.0,-2.6245,-2.6245,-2.6245,-2.74,0.0,0.0,0.0,0.0,0.0,0.0,0.0,0.0,0.0,0.0,0.0,-2.6342,-2.5693,-2.5693,-2.5693,-2.5693,-2.5693,-2.5693,-2.5693,-2.5693,-2.5693,-2.6127,-2.6872,-2.7202,-2.7971,-2.8936,-2.89,-2.9639,-3.0646,-3.0272,-3.065,-3.1386,-3.6405,-3.6405,-3.6405,-3.6405,-3.6405,-3.5966,-3.4581,-3.4385,-3.36,-3.1307,-3.0611,-3.038,-3.0338,-2.9494,-2.8814,-2.8393,-2.8364,-2.8301,-2.8301,-2.8301,-2.8301,0.0,0.0,-2.8291,-2.8291,-2.8291,-2.8291,-2.8291,0.0,0.0,-2.6992,0.0,-2.5703,-2.5693,-2.5693,-2.5693,-2.5693,-2.5703,-2.6006,-2.6396,-2.6396,-2.665,-2.6973,-2.6553,-2.6396,-2.6338,-2.5859,-2.5703,-2.5703,-2.5703,-2.5703,-2.5703,-2.5703,-2.5703,-2.5693,-2.5693,-2.5693,-2.5693,-2.5693,-2.5693,-2.5693,-2.5693,-2.5693,-2.5693,-2.5693,-2.5693,-2.5693,-2.5693,-2.5693,-2.5693,-2.5693,-2.5693,-2.5693,-2.5693,0.0,0.0,0.0,0.0,0.0,-2.7458,-2.7589,-2.7589,-2.7589,-2.868,0.0,0.0,0.0,0.0,0.0,0.0,0.0,-2.7636,-2.7589,0.0,-2.7589,-2.6342,-2.5693,-2.5693,-2.5693,-2.5693,-2.5693,-2.5693,-2.5693,-2.5693,-2.5693,-2.5478,-2.521,-2.6249,-2.7192,-2.8026,-2.9157,-3.0318,-3.1399,-3.1386,-3.1386,-3.1386,-3.6203,-3.4896,-3.3897,-3.4872,-3.4252,-3.3132,-3.1785,-3.1582,-3.1341,-3.0621,-2.9595,-2.9303,-3.0214,-2.9232,-2.8437,0.0,-2.8291,-2.8291,0.0,-2.8291,-2.8291,-2.8291,-2.8291,-2.8291,-2.8291,-2.8291,-2.8291,-2.8291,0.0,0.0,0.0,-2.6093,-2.5693,-2.5693,-2.5693,-2.5693,-2.5693,-2.5693,-2.5771,-2.5947,-2.5947,-2.6025,-2.6074,-2.5947,-2.5947,-2.5879,-2.5732,-2.5693,-2.5693,-2.5693,-2.5693,-2.5693,-2.5693,-2.5693,-2.5693,-2.5693,-2.5693,-2.5693,-2.5693,-2.5693,-2.5693,-2.5693,-2.5693,-2.5693,-2.5693,-2.5693,-2.5693,-2.5693,-2.5693,-2.5693,-2.5693,-2.5693,-2.5693,-2.5693,-2.5693,0.0,0.0,0.0,-2.583,-2.6245,-2.6294,-2.6294,-2.6294,-2.6658,0.0,0.0,0.0,0.0,0.0,0.0,0.0,0.0,-2.7173,0.0,-2.7589,-2.6342,-2.5693,-2.5693,-2.5693,-2.5693,-2.5693,-2.5693,-2.5693,-2.5674,-2.541,-2.6111,-2.7484,-2.751,-2.8628,-3.0269,-3.027,-3.0524,-3.0821,-3.0432,-3.0294,-3.0294,-3.5571,-3.4264,-3.3204,-3.3563,-3.2894,-3.1836,-3.0514,-3.0317,-3.012,-2.9608,-2.8804,-2.8601,-2.946,-2.8804,0.0,-2.8291,-2.8291,-2.8291,-2.8291,-2.8291,-2.8291,-2.8291,-2.8291,-2.8291,-2.8291,-2.8291,0.0,-2.8291,-2.7969,-2.7461,-2.6768,-2.6015,-2.5693,-2.5693,-2.5693,-2.5693,-2.5693,-2.5693,-2.5693,-2.5693,-2.5693,-2.5693,-2.5693,-2.5693,-2.5693,-2.5693,-2.5693,-2.5693,-2.5693,-2.5693,-2.5693,-2.5693,-2.5693,-2.5693,-2.5693,-2.5693,-2.5693,-2.5693,-2.5693,-2.5693,-2.5693,-2.5693,-2.5693,-2.5693,-2.5693,-2.5693,-2.5693,-2.5693,-2.5693,-2.5693,-2.5693,-2.5693,-2.5693,-2.5693,-2.5693,-2.5693,-2.5693,0.0,0.0,0.0,0.0,0.0,0.0,-2.5965,-2.5615,0.0,0.0,0.0,0.0,0.0,0.0,-2.7945,-2.6514,0.0,-2.6897,-2.611,-2.5693,-2.5693,-2.5566,-2.5488,-2.5478,-2.5265,-2.5425,-2.5832,-2.5578,-2.6428,-2.8052,-2.8171,-2.8987,-3.0186,-3.0261,-3.0306,-3.0269,-2.9917,-2.9792,-2.9792,-3.4471,-3.4178,-3.3723,0.0,-3.2079,0.0,-3.0369,-3.0162,-2.9713,-2.8441,-2.8291,-2.8291,-2.8291,-2.8291,-2.8291,-2.8291,0.0,0.0,0.0,-2.8291,-2.8291,-2.8291,-2.8291,-2.8291,-2.8291,-2.8291,-2.8281,-2.8252,-2.7422,-2.6797,-2.6377,-2.5947,-2.5693,-2.5693,-2.5693,-2.5693,-2.5693,-2.5693,-2.5693,-2.5693,-2.5693,-2.5693,-2.5693,-2.5693,-2.5693,-2.5693,-2.5693,-2.5693,-2.5693,-2.5693,-2.5693,-2.5693,-2.5693,-2.5693,-2.5693,-2.5693,-2.5693,-2.5693,-2.5693,-2.5693,-2.5693,-2.5693,-2.5693,-2.5693,-2.5693,-2.5693,-2.5693,-2.5693,-2.5693,-2.5693,-2.5693,-2.5693,-2.5693,-2.5693,-2.5693,-2.5693,-2.5693,0.0,0.0,0.0,0.0,0.0,0.0,-2.634,-2.5508,0.0,0.0,0.0,0.0,0.0,-2.5596,-2.5596,-2.5596,-2.5596,-2.5596,-2.5596,-2.5596,-2.5596,-2.5225,-2.5067,-2.5151,-2.4646,-2.5037,-2.6193,-2.6038,-2.6419,-2.7273,-2.8256,-2.8454,-2.8307,-2.9404,-2.9792,-2.9792,-2.9792,-2.9792,-2.9792,0.0,0.0,-3.1184,-3.0824,-2.9911,-2.9154,-2.8794,-2.8751,-2.8644,-2.8344,-2.8291,-2.8291,-2.8291,-2.8291,-2.8291,-2.8291,-2.8291,-2.8291,-2.8291,-2.8291,-2.8291,-2.8291,-2.8291,-2.8291,-2.8291,-2.8291,-2.8135,-2.7812,-2.7275,-2.6797,-2.6377,-2.5947,-2.5693,-2.5693,-2.5693,-2.5693,-2.5693,-2.5693,-2.5693,-2.5693,-2.5693,-2.5693,-2.5693,-2.5693,-2.5693,-2.5693,-2.5693,-2.5693,-2.5693,-2.5693,-2.5693,-2.5693,-2.5693,-2.5693,-2.5693,-2.5693,-2.5693,-2.5693,-2.5693,-2.5693,-2.5693,-2.5693,-2.5693,-2.5693,-2.5693,-2.5693,-2.5693,-2.5693,-2.5693,-2.5693,-2.5693,-2.5693,-2.5693,-2.5693,-2.5693,-2.5693,-2.5693,-2.5693,0.0,0.0,-2.5868,-2.5692,-2.5672,-2.5405,-2.5039,0.0,0.0,0.0,0.0,-2.4619,-2.4727,-2.4727,-2.4727,-2.4727,-2.4727,-2.4727,-2.4727,-2.4727,-2.4619,-2.5023,-2.5828,-2.4868,-2.5472,-2.7195,-2.5204,-2.5901,-2.835,-2.7419,-2.7985,-2.9404,-2.9702,-2.9792,-2.9792,-2.9792,-2.9792,-2.9792,-3.1633,-3.0824,-3.012,-2.9513,-2.8804,-2.8291,-2.8291,-2.8291,-2.8291,-2.8291,-2.8291,-2.8291,-2.8291,-2.8291,-2.8291,-2.8291,-2.8291,-2.8291,-2.8291,-2.8291,-2.8291,-2.8291,-2.8291,-2.8291,-2.8291,-2.8291,-2.7988,-2.7373,-2.6943,-2.6514,-2.6084,-2.5801,-2.5693,-2.5693,-2.5693,-2.5693,-2.5693,-2.5693,-2.5693,-2.5693,-2.5693,-2.5693,-2.5693,-2.5693,-2.5693,-2.5693,-2.5693,-2.5693,-2.5693,-2.5693,-2.5693,-2.5693,-2.5693,-2.5693,-2.5693,-2.5693,-2.5693,-2.5693,-2.5693,-2.5693,-2.5693,-2.5693,-2.5693,-2.5693,-2.5693,-2.5693,-2.5693,-2.5693,-2.5693,-2.5693,-2.5693,-2.5693,-2.5693,-2.5693,-2.5693,-2.5693,-2.5693,-2.5693,0.0,-2.5459,-2.543,-2.5264,-2.4814,-2.4775,-2.459,-2.416,-2.4131,0.0,-2.3793,-2.3828,-2.4014,-2.4404,-2.4414,-2.4414,-2.4414,-2.4414,-2.4414,-2.4414,-2.4219,-2.4439,-2.5006,-2.4187,-2.4727,-2.6292,-2.4856,-2.584,-2.8419,-2.7569,-2.8251,-2.9792,-2.9792,-2.9792,-2.9792,-2.9792,-2.9792,-2.9792,-3.0452,-3.0162,-2.9869,-2.8548,-2.8291,-2.8291,-2.8291,-2.8291,-2.8291,-2.8291,-2.8291,-2.8291,-2.8291,-2.8291,-2.8291,-2.8291,-2.8291,-2.8291,-2.8291,-2.8291,-2.8291,-2.8291,-2.8291,-2.8291,-2.8291,-2.8232,-2.7773,-2.6914,-2.6562,-2.6162,-2.5693,-2.5693,-2.5693,-2.5693,-2.5693,-2.5693,-2.5693,-2.5693,-2.5693,-2.5693,-2.5693,-2.5693,-2.5693,-2.5693,-2.5693,-2.5693,-2.5693,-2.5693,-2.5693,-2.5693,-2.5693,-2.5693,-2.5693,-2.5693,-2.5693,-2.5693,-2.5693,-2.5693,-2.5693,-2.5693,-2.5693,-2.5693,-2.5693,-2.5693,-2.5693,-2.5693,-2.5693,-2.5693,-2.5693,-2.5693,-2.5693,-2.5693,-2.5693,-2.5693,-2.5693,-2.5664,-2.5596,0.0,-2.5469,-2.5019,-2.4971,-2.4795,-2.4365,-2.4316,-2.415,-2.3721,-2.3691,-2.3525,-2.311,-2.3091,-2.3422,-2.4199,-2.4173,-2.4173,-2.4173,-2.4173,-2.4173,-2.4219,-2.3857,-2.3771,-2.394,-2.3345,-2.392,-2.5284,-2.4957,-2.6149,-2.8347,-2.8176,-2.8767,-2.9792,-2.9792,-2.9792,-2.9792,-2.9792,-2.9792,-2.9792,-2.883,-2.9503,-2.9869,-2.8548,-2.8291,-2.8291,-2.8291,-2.8291,-2.8291,-2.8291,-2.8291,-2.8291,-2.8291,-2.8291,-2.8291,-2.8291,-2.8291,-2.8291,-2.8291,-2.8291,-2.8291,-2.8291,-2.8291,-2.8291,-2.8291,-2.7949,-2.7344,-2.6484,-2.6426,-2.6162,-2.5693,-2.5693,-2.5693,-2.5693,-2.5693,-2.5693,-2.5693,-2.5693,-2.5693,-2.5693,-2.5693,-2.5693,-2.5693,-2.5693,-2.5693,-2.5693,-2.5693,-2.5693,-2.5693,-2.5693,-2.5693,-2.5693,-2.5693,-2.5693,-2.5693,-2.5693,-2.5693,-2.5693,-2.5693,-2.5693,-2.5693,-2.5693,-2.5693,-2.5693,-2.5693,-2.5693,-2.5693,-2.5693,-2.5693,-2.5693,-2.5693,-2.5693,-2.5693,-2.5693,-2.5693,-2.5605,-2.5225,0.0,-2.501,-2.457,-2.4521,-2.4355,-2.3926,-2.3887,-2.3701,-2.3227,-2.3198,-2.3169,-2.3101,-2.3091,-2.3149,-2.3286,-2.3296,-2.3296,-2.3296,-2.3296,-2.3296,-2.3296,-2.3227,-2.3694,-2.4603,-2.358,-2.4755,-2.747,-2.5608,-2.6614,-2.9456,-2.8518,-2.8767,-2.9792,-2.9792,-2.9792,-2.9792,-2.9792,-2.9792,-2.9792,-2.8216,-2.8645,-2.9059,-2.8388,-2.8291,-2.8291,-2.8291,-2.8291,-2.8291,-2.8291,-2.8291,-2.8291,-2.8291,-2.8291,-2.8291,-2.8291,-2.8291,-2.8291,-2.8291,-2.8291,-2.8291,-2.8291,-2.8076,-2.7842,-2.7607,-2.7197,-2.6787,-2.6387,-2.6152,-2.5937,-2.5693,-2.5693,-2.5693,-2.5693,-2.5693,-2.5693,-2.5693,-2.5693,-2.5693,-2.5693,-2.5693,-2.5693,-2.5693,-2.5693,-2.5693,-2.5693,-2.5693,-2.5693,-2.5693,-2.5693,-2.5693,-2.5693,-2.5693,-2.5693,-2.5693,-2.5693,-2.5693,-2.5693,-2.5693,-2.5693,-2.5693,-2.5693,-2.5693,-2.5693,-2.5693,-2.5693,-2.5693,-2.5693,-2.5693,-2.5693,-2.5693,-2.5693,-2.5615,-2.541,-2.5371,0.0,0.0,-2.4717,-2.456,-2.4131,-2.4082,-2.3906,-2.3486,-2.3437,-2.3315,-2.311,-2.3091,-2.3091,-2.3091,-2.3091,-2.3091,-2.3091,-2.3091,-2.3091,-2.3091,-2.3091,-2.3091,-2.3091,-2.3091,-2.3387,-2.3887,-2.3343,-2.4296,-2.6273,-2.5241,-2.6356,-2.8858,-2.8307,-2.8767,-2.9792,-2.9792,-2.9792,-2.9792,-2.9792,-2.9792,-2.9792,-2.7749,-2.7851,-2.8144,-2.8144,-2.8232,-2.8291,-2.8291,-2.8291,-2.8291,-2.8291,-2.8291,-2.8252,-2.8154,-2.8144,-2.8105,-2.8008,-2.7998,-2.7998,-2.7998,-2.7998,-2.8047,-2.8144,-2.7744,-2.7314,-2.6875,-2.6553,-2.6338,-2.624,-2.5908,-2.5693,-2.5693,-2.5693,-2.5693,-2.5693,-2.5693,-2.5693,-2.5693,-2.5693,-2.5693,-2.5693,-2.5693,-2.5693,-2.5693,-2.5693,-2.5693,-2.5693,-2.5693,-2.5693,-2.5693,-2.5693,-2.5693,-2.5693,-2.5693,-2.5693,-2.5693,-2.5693,-2.5693,-2.5693,-2.5693,-2.5693,-2.5693,-2.5693,-2.5693,-2.5693,-2.5693,-2.5693,-2.5693,-2.5693,-2.5693,-2.5693,-2.5693,-2.5606,-2.5469,-2.5174,0.0,0.0,0.0,-2.4268,-2.4111,-2.3691,-2.3633,-2.3506,-2.312,-2.3091,-2.3091,-2.3091,-2.3091,-2.3091,-2.3091,-2.3091,-2.3091,-2.3091,-2.3091,-2.3091,-2.3091,-2.3091,-2.3091,-2.3091,-2.3091,-2.3091,-2.3091,-2.3091,-2.3887,-2.521,-2.521,-2.6449,-2.8518,-2.8518,-2.9028,-2.9792,-2.9792,-2.9792,-2.9792,-2.9792,-2.9792,-2.9792,-2.6982,-2.7412,-2.7767,-2.7767,-2.8037,-2.8291,-2.8291,-2.8291,-2.8291,-2.8291,-2.8291,-2.8144,-2.7754,-2.7767,-2.7549,-2.7139,-2.7109,-2.7109,-2.7109,-2.7109,-2.7295,-2.7748,-2.7295,-2.6865,-2.6445,-2.6406,-2.6191,-2.5732,-2.5703,-2.5693,-2.5693,-2.5693,-2.5693,-2.5693,-2.5693,-2.5693,-2.5693,-2.5693,-2.5693,-2.5693,-2.5693,-2.5693,-2.5693,-2.5693,-2.5693,-2.5693,-2.5693,-2.5693,-2.5693,-2.5693,-2.5693,-2.5693,-2.5693,-2.5693,-2.5693,-2.5693,-2.5693,-2.5693,-2.5693,-2.5693,-2.5693,-2.5693,-2.5693,-2.5693,-2.5693,-2.5693,-2.5693,-2.5693,-2.5693,-2.5693,-2.5693,-2.54,-2.5155,-2.5116,0.0,0.0,-2.3896,-2.3838,-2.3672,-2.3198,-2.314,-2.313,-2.3101,-2.3091,-2.3091,-2.3091,-2.3091,-2.3091,-2.3091,-2.3091,-2.3091,-2.3091,-2.3091,-2.3091,-2.3091,-2.3091,-2.3091,-2.3091,-2.3091,-2.3091,-2.3091,-2.3091,-2.4307,-2.6348,-2.6348,-2.7637,-2.9663,-2.9663,-2.9702,-2.9792,-2.9792,-2.9792,-2.9792,-2.9792,-2.9792,-2.9792,-2.6592,-2.6973,-2.7266,-2.7266,-2.7393,-2.75,-2.75,-2.75,-2.75,-2.75,-2.75,-2.7441,-2.7275,-2.7266,-2.7197,-2.7031,-2.7012,-2.7012,-2.7012,-2.6768,-2.6699,-2.6865,-2.6719,-2.6426,-2.5996,-2.5986,-2.5908,-2.5693,-2.5693,-2.5693,-2.5693,-2.5693,-2.5693,-2.5693,-2.5693,-2.5693,-2.5693,-2.5693,-2.5693,-2.5693,-2.5693,-2.5693,-2.5693,-2.5693,-2.5693,-2.5693,-2.5693,-2.5693,-2.5693,-2.5693,-2.5693,-2.5693,-2.5693,-2.5693,-2.5693,-2.5693,-2.5693,-2.5693,-2.5693,-2.5693,-2.5693,-2.5693,-2.5693,-2.5693,-2.5693,-2.5693,-2.5615,-2.5381,-2.5322,-2.5244,-2.4971,-2.4775,-2.458,-2.4316,0.0,-2.3877,-2.3447,-2.3389,-2.3276,-2.311,-2.3091,-2.3091,-2.3091,-2.3091,-2.3091,-2.3091,-2.3091,-2.3091,-2.3091,-2.3091,-2.3091,-2.3091,-2.3091,-2.3091,-2.3091,-2.3091,-2.3091,-2.3091,-2.3091,-2.3464,-2.4168,-2.4168,-2.5368,-2.7493,-2.7493,-2.8359,-2.9792,-2.9792,-2.9792,-2.9792,-2.9792,-2.9792,-2.9792,-2.9792,-2.9792,-2.9792,-2.6182,-2.6523,-2.6816,-2.6816,-2.6934,-2.7012,-2.7012,-2.7012,-2.7012,-2.7012,-2.7012,-2.6963,-2.6836,-2.6816,-2.6758,-2.6621,-2.6611,-2.6611,-2.6611,-2.6348,-2.6182,-2.6182,-2.6182,-2.6045,-2.5693,-2.5693,-2.5693,-2.5693,-2.5693,-2.5693,-2.5693,-2.5693,-2.5693,-2.5693,-2.5693,-2.5693,-2.5693,-2.5693,-2.5693,-2.5693,-2.5693,-2.5693,-2.5693,-2.5693,-2.5693,-2.5693,-2.5693,-2.5693,-2.5693,-2.5693,-2.5693,-2.5693,-2.5693,-2.5596,-2.5527,-2.5527,-2.543,-2.5274,-2.5274,-2.5274,-2.5343,-2.5615,-2.5635,-2.5527,-2.5527,-2.542,-2.5234,-2.4932,-2.4863,-2.4775,-2.4473,-2.4307,-2.4121,-2.3838,-2.3682,-2.3486,-2.314,-2.3091,-2.3091,-2.3091,-2.3091,-2.3091,-2.3091,-2.3091,-2.3091,-2.3091,-2.3091,-2.3091,-2.3091,-2.3091,-2.3091,-2.3091,-2.3091,-2.3091,-2.3091,-2.3091,-2.3091,-2.3091,-2.3091,-2.3507,-2.4296,-2.4628,-2.5828,-2.7602,-2.7964,-2.8767,-2.9792,-2.9792,-2.9792,-2.9792,-2.9792,-2.9792,-2.9792,-2.9792,-2.9792,-2.9792,-2.5693,-2.6084,-2.6387,-2.6387,-2.6728,-2.7002,-2.7002,-2.7002,-2.7002,-2.7002,-2.7002,-2.6846,-2.6426,-2.6387,-2.6211,-2.5723,-2.5693,-2.5693,-2.5693,-2.5693,-2.5693,-2.5693,-2.5693,-2.5693,-2.5693,-2.5693,-2.5693,-2.5693,-2.5693,-2.5693,-2.5693,-2.5693,-2.5693,-2.5693,-2.5693,-2.5693,-2.5693,-2.5693,-2.5693,-2.5693,-2.5693,-2.5693,-2.5693,-2.5693,-2.5693,-2.5693,-2.5693,-2.5693,-2.5693,-2.5693,-2.5693,-2.5684,-2.5674,-2.542,-2.5106,-2.5106,-2.4756,-2.4414,-2.4414,-2.4414,-2.4629,-2.546,-2.5391,-2.5106,-2.5106,-2.4727,-2.4414,-2.4414,-2.4414,-2.4414,-2.4404,-2.4062,-2.3779,-2.3779,-2.3418,-2.3091,-2.3091,-2.3091,-2.3091,-2.3091,-2.3091,-2.3091,-2.3091,-2.3091,-2.3091,-2.3091,-2.3091,-2.3091,-2.3091,-2.3091,-2.3091,-2.3091,-2.3091,-2.3091,-2.3091,-2.3091,-2.3091,-2.3091,-2.3091,-2.3135,-2.3178,-2.4296,-2.5462,-2.6607,-2.7643,-2.8767,-2.9792,-2.9792,-2.9792,-2.9779,-2.9779,-2.9779,-2.9779,-2.9779,-2.9779,-2.9779,-2.5693,-2.5791,-2.5937,-2.5937,-2.5986,-2.6074,-2.6074,-2.6074,-2.6074,-2.6074,-2.6074,-2.6015,-2.5947,-2.5937,-2.583,-2.5703,-2.5693,-2.5693,-2.5693,-2.5693,-2.5693,-2.5693,-2.5693,-2.5693,-2.5693,-2.5693,-2.5693,-2.5693,-2.5693,-2.5693,-2.5693,-2.5693,-2.5693,-2.5693,-2.5693,-2.5693,-2.5693,-2.5693,-2.5693,-2.5693,-2.5693,-2.5693,-2.5693,-2.5693,-2.5693,-2.5693,-2.5693,-2.5693,-2.5693,-2.5693,-2.5527,-2.5215,-2.4902,-2.4717,-2.4609,-2.4609,-2.4521,-2.4414,-2.4414,-2.4414,-2.4482,-2.4746,-2.4717,-2.4609,-2.4609,-2.4512,-2.4336,-2.4033,-2.3975,-2.3887,-2.353,-2.3374,-2.3286,-2.3286,-2.3179,-2.3091,-2.3091,-2.3091,-2.3091,-2.3091,-2.3091,-2.3091,-2.3091,-2.3091,-2.3091,-2.3091,-2.3091,-2.3091,-2.3091,-2.3091,-2.3091,-2.3091,-2.2808,-2.2705,-2.2705,-2.2945,-2.3091,-2.3091,-2.392,-2.4713,-2.5515,-2.6614,-2.7735,-2.8831,-2.9157,-2.9495,-2.9792,-2.9792,-2.9553,-2.9189,-2.9189,-2.895,-2.8612,-2.8612,-2.8612,-2.8612,-2.5693,-2.5693,-2.5693,-2.5693,-2.5693,-2.5693,-2.5693,-2.5693,-2.5693,-2.5693,-2.5693,-2.5693,-2.5693,-2.5693,-2.5693,-2.5693,-2.5693,-2.5693,-2.5693,-2.5693,-2.5693,-2.5693,-2.5693,-2.5693,-2.5693,-2.5693,-2.5693,-2.5693,-2.5693,-2.5693,-2.5693,-2.5693,-2.5693,-2.5693,-2.5693,-2.5693,-2.5693,-2.5693,-2.5693,-2.5693,-2.5693,-2.5693,-2.5693,-2.5693,-2.5693,-2.5693,-2.5693,-2.5577,-2.5478,-2.5478,-2.5176,-2.4766,-2.4502,-2.4307,-2.417,-2.417,-2.4043,-2.3916,-2.3916,-2.3916,-2.3916,-2.3916,-2.4043,-2.417,-2.417,-2.4033,-2.3838,-2.3584,-2.3525,-2.3457,-2.314,-2.3091,-2.3091,-2.3091,-2.3091,-2.3091,-2.3091,-2.3091,-2.3091,-2.3091,-2.3091,-2.3091,-2.3091,-2.3091,-2.3091,-2.3091,-2.3091,-2.3091,-2.3091,-2.2935,-2.2847,-2.2847,-2.248,-2.2266,-2.2266,-2.2519,-2.2798,-2.3193,-2.4283,-2.5147,-2.5838,-2.6967,-2.7825,-2.853,-2.8924,-2.9126,-2.9126,-2.9126,-2.8913,-2.8562,-2.8562,-2.8398,-2.8109,-2.8109,-2.8109,-2.8109,-2.5693,-2.5693,-2.5693,-2.5693,-2.5693,-2.5693,-2.5693,-2.5693,-2.5693,-2.5693,-2.5693,-2.5693,-2.5693,-2.5693,-2.5693,-2.5693,-2.5693,-2.5693,-2.5693,-2.5693,-2.5693,-2.5693,-2.5693,-2.5693,-2.5693,-2.5693,-2.5693,-2.5693,-2.5693,-2.5693,-2.5693,-2.5693,-2.5693,-2.5693,-2.5693,-2.5693,-2.5693,-2.5693,-2.5693,-2.5693,-2.5693,-2.5693,-2.5693,-2.5693,-2.5664,-2.5625,-2.5625,-2.5391,-2.5047,-2.5018,-2.4687,-2.4355,-2.4316,-2.4043,-2.373,-2.373,-2.3447,-2.3091,-2.3091,-2.3091,-2.3091,-2.3091,-2.3437,-2.373,-2.373,-2.3428,-2.3091,-2.3091,-2.3091,-2.3091,-2.3091,-2.3091,-2.3091,-2.3091,-2.3091,-2.3091,-2.3091,-2.3091,-2.3091,-2.3091,-2.3091,-2.3091,-2.3091,-2.3091,-2.3091,-2.3091,-2.3062,-2.3042,-2.3042,-2.2643,-2.2461,-2.2461,-2.2051,-2.1826,-2.1826,-2.186,-2.2341,-2.3171,-2.4198,-2.467,-2.4709,-2.5866,-2.6385,-2.6422,-2.7496,-2.7987,-2.7987,-2.806,-2.8072,-2.8034,-2.8034,-2.7996,-2.7959,-2.7959,-2.7959,-2.7959,-2.5693,-2.5693,-2.5693,-2.5693,-2.5693,-2.5693,-2.5693,-2.5693,-2.5693,-2.5693,-2.5693,-2.5693,-2.5693,-2.5693,-2.5693,-2.5693,-2.5693,-2.5693,-2.5693,-2.5693,-2.5693,-2.5693,-2.5693,-2.5693,-2.5693,-2.5693,-2.5693,-2.5693,-2.5693,-2.5693,-2.5693,-2.5693,-2.5693,-2.5693,-2.5693,-2.5693,-2.5693,-2.5693,-2.5693,-2.5693,-2.5693,-2.5693,-2.5693,-2.5693,-2.5518,-2.5215,-2.5215,-2.4932,-2.4502,-2.418,-2.4004,-2.3867,-2.3481,-2.3305,-2.3237,-2.3237,-2.3169,-2.3091,-2.3091,-2.3091,-2.3091,-2.3091,-2.3169,-2.3237,-2.3237,-2.3159,-2.3091,-2.3091,-2.3091,-2.3091,-2.3091,-2.3091,-2.3091,-2.3091,-2.3091,-2.3091,-2.3091,-2.3091,-2.3091,-2.3091,-2.3091,-2.3091,-2.3091,-2.3091,-2.3091,-2.3091,-2.2789,-2.2646,-2.2646,-2.2246,-2.2021,-2.2021,-2.1602,-2.1337,-2.1337,-2.1774,-2.2065,-2.2226,-2.3273,-2.3761,-2.3812,-2.4965,-2.5481,-2.552,-2.65,-2.6914,-2.6989,-2.7791,-2.7846,-2.7457,-2.7457,-2.7241,-2.6851,-2.6851,-2.6851,-2.6851,-2.5693,-2.5693,-2.5693,-2.5693,-2.5693,-2.5693,-2.5693,-2.5693,-2.5693,-2.5693,-2.5693,-2.5693,-2.5693,-2.5693,-2.5693,-2.5693,-2.5693,-2.5693,-2.5693,-2.5693,-2.5693,-2.5693,-2.5693,-2.5693,-2.5693,-2.5693,-2.5693,-2.5693,-2.5693,-2.5693,-2.5693,-2.5693,-2.5693,-2.5693,-2.5693,-2.5693,-2.5693,-2.5693,-2.5693,-2.5693,-2.5693,-2.5693,-2.5664,-2.5498,-2.5273,-2.5086,-2.4834,-2.4482,-2.4053,-2.3623,-2.3486,-2.3437,-2.3169,-2.3091,-2.3091,-2.3091,-2.3091,-2.3091,-2.3091,-2.3091,-2.3091,-2.3091,-2.3091,-2.3091,-2.3091,-2.3091,-2.3091,-2.3091,-2.3091,-2.3091,-2.3091,-2.3091,-2.3091,-2.3091,-2.3091,-2.3091,-2.3091,-2.3091,-2.3091,-2.3091,-2.3091,-2.3091,-2.3091,-2.2916,-2.2799,-2.2799,-2.2451,-2.2217,-2.2217,-2.1807,-2.1582,-2.1582,-2.1143,-2.0918,-2.0918,-2.1198,-2.1541,-2.1978,-2.2995,-2.3755,-2.4249,-2.4837,-2.537,-2.585,-2.6324,-2.6541,-2.6577,-2.7128,-2.719,-2.6927,-2.6927,-2.6751,-2.6499,-2.6499,-2.6499,-2.6499,-2.5693,-2.5693,-2.5693,-2.5693,-2.5693,-2.5693,-2.5693,-2.5693,-2.5693,-2.5693,-2.5693,-2.5693,-2.5693,-2.5693,-2.5693,-2.5693,-2.5693,-2.5693,-2.5693,-2.5693,-2.5693,-2.5693,-2.5693,-2.5693,-2.5693,-2.5693,-2.5693,-2.5693,-2.5693,-2.5693,-2.5693,-2.5693,-2.5693,-2.5693,-2.5693,-2.5693,-2.5693,-2.5693,-2.5693,-2.5684,-2.5606,-2.5625,-2.5528,-2.5127,-2.4959,-2.4851,-2.4443,-2.4043,-2.3623,-2.3218,-2.3091,-2.3091,-2.3091,-2.3091,-2.3091,-2.3091,-2.3091,-2.3091,-2.3091,-2.3091,-2.3091,-2.3091,-2.3091,-2.3091,-2.3091,-2.3091,-2.3091,-2.3091,-2.3091,-2.3091,-2.3091,-2.3091,-2.3091,-2.3091,-2.3091,-2.3091,-2.3091,-2.3091,-2.3091,-2.3091,-2.3091,-2.3062,-2.2994,-2.2715,-2.248,-2.2412,-2.2012,-2.1777,-2.1777,-2.1357,-2.1123,-2.1123,-2.0762,-2.0605,-2.0605,-2.0605,-2.1011,-2.1773,-2.2601,-2.3526,-2.4492,-2.4301,-2.4779,-2.5744,-2.5908,-2.6082,-2.6245,-2.6418,-2.6499,-2.6499,-2.6499,-2.6499,-2.6499,-2.6499,-2.6499,-2.6499,-2.5693,-2.5693,-2.5693,-2.5693,-2.5693,-2.5693,-2.5693,-2.5693,-2.5693,-2.5693,-2.5693,-2.5693,-2.5693,-2.5693,-2.5693,-2.5693,-2.5693,-2.5693,-2.5693,-2.5693,-2.5693,-2.5693,-2.5693,-2.5693,-2.5693,-2.5693,-2.5693,-2.5693,-2.5693,-2.5693,-2.5693,-2.5693,-2.5693,-2.5693,-2.5693,-2.5693,-2.5693,-2.5693,-2.5693,-2.5654,-2.5312,-2.5156,-2.5107,-2.4668,-2.4277,-2.3955,-2.3896,-2.3594,-2.3169,-2.311,-2.3091,-2.3091,-2.3091,-2.3091,-2.3091,-2.3091,-2.3091,-2.3091,-2.3091,-2.3091,-2.3091,-2.3091,-2.3091,-2.3091,-2.3091,-2.3091,-2.3091,-2.3091,-2.3091,-2.3091,-2.3091,-2.3091,-2.3091,-2.3091,-2.3091,-2.3091,-2.3091,-2.3091,-2.3091,-2.3091,-2.3091,-2.2955,-2.2627,-2.2549,-2.2363,-2.2002,-2.1572,-2.1278,-2.1278,-2.0898,-2.0693,-2.0693,-2.0635,-2.0605,-2.0605,-2.0605,-2.0673,-2.0789,-2.0934,-2.1489,-2.2366,-2.1565,-2.1707,-2.2654,-2.3514,-2.4409,-2.5264,-2.6129,-2.6499,-2.6499,-2.6499,-2.6499,-2.6499,-2.6499,-2.6499,-2.6499,-2.5693,-2.5693,-2.5693,-2.5693,-2.5693,-2.5693,-2.5693,-2.5693,-2.5693,-2.5693,-2.5693,-2.5693,-2.5693,-2.5693,-2.5693,-2.5693,-2.5693,-2.5693,-2.5693,-2.5693,-2.5693,-2.5693,-2.5693,-2.5693,-2.5693,-2.5693,-2.5693,-2.5693,-2.5693,-2.5693,-2.5693,-2.5693,-2.5693,-2.5693,-2.5693,-2.5693,-2.5674,-2.5469,-2.5361,-2.5322,-2.4883,-2.4707,-2.4658,-2.4228,-2.3945,-2.376,-2.3516,-2.3257,-2.3091,-2.3091,-2.3091,-2.3091,-2.3091,-2.3091,-2.3091,-2.3091,-2.3091,-2.3091,-2.3091,-2.3091,-2.3091,-2.3091,-2.3091,-2.3091,-2.3091,-2.3091,-2.3091,-2.3091,-2.3091,-2.3091,-2.3091,-2.3091,-2.3091,-2.3091,-2.3091,-2.3091,-2.3091,-2.3091,-2.3013,-2.2769,-2.275,-2.2627,-2.2207,-2.1943,-2.1678,-2.1533,-2.1113,-2.0859,-2.0859,-2.0713,-2.0605,-2.0605,-2.0605,-2.0605,-2.0605,-2.0605,-2.1155,-2.2188,-2.1631,-2.1886,-2.2813,-2.2414,-2.3073,-2.4529,-2.4981,-2.5429,-2.5873,-2.6314,-2.6499,-2.6499,-2.6499,-2.6499,-2.6499,-2.6499,-2.6499,-2.6499]}]]